[[{"header":{"parameterUnit":"m.s-1","parameterCategory":1,"la1":31.0,"la2":29.5877,"lo1":-88.7671,"lo2":-86.6584,"dy":0.0162,"dx":0.0185,"nx":115,"ny":88,"refTime":"2024-03-05T06:00:00:Z","depth":0,"parameterNumber":2,"parameterNumberName":"U-component_of_WINDS"},"data":[0.0,0.0,0.0,0.0,0.0,0.0,0.0,0.0,0.0,0.0,0.0,0.0,0.0,0.0,0.0,0.0,0.0,0.0,0.0,0.0,0.0,0.0,0.0,0.0,0.0,0.0,0.0,0.0,0.0,0.0,0.0,0.0,0.0,0.0,0.0,0.0,0.0,0.0,0.0,0.0,0.0,0.0,0.0,0.0,0.0,0.0,0.0,0.0,0.0,0.0,0.0,0.0,0.0,0.0,0.0,0.0,0.0,0.0,0.0,0.0,0.0,0.0,0.0,0.0,0.0,0.0,0.0,0.0,0.0,0.0,0.0,0.0,0.0,0.0,0.0,0.0,0.0,0.0,0.0,0.0,0.0,0.0,0.0,0.0,0.0,0.0,0.0,0.0,0.0,0.0,0.0,0.0,0.0,0.0,0.0,0.0,0.0,0.0,0.0,0.0,0.0,0.0,0.0,0.0,0.0,0.0,0.0,0.0,0.0,0.0,0.0,0.0,0.0,0.0,0.0,0.0,0.0,0.0,0.0,0.0,0.0,0.0,0.0,0.0,0.0,0.0,0.0,0.0,0.0,0.0,0.0,0.0,0.0,0.0,0.0,0.0,0.0,0.0,0.0,0.0,0.0,0.0,0.0,0.0,0.0,0.0,0.0,0.0,0.0,0.0,0.0,0.0,0.0,0.0,0.0,0.0,0.0,0.0,0.0,0.0,0.0,0.0,0.0,0.0,0.0,0.0,0.0,0.0,0.0,0.0,0.0,0.0,0.0,0.0,0.0,0.0,0.0,0.0,0.0,0.0,0.0,0.0,0.0,0.0,0.0,0.0,0.0,0.0,0.0,0.0,0.0,0.0,0.0,0.0,0.0,0.0,0.0,0.0,0.0,0.0,0.0,0.0,0.0,0.0,0.0,0.0,0.0,0.0,0.0,0.0,0.0,0.0,0.0,0.0,0.0,0.0,0.0,0.0,0.0,0.0,0.0,0.0,0.0,0.0,0.0,0.0,0.0,0.0,0.0,0.0,0.0,0.0,0.0,0.0,0.0,0.0,0.0,0.0,0.0,0.0,0.0,0.0,0.0,0.0,0.0,0.0,0.0,0.0,0.0,0.0,0.0,0.0,0.0,0.0,0.0,0.0,0.0,0.0,0.0,0.0,0.0,0.0,0.0,0.0,0.0,0.0,0.0,0.0,0.0,0.0,0.0,0.0,0.0,0.0,0.0,0.0,0.0,0.0,0.0,0.0,0.0,0.0,0.0,0.0,0.0,0.0,0.0,0.0,0.0,0.0,0.0,0.0,0.0,0.0,0.0,0.0,0.0,0.0,0.0,0.0,0.0,0.0,0.0,0.0,0.0,0.0,0.0,0.0,0.0,0.0,0.0,0.0,0.0,0.0,0.0,0.0,0.0,0.0,0.0,0.0,0.0,0.0,0.0,0.0,0.0,0.0,0.0,0.0,0.0,0.0,0.0,0.0,0.0,0.0,0.0,0.0,0.0,0.0,0.0,0.0,0.0,0.0,0.0,0.0,0.0,0.0,0.0,0.0,0.0,0.0,0.0,0.0,0.0,0.0,0.0,0.0,0.0,0.0,0.0,0.0,0.0,0.0,0.0,0.0,0.0,0.0,0.0,0.0,0.0,0.0,0.0,0.0,0.0,0.0,0.0,0.0,0.0,0.0,0.0,0.0,0.0,0.0,0.0,0.0,0.0,0.0,0.0,0.0,0.0,0.0,0.0,0.0,0.0,0.0,0.0,0.0,0.0,0.0,0.0,0.0,0.0,0.0,0.0,0.0,0.0,0.0,0.0,0.0,0.0,0.0,0.0,0.0,0.0,0.0,0.0,0.0,0.0,0.0,0.0,0.0,0.0,0.0,0.0,0.0,0.0,0.0,0.0,0.0,0.0,0.0,0.0,0.0,0.0,0.0,0.0,0.0,0.0,0.0,0.0,0.0,0.0,0.0,0.0,0.0,0.0,0.0,0.0,0.0,0.0,0.0,0.0,0.0,0.0,0.0,0.0,0.0,0.0,0.0,0.0,0.0,0.0,0.0,0.0,0.0,0.0,0.0,0.0,0.0,0.0,0.0,0.0,0.0,0.0,0.0,0.0,0.0,0.0,0.0,0.0,0.0,0.0,0.0,0.0,0.0,0.0,0.0,0.0,0.0,0.0,0.0,0.0,0.0,0.0,0.0,0.0,0.0,0.0,0.0,0.0,0.0,0.0,0.0,0.0,0.0,0.0,0.0,0.0,0.0,0.0,0.0,0.0,0.0,0.0,0.0,0.0,0.0,0.0,0.0,0.0,0.0,0.0,0.0,0.0,0.0,0.0,0.0,0.0,0.0,0.0,0.0,0.0,0.0,0.0,0.0,0.0,0.0,0.0,0.0,0.0,0.0,0.0,0.0,0.0,0.0,0.0,0.0,0.0,0.0,0.0,0.0,0.0,0.0,0.0,0.0,0.0,0.0,0.0,0.0,0.0,0.0,0.0,0.0,0.0,0.0,0.0,0.0,0.0,0.0,0.0,0.0,0.0,0.0,0.0,0.0,0.0,0.0,0.0,0.0,0.0,0.0,0.0,0.0,0.0,0.0,0.0,0.0,0.0,0.0,0.0,0.0,0.0,0.0,0.0,0.0,0.0,0.0,0.0,0.0,0.0,0.0,0.0,0.0,0.0,0.0,0.0,0.0,0.0,0.0,0.0,0.0,0.0,0.0,0.0,0.0,0.0,0.0,0.0,0.0,0.0,0.0,0.0,0.0,0.0,0.0,0.0,0.0,0.0,0.0,0.0,0.0,0.0,0.0,0.0,0.0,0.0,0.0,0.0,0.0,0.0,0.0,0.0,0.0,0.0,0.0,0.0,0.0,0.0,0.0,0.0,0.0,0.0,0.0,0.0,0.0,0.0,0.0,0.0,0.0,0.0,0.0,0.0,0.0,0.0,0.0,0.0,0.0,0.0,0.0,0.0,0.0,0.0,0.0,0.0,0.0,0.0,0.0,0.0,0.0,0.0,0.0,0.0,0.0,0.0,0.0,0.0,0.0,0.0,0.0,0.0,0.0,0.0,0.0,0.0,0.0,0.0,0.0,0.0,0.0,0.0,0.0,0.0,0.0,0.0,0.0,0.0,0.0,0.0,0.0,0.0,0.0,0.0,0.0,0.0,0.0,0.0,0.0,0.0,0.0,0.0,0.0,0.0,0.0,0.0,0.0,0.0,0.0,0.0,0.0,0.0,0.0,0.0,0.0,0.0,0.0,0.0,0.0,0.0,0.0,0.0,0.0,0.0,0.0,0.0,0.0,0.0,0.0,0.0,0.0,0.0,0.0,0.0,0.0,0.0,0.0,0.0,0.0,0.0,0.0,0.0,0.0,0.0,0.0,0.0,0.0,0.0,0.0,0.0,0.0,0.0,0.0,0.0,0.0,0.0,0.0,0.0,0.0,0.0,0.0,0.0,0.0,0.0,0.0,0.0,0.0,0.0,0.0,0.0,0.0,0.0,0.0,0.0,0.0,0.0,0.0,0.0,0.0,0.0,0.0,0.0,0.0,0.0,0.0,0.0,0.0,0.0,0.0,0.0,0.0,0.0,0.0,0.0,0.0,0.0,0.0,0.0,0.0,0.0,0.0,0.0,0.0,0.0,0.0,0.0,0.0,0.0,0.0,0.0,0.0,0.0,0.0,0.0,0.0,0.0,0.0,0.0,0.0,0.0,0.0,0.0,0.0,0.0,0.0,0.0,0.0,0.0,0.0,0.0,0.0,0.0,0.0,0.0,0.0,0.0,0.0,0.0,0.0,0.0,0.0,0.0,0.0,0.0,0.0,0.0,0.0,0.0,0.0,0.0,0.0,0.0,0.0,0.0,0.0,0.0,0.0,0.0,0.0,0.0,0.0,0.0,0.0,0.0,0.0,0.0,0.0,0.0,0.0,0.0,0.0,0.0,0.0,0.0,0.0,0.0,0.0,0.0,0.0,0.0,0.0,0.0,0.0,0.0,0.0,0.0,0.0,0.0,0.0,0.0,0.0,0.0,0.0,0.0,0.0,0.0,0.0,0.0,0.0,0.0,0.0,0.0,0.0,0.0,0.0,0.0,0.0,0.0,0.0,0.0,0.0,0.0,0.0,0.0,0.0,0.0,0.0,0.0,0.0,0.0,0.0,0.0,0.0,0.0,0.0,0.0,0.0,0.0,0.0,0.0,0.0,0.0,0.0,0.0,0.0,0.0,0.0,0.0,0.0,0.0,0.0,0.0,0.0,0.0,0.0,0.0,0.0,0.0,0.0,0.1433,0.0,0.0,0.0,0.0,0.0,0.0,0.0,0.0,0.0,0.0,0.0,0.0,0.0,0.0,0.0,0.0,0.0,0.0,0.0,0.0,0.0,0.0,0.0,0.0,0.0,0.0,0.0,0.0,0.0,0.0,0.0,0.0,0.0,0.0,0.0,0.0,0.0,0.0,0.0,0.0,0.0,0.0,0.0,0.0,0.0,0.0,0.0,0.0,0.0,0.0,0.0,0.0,0.0,0.0,0.0,0.0,0.0,0.0,0.0,0.0,0.0,0.0,0.0,0.0,0.0,0.0,0.0,0.0,0.0,0.0,0.0,0.0,0.0,0.0,0.0,0.0,0.0,0.0,0.0,0.0,0.0,0.0,0.0,0.0,0.0,0.0,0.0,0.0,0.0,0.0,0.0,0.0,0.0,0.0,0.0,0.0,0.0,0.0,0.0,0.0,0.0,0.0,0.0,0.0,0.0,0.0,0.0,0.0,0.0,0.0,0.2224,0.21,0.1942,0.1696,0.141,0.0,0.0,0.0,0.0,0.0,0.0,0.0,0.0,0.0,0.0,0.0,0.0,0.0,0.0,0.0,0.0,0.0,0.0,0.0,0.0,0.0,0.0,0.0,0.0,0.0,0.0,0.0,0.0,0.0,0.0,0.0,0.0,0.0,0.0,0.0,0.0,0.0,0.0,0.0,0.0,0.0,0.0,0.0,0.0,0.0,0.0,0.0,0.0,0.0,0.0,0.0,0.0,0.0,0.0,0.0,0.0,0.0,0.0,0.0,0.0,0.0,0.0,0.0,0.0,0.0,0.0,0.0,0.0,0.0,0.0,0.0,0.0,0.0,0.0,0.0,0.0,0.0,0.0,0.0,0.0,0.0,0.0,0.0,0.0,0.0,0.0,0.0,0.0,0.0,0.0,0.0,0.0,0.0,0.0,0.0,0.0,0.0,0.0,0.0,0.0,0.0,0.0,0.0,0.0,0.0,0.0,0.0,0.0,0.0,0.0,0.0,0.0,0.192,0.1696,0.1388,0.0,0.0,0.0,0.0,0.0,0.0,0.0,0.0,0.0,0.0,0.0,0.0,0.0,0.0,0.0,0.0,0.0,0.0,0.0,0.0,0.0,0.0,0.0,0.0,0.0,0.0,0.0,0.0,0.0,0.0,0.0,0.0,0.0,0.0,0.0,0.0,0.0,0.0,0.0,0.0,0.0,0.0,0.0,0.0,0.0,0.0,0.0,0.0,0.0,0.0,0.0,0.0,0.0,0.0,0.0,0.0,0.0,0.0,0.0,0.0,0.0,0.0,0.0,0.0,0.0,0.0,0.0,0.0,0.0,0.0,0.0,0.0,0.0,0.0,0.0,0.0,0.0,0.0,0.0,0.0,0.0,0.0,0.0,0.0,0.0,0.0,0.0,0.0,0.0,0.0,0.0,0.0,0.0,0.0,0.0,0.0,0.0,0.0,0.0,0.0,0.0,0.0,0.0,0.0,0.0,0.0,0.0,0.0,0.0,0.0,0.2333,0.2198,0.2004,0.0,0.1341,0.0,0.0,0.0,0.0,0.0,0.0,0.0,0.0,0.0,0.0,0.0,0.0,0.0,0.0,0.0,0.0,0.0,0.0,0.0,0.0,0.0,0.0,0.0,0.0,0.0,0.0,0.0,0.0,0.0,0.0,0.0,0.0,0.0,0.0,0.0,0.0,0.0,0.0,0.0,0.0,0.0,0.0,0.0,0.0,0.0,0.0,0.0,0.0,0.0,0.0,0.0,0.0,0.0,0.0,0.0,0.0,0.0,0.0,0.0,0.0,0.0,0.0,0.0,0.0,0.0,0.0,0.0,0.0,0.0,0.0,0.0,0.0,0.0,0.0,0.0,0.0,0.0,0.0,0.0,0.0,0.0,0.0,0.0,0.0,0.0,0.0,0.0,0.0,0.0,0.0,0.0,0.0,0.0,0.0,0.0,0.0,0.0,0.0,0.0,0.0,0.0,0.0,0.0,0.0,0.0,0.0,0.0,0.0,0.0,0.0,0.2381,0.2263,0.192,0.161,0.0,0.0,0.0,0.0,0.0,0.0,0.0,0.0,0.0,0.0,0.0,0.0,0.0,0.0,0.0,0.0,0.0,0.0,0.0,0.0,0.0,0.0,0.0,0.0,0.0,0.0,0.0,0.0,0.0,0.0,0.0,0.0,0.0,0.0,0.0,0.0,0.0,0.0,0.0,0.0,0.0,0.0,0.0,0.0,0.0,0.0,0.0,0.0,0.0,0.0,0.0,0.0,0.0,0.0,0.0,0.0,0.0,0.0,0.0,0.0,0.0,0.0,0.0,0.0,0.0,0.0,0.0,0.0,0.0,0.0,0.0,0.0,0.0,0.0,0.0,0.0,0.0,0.0,0.0,0.0,0.0,0.0,0.0,0.0,0.0,0.0,0.0,0.0,0.0,0.0,0.0,0.0,0.0,0.0,0.0,0.0,0.0,0.0,0.0,0.0,0.0,0.0,0.0,0.0,0.0,0.0,0.0,0.0,0.0,0.0,0.2672,0.2464,0.2245,0.1898,0.1591,0.1388,0.0,0.0,0.0,0.0,0.0,0.0,0.0,0.0,0.0,0.0,0.0,0.0,0.0,0.0,0.0,0.0,0.0,0.0,0.0,0.0,0.0,0.0,0.0,0.0,0.0,0.0,0.0,0.0,0.0,0.0,0.0,0.0,0.0,0.0,0.0,0.0,0.0,0.0,0.0,0.0,0.0,0.0,0.0,0.0,0.0,0.0,0.0,0.0,0.0,0.0,0.0,0.0,0.0,0.0,0.0,0.0,0.0,0.0,0.0,0.0,0.0,0.0,0.0,0.0,0.0,0.0,0.0,0.0,0.0,0.0,0.0,0.0,0.0,0.0,0.0,0.0,0.0,0.0,0.0,0.0,0.0,0.0,0.0,0.0,0.0,0.0,0.0,0.0,0.0,0.0,0.0,0.0,0.0,0.0,0.0,0.0,0.0,0.0,0.0,0.0,0.0,0.0,0.0,0.0,0.0,0.0,0.0,0.0,0.3184,0.2865,0.2507,0.2126,0.1964,0.1787,0.0,0.0,0.0,0.0,0.0,0.0,0.0,0.0,0.0,0.0,0.0,0.0,0.0,0.0,0.0,0.0,0.0,0.0,0.0,0.0,0.0,0.0,0.0,0.0,0.0,0.0,0.0,0.0,0.0,0.0,0.0,0.0,0.0,0.0,0.0,0.0,0.0,0.0,0.0,0.0,0.0,0.0,0.0,0.0,0.0,0.0,0.0,0.0,0.0,0.0,0.0,0.0,0.0,0.0,0.0,0.0,0.0,0.0,0.0,0.0,0.0,0.0,0.0,0.0,0.0,0.0,0.0,0.0,0.0,0.0,0.0,0.0,0.0,0.0,0.0,0.0,0.0,0.0,0.0,0.0,0.0,0.0,0.0,0.0,0.0,0.0,0.0,0.0,0.0,0.0,0.0,0.0,0.0,0.0,0.0,0.0,0.0,0.0,0.0,0.0,0.0,0.0,0.0,0.0,0.0,0.0,0.0,0.0,0.0,0.3698,0.3352,0.2919,0.2489,0.2263,0.2018,0.0,0.0,0.0,0.0,0.0,0.0,0.0,0.0,0.0,0.0,0.0,0.0,0.0,0.0,0.0,0.0,0.0,0.0,0.0,0.0,0.0,0.0,0.0,0.0,0.0,0.0,0.0,0.0,0.0,0.0,0.0,0.0,0.0,0.0,0.0,0.0,0.0,0.0,0.0,0.0,0.0,0.0,0.0,0.0,0.0,0.0,0.0,0.0,0.0,0.0,0.0,0.0,0.0,0.0,0.0,0.0,0.0,0.0,0.0,0.0,0.0,0.0,0.0,0.0,0.0,0.0,0.0,0.0,0.0,0.0,0.0,0.0,0.0,0.0,0.0,0.0,0.0,0.0,0.0,0.0,0.0,0.0,0.0,0.0,0.0,0.0,0.0,0.0,0.0,0.0,0.0,0.0,0.0,0.0,0.0,0.0,0.0,0.0,0.0,0.0,0.0,0.0,0.0,0.0,0.0,0.0,0.0,0.0,0.0,0.3951,0.0,0.3234,0.2864,0.257,0.2305,0.0,0.0,0.0,0.0,0.0,0.0,0.0,0.0,0.0,0.0,0.0,0.0,0.0,0.0,0.0,0.0,0.0,0.0,0.0,0.0,0.0,0.0,0.0,0.0,0.0,0.0,0.0,0.0,0.0,0.0,0.0,0.0,0.0,0.0,0.0,0.0,0.0,0.0,0.0,0.0,0.0,0.0,0.0,0.0,0.0,0.0,0.0,0.0,0.0,0.0,0.0,0.0,0.0,0.0,0.0,0.0,0.0,0.0,0.0,0.0,0.0,0.0,0.0,0.0,0.0,0.0,0.0,0.0,0.0,0.0,0.0,0.0,0.0,0.0,0.0,0.0,0.0,0.0,0.0,0.0,0.0,0.0,0.0,0.0,0.0,0.0,0.0,0.0,0.0,0.0,0.0,0.0,0.0,0.0,0.0,0.0,0.0,0.0,0.0,0.0,0.0,0.0,0.0,0.0,0.0,0.0,0.0,0.0,0.4483,0.3846,0.3564,0.3384,0.3205,0.2872,0.2591,0.0,0.0,0.0,0.0,0.0,0.0,0.0,0.0,0.0,0.0,0.0,0.0,0.0,0.0,0.0,0.0,0.0,0.0,0.0,0.0,0.0,0.0,0.0,0.0,0.0,0.0,0.0,0.0,0.0,0.0,0.0,0.0,0.0,0.0,0.0,0.0,0.0,0.0,0.0,0.0,0.0,0.0,0.0,0.0,0.0,0.0,0.0,0.0,0.0,0.0,0.0,0.0,0.0,0.0,0.0,0.0,0.0,0.0,0.0,0.0,0.0,0.0,0.0,0.0,0.0,0.0,0.0,0.0,0.0,0.0,0.0,0.0,0.0,0.0,0.0,0.0,0.0,0.0,0.0,0.0,0.0,0.0,0.0,0.0,0.0,0.0,0.0,0.0,0.0,0.0,0.0,0.0,0.0,0.0,0.0,0.0,0.0,0.0,0.0,0.0,0.0,0.0,0.0,0.0,0.0,0.0,0.0,0.0,0.0,0.4502,0.4271,0.3946,0.3564,0.321,0.2891,0.0,0.0,0.0,0.0,0.0,0.0,0.0,0.0,0.0,0.0,0.0,0.0,0.0,0.0,0.0,0.0,0.0,0.0,0.0,0.0,0.0,0.0,0.0,0.0,0.0,0.0,0.0,0.0,0.0,0.0,0.0,0.0,0.0,0.0,0.0,0.0,0.0,0.0,0.0,0.0,0.0,0.0,0.0,0.0,0.0,0.0,0.0,0.0,0.0,0.0,0.0,0.0,0.0,0.0,0.0,0.0,0.0,0.0,0.0,0.0,0.0,0.0,0.0,0.0,0.0,0.0,0.0,0.0,0.0,0.0,0.0,0.0,0.0,0.0,0.0,0.0,0.0,0.0,0.0,0.0,0.0,0.0,0.0,0.0,0.0,0.0,0.0,0.0,0.0,0.0,0.0,0.0,0.0,0.0,0.0,0.0,0.0,0.0,0.0,0.0,0.0,0.0,0.0,0.0,0.0,0.0,0.0,0.0,0.0,0.4998,0.4698,0.4331,0.3894,0.3565,0.3203,0.2753,0.0,0.0,0.0,0.0,0.0,0.0,0.0,0.0,0.0,0.0,0.0,0.0,0.0,0.0,0.0,0.0,0.0,0.0,0.0,0.0,0.0,0.0,0.0,0.0,0.0,0.0,0.0,0.0,0.0,0.0,0.0,0.0,0.0,0.0,0.0,0.0,0.0,0.0,0.0,0.0,0.0,0.0,0.0,0.0,0.0,0.0,0.0,0.0,0.0,0.0,0.0,0.0,0.0,0.0,0.0,0.0,0.0,0.0,0.0,0.0,0.0,0.0,0.0,0.0,0.0,0.0,0.0,0.0,0.0,0.0,0.0,0.0,0.0,0.0,0.0,0.0,0.0,0.0,0.0,0.0,0.0,0.0,0.0,0.0,0.0,0.0,0.0,0.0,0.0,0.0,0.0,0.0,0.0,0.0,0.0,0.0,0.0,0.0,0.0,0.0,0.0,0.0,0.0,0.0,0.0,0.0,0.0,0.0,0.5309,0.4845,0.4483,0.4205,0.3858,0.3483,0.0,0.0,0.0,0.0,0.0,0.0,0.0,0.0,0.0,0.0,0.0,0.0,0.0,0.0,0.0,0.0,0.0,0.0,0.0,0.0,0.0,0.0,0.0,0.0,0.0,0.0,0.0,0.0,0.0,0.0,0.0,0.0,0.0,0.0,0.0,0.0,0.0,0.0,0.0,0.0,0.0,0.0,0.0,0.0,0.0,0.0,0.0,0.0,0.0,0.0,0.0,0.0,0.0,0.0,0.0,0.0,0.0,0.0,0.0,0.0,0.0,0.0,0.0,0.0,0.0,0.0,0.0,0.0,0.0,0.0,0.0,0.0,0.0,0.0,0.0,0.0,0.0,0.0,0.0,0.0,0.0,0.0,0.0,0.0,0.0,0.0,0.0,0.0,0.0,0.0,0.0,0.0,0.0,0.0,0.0,0.0,0.0,0.0,0.0,0.0,0.0,0.0,0.0,0.0,0.0,0.0,0.0,0.0,0.0,0.5345,0.4929,0.4593,0.4339,0.3928,0.3551,0.0,0.0,0.0,0.0,0.0,0.0,0.0,0.0,0.0,0.0,0.0,0.0,0.0,0.0,0.0,0.0,0.0,0.0,0.0,0.0,0.0,0.0,0.0,0.0,0.0,0.0,0.0,0.0,0.0,0.0,0.0,0.0,0.0,0.0,0.0,0.0,0.0,0.0,0.0,0.0,0.0,0.0,0.0,0.0,0.0,0.0,0.0,0.0,0.0,0.0,0.0,0.0,0.0,0.0,0.0,0.0,0.0,0.0,0.0,0.0,0.0,0.0,0.0,0.0,0.0,0.0,0.0,0.0,0.0,0.0,0.0,0.0,0.0,0.0,0.0,0.0,0.0,0.0,0.0,0.0,0.0,0.0,0.0,0.0,0.0,0.0,0.0,0.0,0.0,0.0,0.0,0.0,0.0,0.0,0.0,0.0,0.0,0.0,0.0,0.0,0.0,0.0,0.0,0.0,0.0,0.0,0.0,0.0,0.5401,0.5522,0.5188,0.4907,0.4692,0.4215,0.3798,0.0,0.0,0.0,0.0,0.0,0.0,0.0,0.0,0.0,0.0,0.0,0.0,0.0,0.0,0.0,0.0,0.0,0.0,0.0,0.0,0.0,0.0,0.0,0.0,0.0,0.0,0.0,0.0,0.0,0.0,0.0,0.0,0.0,0.0,0.0,0.0,0.0,0.0,0.0,0.0,0.0,0.0,0.0,0.0,0.0,0.0,0.0,0.0,0.0,0.0,0.0,0.0,0.0,0.0,0.0,0.0,0.0,0.0,0.0,0.0,0.0,0.0,0.0,0.0,0.0,0.0,0.0,0.0,0.0,0.0,0.0,0.0,0.0,0.0,0.0,0.0,0.0,0.0,0.0,0.0,0.0,0.0,0.0,0.0,0.0,0.0,0.0,0.0,0.0,0.0,0.0,0.0,0.0,0.0,0.0,0.0,0.0,0.0,0.0,0.0,0.0,0.0,0.0,0.0,0.0,0.0,0.0,0.0,0.5727,0.5676,0.5494,0.5324,0.5099,0.4596,0.4086,0.0,0.0,0.0,0.0,0.0,0.0,0.0,0.0,0.0,0.0,0.0,0.0,0.0,0.0,0.0,0.0,0.0,0.0,0.0,0.0,0.0,0.0,0.0,0.0,0.0,0.0,0.0,0.0,0.0,0.0,0.0,0.0,0.0,0.0,0.0,0.0,0.0,0.0,0.0,0.0,0.0,0.0,0.0,0.0,0.0,0.0,0.0,0.0,0.0,0.0,0.0,0.0,0.0,0.0,0.0,0.0,0.0,0.0,0.0,0.0,0.0,0.0,0.0,0.0,0.0,0.0,0.0,0.0,0.0,0.0,0.0,0.0,0.0,0.0,0.0,0.0,0.0,0.0,0.0,0.0,0.0,0.0,0.0,0.0,0.0,0.0,0.0,0.0,0.0,0.0,0.0,0.0,0.0,0.0,0.0,0.0,0.0,0.0,0.0,0.0,0.0,0.0,0.0,0.0,0.0,0.0,0.0,0.0,0.5419,0.5515,0.5375,0.5307,0.5239,0.4698,0.4221,0.0,0.0,0.0,0.0,0.0,0.0,0.0,0.0,0.0,0.0,0.0,0.0,0.0,0.0,0.0,0.0,0.0,0.0,0.0,0.0,0.0,0.0,0.0,0.0,0.0,0.0,0.0,0.0,0.0,0.0,0.0,0.0,0.0,0.0,0.0,0.0,0.0,0.0,0.0,0.0,0.0,0.0,0.0,0.0,0.0,0.0,0.0,0.0,-0.4932,0.0,0.0,0.0,0.0,0.0,0.0,0.0,0.0,0.0,0.0,0.0,0.0,0.0,0.0,0.0,0.0,0.0,0.0,0.0,0.0,0.0,0.0,0.0,0.0,0.0,0.0,0.0,0.0,0.0,0.0,0.0,0.0,0.0,0.0,0.0,0.0,0.0,0.0,0.0,0.0,0.0,0.0,0.0,0.0,0.0,0.0,0.0,0.0,0.0,0.0,0.0,0.0,0.0,0.0,0.0,0.0,0.0,0.0,0.0,0.527,0.5477,0.5422,0.5453,0.5522,0.4992,0.4511,0.0,0.0,0.0,0.0,0.0,0.0,0.0,0.0,0.0,0.0,0.0,0.0,0.0,0.0,0.0,0.0,0.0,0.0,0.0,0.0,0.0,0.0,0.0,0.0,0.0,0.0,0.0,0.0,0.0,0.0,0.0,0.0,0.0,0.0,0.0,0.0,0.0,0.0,0.0,0.0,0.0,0.0,0.0,0.0,0.0,0.0,0.0,0.0,0.0,0.0,0.0,0.0,0.0,0.0,0.0,0.0,0.0,0.0,0.0,0.0,0.0,0.0,0.0,0.0,0.0,0.0,0.0,0.0,0.0,0.0,0.0,0.0,0.0,0.0,0.0,0.0,0.0,0.0,0.0,0.0,0.0,0.0,0.0,0.0,0.0,0.0,0.0,0.0,0.0,0.0,0.0,0.0,0.0,0.0,0.0,0.0,0.0,0.0,0.0,0.0,0.0,0.0,0.0,0.0,0.0,0.0,0.0,0.5131,0.5257,0.546,0.5522,0.5592,0.5718,0.5246,0.4794,0.4382,0.0,0.0,0.0,0.0,0.0,0.0,0.0,0.0,0.0,0.0,0.0,0.0,0.0,0.0,0.0,0.0,0.0,0.0,0.0,0.0,0.0,0.0,0.0,0.0,0.0,0.0,0.0,0.0,0.0,0.0,0.0,0.0,0.0,0.0,0.0,0.0,0.0,0.0,-0.1764,-0.2039,0.0,0.0,0.0,0.0,0.0,0.0,0.0,0.0,-0.4868,0.0,0.0,0.0,0.0,0.0,0.0,0.0,0.0,0.0,0.0,0.0,0.0,0.0,0.0,0.0,0.0,0.0,0.0,0.0,0.0,0.0,0.0,0.0,0.0,0.0,0.0,0.0,0.0,0.0,0.0,0.0,0.0,0.0,0.0,0.0,0.0,0.0,0.0,0.0,0.0,0.0,0.0,0.0,0.0,0.0,0.0,0.0,0.0,0.0,0.0,0.0,0.0,0.0,0.0,0.0,0.0,0.4992,0.5232,0.5383,0.5421,0.5578,0.5585,0.5372,0.5081,0.4692,0.4242,0.0,0.0,0.0,0.0,0.0,0.0,0.0,0.0,0.0,0.0,0.0,0.0,0.0,0.0,0.0,0.0,0.0,0.0,0.0,0.0,0.0,0.0,0.0,0.0,0.0,0.0,0.0,0.0,0.0,0.0,0.0,0.0,0.0,0.0,0.0,0.0,0.0,0.0,0.0,-0.1846,-0.2129,0.0,0.0,0.0,0.0,0.0,0.0,0.0,0.0,-0.5032,0.0,0.0,0.0,0.0,0.0,0.0,0.0,0.0,0.0,0.0,0.0,0.0,0.0,0.0,0.0,0.0,0.0,0.0,0.0,0.0,0.0,0.0,0.0,0.0,0.0,0.0,0.0,0.0,0.0,0.0,0.0,0.0,0.0,0.0,0.0,0.0,0.0,0.0,0.0,0.0,0.0,0.0,0.0,0.0,0.0,0.0,0.0,0.0,0.0,0.0,0.0,0.0,0.0,0.0,0.0,0.4794,0.4985,0.5112,0.5176,0.5302,0.5302,0.5207,0.4915,0.4532,0.0,0.0,0.0,0.0,0.0,0.0,0.0,0.0,0.0,0.0,0.0,0.0,0.0,0.0,0.0,0.0,0.0,0.0,0.0,0.0,0.0,0.0,0.0,0.0,0.0,0.0,0.0,0.0,0.0,0.0,0.0,0.0,0.0,0.0,0.0,0.0,0.0,0.0,0.0,0.0,-0.1711,-0.1837,-0.1794,0.0,0.0,0.0,0.0,0.0,0.0,-0.4735,-0.5237,0.0,0.0,0.0,0.0,0.0,0.0,0.0,0.0,0.0,0.0,0.0,0.0,0.0,0.0,0.0,0.0,0.0,0.0,0.0,0.0,0.0,0.0,0.0,0.0,0.0,0.0,0.0,0.0,0.0,0.0,0.0,0.0,0.0,0.0,0.0,0.0,0.0,0.0,0.0,0.0,0.0,0.0,0.0,0.0,0.0,0.0,0.0,0.0,0.0,0.0,0.0,0.0,0.0,0.0,0.0,0.457,0.4672,0.4806,0.4966,0.496,0.4953,0.4979,0.466,0.4312,0.0,0.0,0.0,0.0,0.0,0.0,0.0,0.0,0.0,0.0,0.0,0.0,0.0,0.0,0.0,0.0,0.0,0.0,0.0,0.0,0.0,0.0,0.0,0.0,0.0,0.0,0.0,0.0,0.0,0.0,0.0,0.0,0.0,0.0,0.0,0.0,0.0,0.0,0.0,0.0,0.0,-0.1628,-0.1533,-0.2133,0.0,0.0,0.0,0.0,-0.4275,-0.484,0.0,0.0,0.0,0.0,0.0,0.0,0.0,0.0,0.0,0.0,0.0,0.0,0.0,0.0,0.0,0.0,0.0,0.0,0.0,0.0,0.0,0.0,0.0,0.0,0.0,0.0,0.0,0.0,0.0,0.0,0.0,0.0,0.0,0.0,0.0,0.0,0.0,0.0,0.0,0.0,0.0,0.0,0.0,0.0,0.0,0.0,0.0,0.0,0.0,0.0,0.0,0.0,0.0,0.0,0.0,0.0,0.4523,0.4538,0.464,0.4806,0.4806,0.4742,0.4581,0.4253,0.3956,0.0,0.0,0.0,0.0,0.0,0.0,0.0,0.0,0.0,0.0,0.0,0.0,0.0,0.0,0.0,0.0,0.0,0.0,0.0,0.0,0.0,0.0,0.0,0.0,0.0,0.0,0.0,0.0,0.0,0.0,0.0,0.0,0.0,0.0,0.0,0.0,0.0,0.0,0.0,0.0,0.0,-0.1576,-0.1884,-0.2181,-0.2515,0.0,0.0,-0.3896,-0.4536,-0.4603,0.0,0.0,0.0,0.0,0.0,0.0,0.0,0.0,0.0,0.0,0.0,0.0,0.0,0.0,0.0,0.0,0.0,0.0,0.0,0.0,0.0,0.0,0.0,0.0,0.0,0.0,0.0,0.0,0.0,0.0,0.0,0.0,0.0,0.0,0.0,0.0,0.0,0.0,0.0,0.0,0.0,0.0,0.0,0.0,0.0,0.0,0.0,0.0,0.0,0.0,0.0,0.0,0.0,0.0,0.0,0.3966,0.4264,0.4344,0.4447,0.4549,0.4581,0.4452,0.4156,0.3961,0.363,0.0,0.0,0.0,0.0,0.0,0.0,0.0,0.0,0.0,0.0,0.0,0.0,0.0,0.0,0.0,0.0,0.0,0.0,0.0,0.0,0.0,0.0,0.0,0.0,0.0,0.0,0.0,0.0,0.0,0.0,0.0,0.0,0.0,0.0,0.0,0.0,0.0,0.0,0.0,0.0,0.0,0.0,-0.2003,-0.225,0.0,0.0,0.0,-0.4068,-0.4494,0.0,0.0,0.0,0.0,0.0,0.0,0.0,0.0,0.0,0.0,0.0,0.0,0.0,0.0,0.0,0.0,0.0,0.0,0.0,0.0,0.0,0.0,0.0,0.0,0.0,0.0,0.0,0.0,0.0,0.0,0.0,0.0,0.0,0.0,0.0,0.0,0.0,0.0,0.0,0.0,0.0,0.0,0.0,0.0,0.0,0.0,0.0,0.0,0.0,0.0,0.0,0.0,0.0,0.0,0.0,0.0,0.0,0.4058,0.4091,0.4183,0.4323,0.4285,0.4123,0.3858,0.3667,0.0,0.0,0.0,0.0,0.0,0.0,0.0,0.0,0.0,0.0,0.0,0.0,0.0,0.0,0.0,0.0,0.0,0.0,0.0,0.0,0.0,0.0,0.0,0.0,0.0,0.0,0.0,0.0572,0.0,0.0,0.0,0.0,0.0,0.0,0.0,0.0,0.0,0.0,0.0,0.0,0.0,0.0,-0.1781,-0.2182,-0.2454,-0.2737,0.0,0.0,-0.4247,-0.4559,-0.4934,-0.5403,0.0,0.0,0.0,0.0,0.0,0.0,0.0,0.0,0.0,0.0,0.0,0.0,0.0,0.0,0.0,0.0,0.0,0.0,0.0,0.0,0.0,0.0,0.0,0.0,0.0,0.0,0.0,0.0,0.0,0.0,0.0,0.0,0.0,0.0,0.0,0.0,0.0,0.0,0.0,0.0,0.0,0.0,0.0,0.0,0.0,0.0,0.0,0.0,0.0,0.0,0.0,0.0,0.0,0.0,0.3434,0.3891,0.3728,0.3798,0.4096,0.3993,0.3858,0.37,0.3335,0.3076,0.0,0.0,0.0,0.0,0.0,0.0,0.0,0.0,0.0,0.0,0.0,0.0,0.0,0.0,0.0,0.0,0.0,0.0,0.0,0.0,0.0,0.0,0.0,0.0,0.0,0.0,0.0,0.0,0.0,0.0,0.0,0.0,0.0,0.0,0.0,0.0,0.0,0.0,0.0,0.0,0.0,-0.2034,-0.2399,-0.2747,-0.3076,0.0,0.0,-0.434,-0.4831,-0.4893,-0.523,-0.6046,0.0,0.0,0.0,0.0,0.0,0.0,0.0,0.0,0.0,0.0,0.0,0.0,0.0,0.0,0.0,0.0,0.0,0.0,0.0,0.0,0.0,0.0,0.0,0.0,0.0,0.0,0.0,0.0,0.0,0.0,0.0,0.0,0.0,0.0,0.0,0.0,0.0,0.0,0.0,0.0,0.0,0.0,0.0,0.0,0.0,0.0,0.0,0.0,0.0,0.0,0.0,0.0,0.0,0.334,0.3626,0.3597,0.3597,0.3597,0.3648,0.3504,0.3201,0.3083,0.2867,0.0,0.0,0.0,0.0,0.0,0.0,0.0,0.0,0.0,0.0,0.0,0.0,0.0,0.0,0.0,0.0,0.0,0.0,0.0,0.0,0.0,0.0,0.0,0.0,0.0,0.0,0.0,0.0,0.0707,0.0673,0.0471,0.0,0.0,0.0,0.0,0.0,0.0,0.0,0.0,0.0,0.0,-0.2413,-0.2918,-0.3169,0.0,0.0,-0.4155,-0.4522,-0.4956,-0.5179,-0.5563,-0.6213,-0.6918,0.0,0.0,0.0,0.0,0.0,0.0,0.0,0.0,0.0,0.0,0.0,0.0,0.0,0.0,0.0,0.0,0.0,0.0,0.0,0.0,0.0,0.0,0.0,0.0,0.0,0.0,0.0,0.0,0.0,0.0,0.0,0.0,0.0,0.0,0.0,0.0,0.0,0.0,0.0,0.0,0.0,0.0,0.0,0.0,0.0,0.0,0.0,0.0,0.0,0.0,0.0,0.0,0.3257,0.3434,0.3581,0.3543,0.3315,0.342,0.3297,0.2938,0.2879,0.273,0.0,0.0,0.0,0.0,0.0,0.0,0.0,0.0,0.0,0.0,0.0,0.0,0.0,0.0,0.0,0.0,0.0,0.0,0.0,0.0,0.0,0.0,0.0,0.0,0.0,0.0,0.0,0.0,0.0614,0.0448,0.0138,0.0,0.0,0.0,0.0,0.0,0.0,0.0,0.0,0.0,0.0,-0.2775,-0.3243,-0.3476,-0.3802,-0.4138,-0.456,-0.4979,-0.531,-0.5694,-0.6178,-0.6738,0.0,0.0,0.0,0.0,0.0,0.0,0.0,0.0,0.0,0.0,0.0,0.0,0.0,0.0,0.0,0.0,0.0,0.0,0.0,0.0,0.0,0.0,0.0,0.0,0.0,0.0,0.0,0.0,0.0,0.0,0.2687,0.0,0.0,0.0,0.0,0.0,0.0,0.0,0.0,0.0,0.0,0.0,0.0,0.0,0.0,0.0,0.0,0.0,0.0,0.0,0.0,0.0,0.0,0.3248,0.329,0.3549,0.3601,0.3417,0.3384,0.3275,0.3001,0.2733,0.2581,0.2498,0.0,0.0,0.0,0.0,0.0,0.0,0.0,0.0,0.0,0.0,0.0,0.0,0.0,0.0,0.0,0.0,0.0,0.0,0.0,0.0,0.0,0.0,0.0,0.0,0.0,0.0,0.0505,0.0176,-0.0145,0.0,0.0,0.0,0.0,0.0,0.0,0.0,0.0,0.0,0.0,-0.2762,-0.3065,-0.3335,-0.3858,-0.42,-0.4252,-0.5046,-0.5719,-0.5887,-0.6452,-0.7116,0.0,0.0,0.0,0.0,0.0,0.0,0.0,0.0,0.0,0.0,0.0,0.0,0.0,0.0,0.0,0.0,0.0,0.0,0.0,0.0,0.0,0.0,0.0,0.0,0.0,0.0,0.0,0.2769,0.2737,0.0,0.0,0.0,0.0,0.0,0.0,0.0,0.0,0.0,0.0,0.0,0.3155,0.3155,0.0,0.0,0.0,0.0,0.0,0.0,0.0,0.0,0.0,0.0,0.0,0.0,0.3469,0.3496,0.3717,0.3639,0.3245,0.3317,0.3151,0.2742,0.2699,0.2581,0.2302,0.0,0.0,0.0,0.0,0.0,0.0,0.0,0.0,0.0,0.0,0.0,0.0,0.0,0.0,0.0,0.0,0.0,0.0,0.0,0.0,0.0,0.0,0.0,0.0,0.0,0.058,0.0,0.0,0.0,0.0,0.0,0.0,0.0,0.0,0.0,0.0,0.0,-0.2175,-0.2387,-0.2873,-0.3366,-0.3627,-0.4154,-0.467,0.0,0.0,0.0,0.0,0.0,0.0,0.0,0.0,0.0,0.0,0.0,0.0,0.0,0.0,-1.2867,-1.3571,-1.3869,-1.4374,-1.5395,0.0,0.0,0.0,0.0,0.0,0.0,0.0,0.0,0.0,0.0,0.0,0.0,0.0,0.0,0.3224,0.0,0.3059,0.0,0.0,0.0,0.0,0.0,0.0,0.0,0.0,0.3162,0.3141,0.3127,0.3127,0.3085,0.0,0.2898,0.2728,0.0,0.0,0.0,0.0,0.0,0.0,0.0,0.0,0.3566,0.3629,0.3901,0.3738,0.3208,0.3309,0.3174,0.2663,0.2602,0.2459,0.2191,0.1903,0.1696,0.0,0.0,0.0,0.0,0.0,0.0,0.0,0.0,0.0,0.0,0.0,0.0,0.0,0.0,0.0,0.0,0.0,0.0,0.0,0.0,0.0,0.0,0.0,0.0527,0.0,0.0,0.0,0.0,0.0,0.0,0.0,0.0,0.0,-0.1637,-0.2015,-0.2349,-0.2595,-0.3199,-0.3702,-0.4026,0.0,0.0,0.0,0.0,0.0,0.0,0.0,-0.8221,-0.8823,-0.9427,-1.006,-1.0657,-1.1375,-1.2064,-1.252,0.0,0.0,-1.3826,-1.4164,-1.4797,-1.5941,-1.7331,-1.8576,-1.9297,-2.0261,-2.1043,0.0,0.0,0.0,0.0,0.0,0.0,0.0,0.0,0.3814,0.3729,0.0,0.3552,0.0,0.0,0.0,0.0,0.0,0.3229,0.0,0.0,0.305,0.2975,0.2796,0.2796,0.2793,0.2793,0.2796,0.2676,0.2512,0.2712,0.0,0.0,0.0,0.0,0.0,0.0,0.353,0.3582,0.4009,0.3928,0.3323,0.3457,0.3312,0.2682,0.2415,0.2284,0.2198,0.2061,0.1894,0.1735,0.1651,0.0,0.0,0.0,0.0,0.0,0.0,0.0,0.0,0.0,0.0,0.0,0.0,0.0,0.0,0.0,0.0,0.0,0.0,0.0,0.0,0.0496,0.0,0.0,0.0,0.0,0.0,0.0,0.0,0.0,0.0,0.0,-0.1925,-0.2243,-0.2591,-0.3065,0.0,0.0,0.0,0.0,-0.5467,-0.5683,-0.6405,-0.7086,-0.7653,-0.8593,-0.939,-0.9907,0.0,0.0,-1.2106,-1.2689,-1.3204,-1.3701,-1.3793,-1.4016,-1.4305,-1.4994,-1.5837,-1.6864,-1.8055,-1.9097,-1.9713,-2.0722,-2.1382,0.4854,0.0,0.0,0.0,0.0,0.476,0.4645,0.4479,0.4362,0.4117,0.3769,0.3648,0.0,0.0,0.0,0.0,0.0,0.0,0.2544,0.2379,0.2295,0.2252,0.2285,0.2502,0.2588,0.2588,0.2673,0.2716,0.263,0.2588,0.255,0.2478,0.0,0.0,0.0,0.0,0.3224,0.3187,0.3393,0.3375,0.3034,0.307,0.2865,0.2413,0.2284,0.2273,0.2417,0.2135,0.2035,0.2109,0.1886,0.0,0.0,0.0,0.0,0.0,0.0,0.0,0.0,0.0,0.0,0.0,0.0,0.0,0.0,0.0,0.0,0.0,0.0,0.0,0.0565,0.0517,0.0338,0.0,0.0,0.0,0.0,0.0,0.0,0.0,0.0,0.0,-0.2669,-0.2691,-0.2852,0.0,0.0,-0.4158,-0.4587,-0.5064,-0.5523,-0.6005,0.0,0.0,0.0,-0.8447,-0.8941,-0.9524,-1.0168,-1.0846,-1.179,-1.2305,-1.2833,-1.3537,-1.3933,-1.4297,-1.4887,-1.5357,-1.6005,-1.6941,-1.8249,-1.9465,-2.0243,-2.1415,-2.2262,0.5495,0.5584,0.5427,0.5398,0.5419,0.538,0.5238,0.5037,0.4865,0.453,0.4109,0.3814,0.351,0.314,0.2973,0.0,0.0,0.0,0.2347,0.2235,0.2148,0.2049,0.2012,0.219,0.2324,0.2457,0.2549,0.264,0.2684,0.2549,0.2488,0.2449,0.0,0.0,0.2713,0.2959,0.3081,0.2987,0.3123,0.3084,0.2909,0.2729,0.2593,0.246,0.2375,0.242,0.264,0.2493,0.2355,0.2366,0.2138,0.1855,0.0,0.0,0.0,0.0,0.0,0.0,0.0,0.0,0.0,0.0,0.0,0.167,0.1696,0.0,0.0,0.0,0.0873,0.0616,0.047,0.0317,0.0,0.0,0.0,0.0,0.0,0.0,0.0,-0.1902,-0.2202,-0.2589,-0.3263,-0.3037,-0.312,-0.3873,-0.4127,-0.4411,-0.4794,0.0,-0.5605,-0.6305,-0.6677,-0.7269,-0.8306,-0.8689,-0.9134,-0.9843,-1.0497,-1.1211,-1.1984,-1.2684,-1.3413,-1.4078,-1.456,-1.4985,-1.5532,-1.5986,-1.6553,-1.7307,-1.8551,-1.9659,-2.0438,-2.1385,-2.2133,0.5981,0.5936,0.5556,0.5576,0.5878,0.5838,0.5772,0.5658,0.5305,0.5004,0.4763,0.4091,0.378,0.3691,0.3245,0.0,0.2668,0.2528,0.2395,0.2301,0.2303,0.208,0.1766,0.1808,0.2029,0.2348,0.244,0.253,0.2623,0.2523,0.2523,0.2668,0.2565,0.2563,0.2697,0.2845,0.2932,0.2962,0.3051,0.3004,0.2868,0.2514,0.2474,0.27,0.2618,0.2668,0.2895,0.2895,0.2757,0.2528,0.2393,0.2157,0.1876,0.0,0.0,0.0,0.0,0.0,0.0,0.0,0.0,0.0,0.0,0.0,0.0,0.0,0.0,0.1383,0.0832,0.0,0.0359,-0.0,0.0,0.0,0.0,-0.0962,-0.1216,-0.1413,-0.1759,-0.2318,0.0,0.0,-0.3644,-0.3347,-0.3456,-0.4418,-0.4562,-0.4674,-0.5065,-0.5283,-0.5717,-0.651,-0.6999,-0.7591,-0.8506,-0.9145,-0.9734,-1.043,-1.1306,-1.1959,-1.2555,-1.3469,-1.4458,-1.5013,-1.5497,-1.5859,-1.6114,-1.6802,-1.7491,-1.7919,-1.8849,-1.9791,-2.0409,-2.091,-2.1439,0.589,0.6013,0.5971,0.6002,0.597,0.5975,0.581,0.5616,0.5525,0.5297,0.5027,0.483,0.4445,0.381,0.3474,0.2939,0.2303,0.2301,0.1912,0.1325,0.1227,0.1276,0.1425,0.1326,0.1522,0.1964,0.2158,0.2254,0.2299,0.2144,0.2194,0.2443,0.2377,0.239,0.2581,0.2848,0.2752,0.2303,0.235,0.2403,0.2464,0.2539,0.2674,0.2864,0.2805,0.2893,0.3085,0.2744,0.2647,0.2839,0.2547,0.228,0.2123,0.202,0.0,0.0,0.0,0.0,0.0,0.0,0.0,0.0,0.0,0.2174,0.2235,0.0,0.1996,0.0,0.0983,0.0598,0.0615,-0.0189,0.0,0.0,-0.0973,-0.121,-0.1421,-0.152,-0.1826,-0.2371,-0.2506,-0.277,-0.3417,-0.3641,-0.4,-0.4556,-0.4514,-0.462,-0.5013,-0.5367,-0.5705,-0.6264,-0.6854,-0.7432,-0.8301,-0.9151,-0.993,-1.0405,-1.0817,-1.1444,-1.2603,-1.3352,-1.4112,-1.4863,-1.5576,-1.6053,-1.6394,-1.6881,-1.755,-1.8208,-1.9069,-1.9736,-2.0172,-2.0752,-2.14,0.5892,0.595,0.6164,0.6152,0.5947,0.6113,0.5985,0.5698,0.5744,0.559,0.5206,0.4911,0.4466,0.3866,0.3318,0.2716,0.2114,0.2066,0.1715,0.121,0.1009,0.1009,0.116,0.1563,0.1865,0.2118,0.2216,0.2367,0.2415,0.2124,0.2075,0.2367,0.2555,0.26,0.2555,0.2713,0.2643,0.2348,0.22,0.2175,0.2317,0.2413,0.2589,0.2835,0.2844,0.2971,0.3116,0.2918,0.2818,0.2918,0.267,0.2456,0.2225,0.2156,0.2066,0.0,0.0,0.0,0.0,0.0,0.0,0.0,0.0,0.0,0.0,0.0,0.2301,0.1832,0.1126,0.06,0.035,-0.0151,-0.0658,-0.098,-0.1175,-0.1363,-0.1689,-0.1829,-0.2074,-0.2579,-0.2635,-0.2819,-0.3385,-0.3649,-0.396,-0.4466,-0.4574,-0.4742,-0.5134,-0.5418,-0.5815,-0.6342,-0.6985,-0.7802,-0.8832,-0.9479,-1.0116,-1.0689,-1.1129,-1.1682,-1.2774,-1.3542,-1.4348,-1.5163,-1.5842,-1.6403,-1.6821,-1.7235,-1.7765,-1.8315,-1.9079,-1.9715,-2.0237,-2.0862,-2.1556,0.5821,0.5793,0.6065,0.6113,0.5954,0.6251,0.6124,0.5794,0.5929,0.5768,0.5327,0.4727,0.4224,0.3872,0.3062,0.2503,0.2043,0.1942,0.174,0.1432,0.133,0.1228,0.1177,0.2197,0.2658,0.2607,0.2503,0.2554,0.2762,0.2243,0.2088,0.2299,0.2672,0.2821,0.262,0.2648,0.26,0.2539,0.227,0.2267,0.2419,0.2327,0.2484,0.2792,0.2856,0.2963,0.311,0.3163,0.3115,0.2813,0.2815,0.2622,0.2299,0.2249,0.22,0.0,0.228,0.0,0.0,0.0,0.0,0.0,0.0,0.0,0.0,0.2878,0.2585,0.2027,0.1331,0.0687,0.0102,0.0053,-0.0214,-0.0965,-0.1213,-0.1402,-0.1905,-0.2135,-0.2419,-0.2805,-0.2813,-0.293,-0.3503,-0.3561,-0.3755,-0.4353,-0.4733,-0.5014,-0.5428,-0.562,-0.5947,-0.6605,-0.726,-0.8229,-0.9514,-0.9959,-1.0341,-1.116,-1.1683,-1.2308,-1.3009,-1.393,-1.4848,-1.5551,-1.6184,-1.6769,-1.7162,-1.7686,-1.8056,-1.8335,-1.9034,-1.9736,-2.0324,-2.1012,-2.1759,0.5353,0.5587,0.5707,0.5858,0.6059,0.6118,0.6034,0.5788,0.5839,0.5638,0.5284,0.4969,0.4483,0.3944,0.3569,0.3075,0.2417,0.253,0.2252,0.1756,0.2198,0.2366,0.2419,0.3078,0.3351,0.3185,0.2747,0.2583,0.2692,0.2086,0.1926,0.2193,0.2311,0.2533,0.2817,0.0,0.0,0.0,0.2152,0.2168,0.2421,0.2695,0.2892,0.3051,0.3138,0.0,0.3125,0.2911,0.2804,0.2859,0.2751,0.0,0.0,0.0,0.0,0.0,0.0,0.0,0.0,0.0,0.0,0.0,0.3279,0.3063,0.2842,0.2643,0.2432,0.2413,0.1886,0.143,0.1042,0.0719,0.0222,-0.0389,-0.0782,-0.1178,-0.1628,-0.2234,-0.2594,-0.2587,-0.2866,-0.3143,-0.3379,-0.3612,-0.3969,-0.4568,-0.4987,-0.5418,-0.576,-0.5951,-0.6214,-0.6478,-0.7466,-0.8587,-0.9802,-1.0158,-1.0659,-1.1553,-1.2051,-1.2539,-1.3236,-1.4188,-1.4911,-1.5267,-1.6132,-1.6968,-1.752,-1.793,-1.8337,-1.8664,-1.9065,-1.9473,-1.9933,-2.0711,-2.1331,0.5296,0.0,0.5608,0.5738,0.0,0.5649,0.5488,0.5358,0.584,0.5809,0.5395,0.4842,0.4401,0.4073,0.3413,0.297,0.2579,0.2521,0.2354,0.224,0.2631,0.2854,0.291,0.3302,0.3357,0.3026,0.2745,0.2521,0.2408,0.1986,0.1821,0.2017,0.2313,0.2587,0.2796,0.2798,0.2664,0.2458,0.2202,0.2234,0.2448,0.2651,0.278,0.2893,0.0,0.0,0.0,0.0,0.0,0.0,0.0,0.0,0.0,0.0,0.0,0.3299,0.3265,0.335,0.3556,0.3503,0.3506,0.3661,0.3345,0.3109,0.3005,0.2837,0.2675,0.2507,0.213,0.1707,0.1175,0.0897,0.0393,-0.0393,-0.0841,-0.1241,-0.1778,-0.2443,-0.2801,-0.2713,-0.3085,-0.335,-0.3409,-0.386,-0.4285,-0.4674,-0.5195,-0.569,-0.6152,-0.6346,-0.6609,-0.7335,-0.8138,-0.9097,-1.0089,-1.0535,-1.1001,-1.1903,-1.2248,-1.2579,-1.3077,-1.3999,-1.4848,-1.5275,-1.6193,-1.7038,-1.7579,-1.8066,-1.8472,-1.8865,-1.9274,-1.9671,-1.9987,-2.0506,-2.1099,0.5157,0.5233,0.5486,0.5466,0.5295,0.5175,0.5014,0.4944,0.0,0.0,0.0,0.4508,0.4122,0.4018,0.3188,0.2802,0.2747,0.2519,0.2575,0.28,0.3019,0.3186,0.3297,0.3355,0.3246,0.2912,0.2689,0.2465,0.224,0.1964,0.1797,0.1853,0.2355,0.2635,0.2691,0.2747,0.2689,0.2635,0.2354,0.2296,0.2465,0.2521,0.2579,0.2691,0.2691,0.2691,0.2691,0.2691,0.2691,0.2691,0.2691,0.28,0.3021,0.3019,0.3188,0.3585,0.3548,0.3669,0.3887,0.3801,0.3758,0.3809,0.3396,0.3171,0.3225,0.3082,0.2907,0.2577,0.2352,0.1849,0.1122,0.101,0.0561,-0.0449,-0.0902,-0.1314,-0.1919,-0.2653,-0.2953,-0.287,-0.3297,-0.3674,-0.3623,-0.414,-0.4631,-0.4897,-0.5349,-0.6017,-0.6745,-0.7007,-0.733,-0.8187,-0.8792,-0.9586,-1.0419,-1.088,-1.1376,-1.2026,-1.2349,-1.2555,-1.3031,-1.3901,-1.4751,-1.5409,-1.6263,-1.7028,-1.7647,-1.8134,-1.8607,-1.8998,-1.9473,-1.9933,-2.0107,-2.0366,-2.0876,0.446,0.479,0.4721,0.4728,0.482,0.5007,0.5014,0.4897,0.4933,0.4666,0.4242,0.4239,0.3959,0.3524,0.336,0.3137,0.2914,0.3241,0.3297,0.0,0.3691,0.3968,0.3855,0.3685,0.363,0.3574,0.2685,0.2352,0.241,0.2021,0.1797,0.1855,0.2128,0.241,0.2691,0.2796,0.274,0.2521,0.2296,0.2296,0.2521,0.2579,0.2691,0.2691,0.2693,0.2691,0.2691,0.2693,0.2691,0.2691,0.2691,0.2747,0.2745,0.2689,0.2856,0.3535,0.3449,0.3616,0.4253,0.4183,0.401,0.3706,0.3559,0.3454,0.3347,0.3014,0.2747,0.2635,0.241,0.2017,0.1572,0.1404,0.0955,-0.0,-0.0518,-0.0987,-0.1656,-0.2493,-0.2879,-0.2636,-0.3377,-0.4027,-0.4148,-0.4504,-0.4954,-0.5545,-0.5796,-0.6288,-0.7494,-0.7877,-0.7987,-0.8447,-0.8947,-0.9542,-1.0238,-1.0821,-1.1425,-1.2166,-1.232,-1.2645,-1.3279,-1.4125,-1.4858,-1.5632,-1.6524,-1.7235,-1.7638,-1.8124,-1.8607,-1.9008,-1.9407,-1.9736,-2.0042,-2.0313,-2.0562,0.4187,0.4411,0.447,0.4525,0.4577,0.4519,0.4408,0.4187,0.4135,0.4135,0.407,0.3962,0.3747,0.3527,0.3302,0.3302,0.3413,0.335,0.3463,0.3691,0.3968,0.4079,0.3965,0.3738,0.3461,0.3193,0.2567,0.2242,0.2131,0.1992,0.2052,0.2247,0.2709,0.2961,0.291,0.2963,0.288,0.2588,0.2431,0.243,0.2531,0.2649,0.2905,0.3128,0.308,0.3076,0.3125,0.2967,0.2824,0.2762,0.2661,0.28,0.3137,0.3137,0.3442,0.4131,0.3961,0.396,0.4383,0.4091,0.3758,0.3324,0.3283,0.3297,0.313,0.2915,0.2691,0.2465,0.2296,0.2017,0.1573,0.1427,0.098,0.0058,-0.0712,-0.127,-0.1637,-0.2436,-0.2859,-0.2738,-0.3565,-0.4299,-0.4418,-0.4912,-0.5382,-0.5851,-0.628,-0.7007,-0.7756,-0.8197,-0.8441,-0.8576,-0.9151,-0.9792,-1.0244,-1.0982,-1.1541,-1.1948,-1.2247,-1.25,-1.2958,-1.3751,-1.494,-1.6102,-1.6807,-1.7166,-1.7579,-1.8066,-1.8539,-1.9075,-1.9417,-1.9736,-2.0129,-2.0259,-2.0324,0.4021,0.419,0.4304,0.4363,0.4411,0.4076,0.3858,0.3638,0.3638,0.3799,0.4018,0.3747,0.3585,0.3585,0.3327,0.3391,0.3618,0.3447,0.3618,0.407,0.4182,0.4126,0.4017,0.3753,0.3372,0.2813,0.247,0.2259,0.2086,0.2071,0.2316,0.2795,0.3412,0.354,0.3315,0.3258,0.3129,0.2903,0.2785,0.2785,0.2793,0.2975,0.3248,0.3557,0.3488,0.3485,0.3557,0.3348,0.3124,0.2964,0.2768,0.2947,0.3401,0.3342,0.3605,0.4213,0.4047,0.3953,0.4061,0.3768,0.3395,0.3013,0.2995,0.2985,0.2909,0.2783,0.2579,0.2231,0.2166,0.1986,0.1538,0.1218,0.0707,-0.0177,-0.1037,-0.1558,-0.176,-0.2423,-0.2885,-0.2936,-0.3734,-0.4433,-0.4726,-0.5276,-0.5678,-0.5982,-0.6802,-0.7531,-0.7741,-0.8392,-0.8705,-0.8846,-0.9467,-1.0168,-1.0463,-1.1312,-1.1955,-1.2014,-1.2258,-1.2523,-1.276,-1.3651,-1.4874,-1.6292,-1.683,-1.7088,-1.7588,-1.8066,-1.8549,-1.9008,-1.9407,-1.9736,-2.0281,-2.0324,-2.0313,0.3907,0.3965,0.3907,0.4021,0.4196,0.3965,0.3802,0.3808,0.3799,0.3747,0.3708,0.3638,0.3591,0.3602,0.3525,0.3452,0.345,0.3859,0.3972,0.3912,0.4493,0.4616,0.4161,0.3844,0.3474,0.3108,0.2696,0.2458,0.2395,0.2465,0.2831,0.3374,0.3787,0.3953,0.3895,0.3714,0.3661,0.3674,0.3486,0.3428,0.3435,0.374,0.3925,0.3936,0.3928,0.3925,0.3952,0.3914,0.3787,0.3488,0.3335,0.3163,0.293,0.2636,0.2638,0.3121,0.2915,0.2916,0.3253,0.3133,0.306,0.3129,0.2859,0.269,0.2752,0.249,0.2201,0.2008,0.2086,0.1935,0.135,0.0884,0.0237,-0.0656,-0.137,-0.1828,-0.2065,-0.2308,-0.2743,-0.3426,-0.389,-0.4285,-0.5021,-0.5413,-0.5716,-0.6001,-0.6863,-0.7666,-0.8218,-0.8533,-0.8835,-0.9057,-0.9906,-1.0562,-1.0843,-1.1836,-1.24,-1.2572,-1.2588,-1.2724,-1.318,-1.377,-1.4713,-1.6291,-1.6793,-1.7088,-1.752,-1.8008,-1.8549,-1.8942,-1.9341,-1.9802,-2.027,-2.0475,-2.0669,0.3965,0.4021,0.3907,0.4073,0.4305,0.4058,0.3999,0.4188,0.4059,0.4068,0.4139,0.4027,0.387,0.3751,0.387,0.3925,0.398,0.4458,0.464,0.4574,0.4939,0.4819,0.4288,0.3906,0.3503,0.3085,0.2699,0.2535,0.2661,0.3164,0.3728,0.4278,0.4587,0.4665,0.4604,0.4363,0.415,0.3851,0.4227,0.4327,0.4196,0.4204,0.4391,0.4644,0.4586,0.4526,0.4446,0.4261,0.4027,0.3715,0.3378,0.3204,0.3146,0.2841,0.2861,0.3224,0.3097,0.2924,0.2757,0.2688,0.2552,0.2421,0.2463,0.2576,0.2706,0.2419,0.2079,0.1938,0.1928,0.1864,0.1603,0.1401,0.0561,-0.0939,-0.1745,-0.2158,-0.2434,-0.2786,-0.3263,-0.3971,-0.4628,-0.5057,-0.5329,-0.5654,-0.6071,-0.6408,-0.7064,-0.7731,-0.8218,-0.8468,-0.8705,-0.9051,-0.995,-1.0549,-1.073,-1.1389,-1.2089,-1.2363,-1.2567,-1.2852,-1.3107,-1.4065,-1.5111,-1.6468,-1.6868,-1.7285,-1.793,-1.8134,-1.8472,-1.8875,-1.9539,-2.0172,-2.1266,-2.0913,-2.0921,0.4021,0.3971,0.4061,0.4248,0.4458,0.4333,0.4358,0.4521,0.4383,0.4398,0.4546,0.4402,0.4247,0.4177,0.4378,0.4356,0.4353,0.4904,0.5088,0.503,0.5214,0.5034,0.4476,0.4142,0.3718,0.329,0.3033,0.3,0.313,0.3843,0.4552,0.498,0.5273,0.5344,0.522,0.4908,0.4583,0.4414,0.4678,0.4857,0.486,0.4792,0.4915,0.52,0.5123,0.5055,0.4951,0.4699,0.4385,0.4089,0.3668,0.3427,0.3306,0.3053,0.3032,0.3115,0.2988,0.2758,0.2424,0.2353,0.2149,0.1882,0.2153,0.2423,0.242,0.2085,0.1742,0.139,0.1288,0.1124,0.1284,0.1312,0.0383,-0.1549,-0.2172,-0.2525,-0.2975,-0.3378,-0.3847,-0.462,-0.5171,-0.5724,-0.5781,-0.6136,-0.6396,-0.6668,-0.7158,-0.7623,-0.8016,-0.8339,-0.8705,-0.9087,-0.9888,-1.0471,-1.0681,-1.1546,-1.1978,-1.2241,-1.2639,-1.2869,-1.3024,-1.432,-1.5528,-1.6684,-1.7051,-1.7463,-1.8056,-1.8269,-1.8617,-1.9198,-1.9802,-2.0531,-2.1297,-2.0955,-2.1175,0.4021,0.4039,0.433,0.4503,0.4523,0.4819,0.483,0.4758,0.4668,0.4732,0.4771,0.469,0.4741,0.4928,0.4991,0.4614,0.4105,0.5121,0.5248,0.4807,0.5311,0.5248,0.4626,0.4683,0.4403,0.3716,0.3659,0.3806,0.4207,0.4544,0.4954,0.5408,0.5716,0.5851,0.5709,0.5111,0.4942,0.5067,0.4674,0.4752,0.5415,0.5474,0.547,0.5547,0.5606,0.5474,0.5355,0.5345,0.5071,0.4547,0.4493,0.4107,0.3277,0.3085,0.2799,0.2339,0.2083,0.2085,0.2154,0.2018,0.1883,0.1879,0.2084,0.2221,0.2153,0.1479,0.0865,0.0518,-0.0066,-0.0263,-0.0064,-0.0063,-0.0632,-0.2193,-0.2715,-0.3174,-0.3749,-0.389,-0.4368,-0.5135,-0.553,-0.5901,-0.6498,-0.6666,-0.6595,-0.6647,-0.7085,-0.7598,-0.7853,-0.8382,-0.8877,-0.9338,-0.9823,-1.0335,-1.1149,-1.1725,-1.2362,-1.2626,-1.2727,-1.3084,-1.4025,-1.4909,-1.5917,-1.6845,-1.7233,-1.7696,-1.8124,-1.8549,-1.8962,-1.9494,-2.0205,-2.0899,-2.1461,-2.1232,-2.1498,0.3965,0.3919,0.4565,0.4797,0.4889,0.5132,0.5268,0.5307,0.5157,0.5178,0.5199,0.5127,0.5081,0.5081,0.5205,0.4944,0.4424,0.5147,0.5404,0.527,0.5274,0.5209,0.5091,0.4677,0.4231,0.3892,0.3825,0.4156,0.4755,0.5093,0.5557,0.6086,0.5954,0.5954,0.5885,0.5355,0.496,0.4891,0.4827,0.4891,0.4954,0.5156,0.5286,0.5289,0.5749,0.5752,0.5223,0.5422,0.5223,0.4625,0.4317,0.3899,0.337,0.2845,0.2395,0.2016,0.1816,0.1816,0.2085,0.1748,0.1884,0.2557,0.222,0.1884,0.1614,0.1142,0.0468,-0.0199,-0.0801,-0.1202,-0.1595,-0.1705,-0.2029,-0.2774,-0.3311,-0.3697,-0.4096,-0.4489,-0.4947,-0.56,-0.6055,-0.6542,-0.6902,-0.6933,-0.6798,-0.7039,-0.7209,-0.7481,-0.7964,-0.8499,-0.8958,-0.9396,-0.9786,-1.027,-1.1044,-1.1589,-1.2108,-1.2434,-1.2664,-1.2845,-1.3436,-1.4658,-1.5766,-1.7025,-1.7532,-1.7842,-1.8337,-1.8875,-1.9306,-2.016,-2.0805,-2.1039,-2.1724,-2.1399,-2.1793,0.3881,0.3934,0.4574,0.49,0.5037,0.5348,0.5552,0.5668,0.5578,0.5531,0.5547,0.5491,0.5422,0.5355,0.5481,0.5282,0.502,0.5422,0.5624,0.5554,0.5422,0.5359,0.5296,0.4897,0.4498,0.4159,0.4092,0.4492,0.509,0.5292,0.569,0.6346,0.6086,0.5885,0.5811,0.5348,0.4957,0.4758,0.4758,0.4761,0.4691,0.4894,0.509,0.5219,0.5617,0.555,0.4954,0.5286,0.5153,0.4492,0.4159,0.3825,0.3355,0.2554,0.2085,0.1884,0.1748,0.1748,0.1951,0.1748,0.1883,0.2221,0.2018,0.1614,0.1143,0.0605,-0.0067,-0.0806,-0.1479,-0.2084,-0.2555,-0.2887,-0.3088,-0.342,-0.4002,-0.453,-0.4812,-0.5282,-0.5877,-0.6404,-0.6793,-0.7129,-0.7461,-0.7129,-0.7039,-0.7317,-0.7141,-0.7311,-0.7812,-0.8419,-0.8888,-0.9396,-0.9913,-1.0421,-1.1031,-1.16,-1.1881,-1.2195,-1.2656,-1.2712,-1.3365,-1.4554,-1.5721,-1.6985,-1.7794,-1.8085,-1.8529,-1.9131,-1.9876,-2.0721,-2.098,-2.1058,-2.1422,-2.1537,-2.1889,0.3764,0.3993,0.4366,0.4794,0.5118,0.5448,0.5738,0.5885,0.5881,0.5873,0.5826,0.5752,0.5756,0.5822,0.5752,0.5617,0.5617,0.5951,0.5885,0.5491,0.5624,0.5627,0.5428,0.5296,0.503,0.4697,0.4628,0.4831,0.5382,0.5299,0.5488,0.5899,0.5962,0.5752,0.5617,0.5286,0.4957,0.4761,0.4564,0.4498,0.4764,0.4764,0.4894,0.5229,0.5156,0.4957,0.4625,0.4888,0.4758,0.4159,0.4292,0.4025,0.3023,0.2285,0.1884,0.1884,0.1884,0.1816,0.1681,0.2018,0.1816,0.1344,0.1277,0.1076,0.0269,-0.0336,-0.0873,-0.1344,-0.2083,-0.2822,-0.3159,-0.3558,-0.3756,-0.3682,-0.468,-0.5517,-0.5847,-0.6338,-0.6937,-0.74,-0.7466,-0.7591,-0.7792,-0.7526,-0.7311,-0.7107,-0.7058,-0.7187,-0.7777,-0.8344,-0.8854,-0.946,-1.0104,-1.0674,-1.1115,-1.1553,-1.1817,-1.2081,-1.2545,-1.2905,-1.3855,-1.4976,-1.5829,-1.7034,-1.79,-1.8269,-1.8664,-1.9198,-1.9594,-2.026,-2.0604,-2.1016,-2.1198,-2.1391,-2.1661,0.3537,0.3709,0.4246,0.4807,0.5329,0.5683,0.5954,0.6222,0.6148,0.5954,0.5818,0.5892,0.6028,0.6028,0.5962,0.5892,0.5822,0.5951,0.5888,0.5693,0.5362,0.5359,0.5422,0.516,0.4897,0.4827,0.4761,0.5014,0.541,0.5473,0.5733,0.6082,0.5874,0.5686,0.5557,0.516,0.4827,0.4691,0.4561,0.4495,0.45,0.4431,0.4567,0.4631,0.4428,0.4225,0.4092,0.4492,0.4492,0.403,0.3761,0.3293,0.2555,0.222,0.1951,0.1748,0.1951,0.2018,0.1816,0.2085,0.2288,0.2018,0.1277,0.0067,-0.0806,-0.0873,-0.121,-0.1816,-0.2554,-0.309,-0.3692,-0.422,-0.442,-0.4417,-0.5051,-0.5759,-0.6256,-0.6539,-0.7003,-0.7536,-0.7596,-0.7722,-0.7977,-0.7852,-0.7634,-0.7462,-0.7452,-0.7762,-0.8458,-0.8805,-0.9384,-0.9977,-1.0491,-1.0807,-1.1178,-1.149,-1.1747,-1.2065,-1.2444,-1.3048,-1.4059,-1.5077,-1.593,-1.7024,-1.7813,-1.8472,-1.8875,-1.9274,-1.9671,-1.9965,-2.038,-2.0786,-2.1139,-2.1363,-2.1431,0.3543,0.3779,0.4256,0.4885,0.5535,0.5847,0.6156,0.6552,0.6482,0.6284,0.6148,0.6288,0.616,0.6024,0.609,0.5958,0.569,0.5624,0.562,0.5554,0.5355,0.5289,0.555,0.5286,0.509,0.5106,0.5148,0.5355,0.5648,0.5754,0.5986,0.6044,0.591,0.5695,0.5511,0.5171,0.4886,0.4634,0.4625,0.4495,0.4367,0.4303,0.4303,0.43,0.4097,0.3961,0.3961,0.4095,0.3959,0.3694,0.3226,0.2755,0.2154,0.2018,0.1816,0.1614,0.1816,0.1951,0.1951,0.2085,0.2018,0.1681,0.0672,-0.0403,-0.121,-0.121,-0.1547,-0.222,-0.2822,-0.3422,-0.4023,-0.4688,-0.5087,-0.5415,-0.5683,-0.6214,-0.6863,-0.7125,-0.7461,-0.7857,-0.7857,-0.7982,-0.8177,-0.8231,-0.8125,-0.7942,-0.8009,-0.835,-0.9006,-0.9319,-0.9755,-1.0238,-1.0681,-1.0996,-1.124,-1.1498,-1.1692,-1.1996,-1.2375,-1.3052,-1.3965,-1.4859,-1.5824,-1.7207,-1.8269,-1.8674,-1.9075,-1.9473,-1.9813,-2.004,-2.006,-2.0237,-2.0424,-2.0796,-2.0917,0.3771,0.4008,0.425,0.4945,0.5796,0.5888,0.6284,0.6881,0.6881,0.6815,0.6749,0.6613,0.6346,0.5885,0.5951,0.5818,0.5425,0.5292,0.5219,0.5289,0.5352,0.5484,0.5484,0.5418,0.5484,0.5572,0.577,0.5859,0.5901,0.6064,0.6104,0.5953,0.5997,0.5806,0.5408,0.5316,0.5055,0.4698,0.466,0.4584,0.4389,0.4303,0.4303,0.4233,0.3961,0.3894,0.4033,0.3629,0.3226,0.3159,0.2822,0.242,0.1951,0.1751,0.1555,0.1348,0.1481,0.1753,0.2021,0.2018,0.1344,-0.0,-0.0134,-0.0403,-0.1277,-0.1681,-0.2017,-0.249,-0.3155,-0.382,-0.4422,-0.509,-0.5756,-0.635,-0.6609,-0.7134,-0.7852,-0.8042,-0.8177,-0.8376,-0.8371,-0.8366,-0.8635,-0.8689,-0.8678,-0.8613,-0.8538,-0.8918,-0.925,-0.964,-0.9779,-1.0231,-1.087,-1.0996,-1.124,-1.1365,-1.156,-1.1747,-1.2228,-1.302,-1.4105,-1.5177,-1.5844,-1.7292,-1.8208,-1.8649,-1.8926,-1.9117,-1.9312,-1.9383,-1.9393,-1.9539,-1.9884,-2.0382,-2.0604,0.3887,0.4133,0.4195,0.4961,0.5939,0.5752,0.6214,0.7003,0.6942,0.6885,0.6824,0.6482,0.6152,0.5833,0.5624,0.5495,0.5362,0.5296,0.5292,0.5292,0.5223,0.5223,0.5219,0.5219,0.5488,0.5778,0.6071,0.6132,0.6239,0.6373,0.6382,0.6404,0.5878,0.5587,0.5467,0.5318,0.5089,0.4903,0.4879,0.4837,0.4623,0.4417,0.4233,0.4097,0.3902,0.3768,0.3701,0.3293,0.2956,0.282,0.2353,0.2085,0.1889,0.1713,0.1511,0.1355,0.1712,0.1784,0.1486,0.1412,0.0672,-0.074,-0.0807,-0.1078,-0.1614,-0.2017,-0.2487,-0.3023,-0.3756,-0.4553,-0.515,-0.5752,-0.6482,-0.7209,-0.7466,-0.7657,-0.7917,-0.8047,-0.8242,-0.8694,-0.8689,-0.8877,-0.9198,-0.9512,-0.9576,-0.9518,-0.9646,-0.9773,-0.9977,-1.0283,-1.0494,-1.0694,-1.1066,-1.1122,-1.1185,-1.131,-1.1373,-1.1435,-1.2047,-1.298,-1.4382,-1.5894,-1.6438,-1.713,-1.7434,-1.7885,-1.7915,-1.8026,-1.8273,-1.8793,-1.9163,-1.9458,-1.9917,-2.0396,-2.049,0.4267,0.4525,0.4659,0.5212,0.6009,0.5947,0.6276,0.6675,0.6876,0.6894,0.6771,0.642,0.5885,0.5428,0.5428,0.5226,0.4964,0.4964,0.4964,0.4964,0.4954,0.5087,0.5223,0.5289,0.5554,0.6051,0.6409,0.6491,0.6539,0.6726,0.6708,0.64,0.6037,0.5664,0.5313,0.5167,0.4916,0.472,0.4791,0.4759,0.4545,0.4557,0.4386,0.4237,0.403,0.3825,0.3552,0.3134,0.2826,0.2506,0.222,0.1892,0.1711,0.1597,0.1461,0.1233,0.1529,0.1384,0.0813,0.0606,0.0135,-0.0875,-0.128,-0.1615,-0.2017,-0.2418,-0.2889,-0.3623,-0.4422,-0.502,-0.5686,-0.635,-0.6942,-0.7461,-0.7857,-0.8047,-0.8042,-0.8306,-0.8571,-0.8888,-0.9139,-0.9262,-0.9773,-1.0091,-1.0148,-1.0155,-1.0358,-1.0485,-1.0681,-1.096,-1.1199,-1.127,-1.1502,-1.1687,-1.1677,-1.1766,-1.2145,-1.2138,-1.2741,-1.3574,-1.4538,-1.623,-1.6476,-1.6751,-1.6862,-1.7064,-1.7256,-1.7589,-1.8071,-1.8562,-1.9043,-1.9332,-1.9656,-1.9954,-2.0137,0.4631,0.49,0.5232,0.5624,0.602,0.6284,0.6346,0.6342,0.6745,0.6828,0.6639,0.6424,0.5686,0.4749,0.516,0.496,0.4431,0.4498,0.4498,0.4694,0.4891,0.5219,0.5557,0.562,0.5903,0.6372,0.6867,0.694,0.6917,0.7238,0.7073,0.6535,0.622,0.5704,0.524,0.4925,0.4641,0.4431,0.4468,0.4525,0.4447,0.4491,0.4459,0.4388,0.4106,0.3754,0.3401,0.304,0.2707,0.2179,0.2172,0.1862,0.1475,0.1408,0.1193,0.0979,0.0908,0.0692,0.0136,-0.0,-0.0404,-0.1146,-0.1615,-0.2017,-0.2485,-0.2954,-0.3556,-0.422,-0.4888,-0.5554,-0.6086,-0.6811,-0.7265,-0.7657,-0.7852,-0.8112,-0.8301,-0.8689,-0.9028,-0.9174,-0.9572,-0.9862,-1.0136,-1.0434,-1.0737,-1.0661,-1.0863,-1.1059,-1.1255,-1.1454,-1.1652,-1.1792,-1.2022,-1.2315,-1.2315,-1.2304,-1.2743,-1.3084,-1.3876,-1.4561,-1.4898,-1.5903,-1.6204,-1.644,-1.6598,-1.684,-1.72,-1.7553,-1.7859,-1.8405,-1.8843,-1.89,-1.8993,-1.9241,-1.9484,0.4755,0.4897,0.5101,0.5683,0.6412,0.647,0.6605,0.6937,0.7073,0.6749,0.6296,0.5954,0.5488,0.4897,0.4964,0.4831,0.4694,0.4697,0.4827,0.5226,0.5491,0.5822,0.6094,0.616,0.6427,0.6903,0.7263,0.7453,0.7478,0.7275,0.718,0.6872,0.6015,0.5303,0.5043,0.4799,0.4503,0.4232,0.4237,0.4343,0.4402,0.4274,0.4237,0.4232,0.3939,0.3499,0.3132,0.2913,0.2536,0.2014,0.1792,0.1721,0.1512,0.1298,0.0929,0.0422,0.028,0.0138,-0.0068,-0.0607,-0.1146,-0.1821,-0.2018,-0.2348,-0.3025,-0.3758,-0.4289,-0.4818,-0.555,-0.6214,-0.6806,-0.7269,-0.7596,-0.7857,-0.8182,-0.8517,-0.8765,-0.8958,-0.9314,-0.9788,-1.0116,-1.0507,-1.1023,-1.1136,-1.1276,-1.1247,-1.1365,-1.156,-1.1777,-1.2025,-1.2134,-1.2326,-1.2699,-1.2999,-1.3056,-1.3196,-1.3695,-1.4128,-1.4927,-1.5468,-1.5752,-1.6163,-1.6693,-1.6656,-1.6373,-1.6682,-1.6975,-1.7074,-1.7243,-1.7965,-1.8767,-1.9121,-1.933,-1.9187,-1.9701,0.5171,0.5377,0.5321,0.5818,0.6478,0.6276,0.6342,0.6544,0.6613,0.6218,0.569,0.5488,0.5359,0.503,0.496,0.4894,0.4894,0.5093,0.5422,0.5881,0.6284,0.6659,0.6936,0.7069,0.727,0.7409,0.7531,0.7638,0.7467,0.7311,0.6949,0.656,0.586,0.5315,0.4851,0.4698,0.4382,0.3984,0.3951,0.4072,0.4215,0.4254,0.4218,0.4141,0.3766,0.3242,0.3172,0.2869,0.2552,0.2159,0.1855,0.1548,0.1387,0.1238,0.0791,0.0141,-0.07,-0.0976,-0.1239,-0.1495,-0.1963,-0.2531,-0.2573,-0.3092,-0.3692,-0.4422,-0.4951,-0.5484,-0.6083,-0.6679,-0.7265,-0.7531,-0.7797,-0.8052,-0.8376,-0.8809,-0.9165,-0.9396,-0.9569,-1.0099,-1.0503,-1.0863,-1.1241,-1.1551,-1.1556,-1.1464,-1.1479,-1.1759,-1.2375,-1.2558,-1.2694,-1.2925,-1.3388,-1.3632,-1.3765,-1.4107,-1.4741,-1.5235,-1.5788,-1.6163,-1.6438,-1.693,-1.7523,-1.7064,-1.6515,-1.6393,-1.6618,-1.668,-1.7333,-1.8354,-1.9243,-1.9649,-2.0205,-2.0719,-2.1311,0.5614,0.5892,0.5752,0.6013,0.6416,0.6218,0.6218,0.6152,0.602,0.5888,0.5289,0.5359,0.5359,0.5223,0.5153,0.509,0.5226,0.5617,0.6145,0.6601,0.7193,0.7412,0.7725,0.803,0.8107,0.7633,0.7767,0.7725,0.753,0.7099,0.6633,0.6015,0.5786,0.524,0.4618,0.4543,0.4231,0.3602,0.3754,0.3906,0.4066,0.421,0.4358,0.4201,0.3655,0.3189,0.311,0.28,0.24,0.2352,0.1899,0.1572,0.1244,0.0941,0.0506,-0.0283,-0.1482,-0.2039,-0.2252,-0.2499,-0.2832,-0.3227,-0.3432,-0.3859,-0.4593,-0.5036,-0.5481,-0.6017,-0.6552,-0.6876,-0.7461,-0.7787,-0.7917,-0.8182,-0.8635,-0.9125,-0.955,-0.9898,-1.0168,-1.0503,-1.0911,-1.1241,-1.1503,-1.1721,-1.167,-1.1703,-1.1733,-1.1978,-1.2607,-1.3138,-1.331,-1.3564,-1.4021,-1.4709,-1.4866,-1.4824,-1.5551,-1.6181,-1.6701,-1.6911,-1.7121,-1.7561,-1.7842,-1.7178,-1.6732,-1.6675,-1.6977,-1.7599,-1.8334,-1.9191,-2.0006,-2.072,-2.1493,-2.228,-2.2975,0.5739,0.5888,0.6152,0.6544,0.7007,0.7007,0.6876,0.6876,0.6482,0.6086,0.5756,0.5491,0.5491,0.5484,0.555,0.5686,0.6083,0.656,0.6959,0.7452,0.8031,0.8321,0.8412,0.8795,0.8888,0.8655,0.8318,0.8044,0.7778,0.7003,0.6402,0.6012,0.5553,0.4935,0.454,0.4384,0.4075,0.3452,0.3608,0.3841,0.3919,0.4231,0.4307,0.4155,0.3526,0.3056,0.2744,0.2585,0.2327,0.1828,0.1545,0.1283,0.08,0.0356,-0.0502,-0.1593,-0.2285,-0.2769,-0.295,-0.3164,-0.3591,-0.4089,-0.4437,-0.4858,-0.5515,-0.5851,-0.6152,-0.6448,-0.6898,-0.7269,-0.7601,-0.8052,-0.8436,-0.8765,-0.9157,-0.9643,-0.9922,-1.0327,-1.0943,-1.1448,-1.1574,-1.1623,-1.188,-1.2025,-1.2156,-1.2193,-1.2268,-1.2576,-1.3084,-1.3608,-1.395,-1.4295,-1.4652,-1.5435,-1.6095,-1.5939,-1.6216,-1.6964,-1.7456,-1.76,-1.7822,-1.815,-1.8034,-1.7676,-1.7426,-1.7368,-1.7797,-1.8431,-1.9187,-1.9905,-2.0885,-2.1902,-2.2601,-2.3345,-2.4329,0.627,0.6544,0.6412,0.6933,0.7587,0.6872,0.6872,0.7195,0.6482,0.6086,0.5888,0.5756,0.569,0.5752,0.5752,0.6214,0.6964,0.7584,0.8011,0.8533,0.8988,0.9269,0.9195,0.9553,0.9479,0.9114,0.8552,0.8054,0.7927,0.6853,0.6167,0.5864,0.5482,0.5012,0.4616,0.4616,0.4073,0.3452,0.353,0.3763,0.3763,0.4153,0.4314,0.3841,0.3294,0.2823,0.2511,0.2199,0.2019,0.1679,0.1072,-0.0226,-0.1177,-0.1517,-0.1653,-0.2616,-0.3173,-0.3473,-0.3676,-0.4038,-0.4595,-0.5161,-0.5421,-0.5775,-0.6316,-0.668,-0.701,-0.7387,-0.7527,-0.7897,-0.8409,-0.8636,-0.8894,-0.921,-0.96,-0.9988,-1.0309,-1.0902,-1.164,-1.2364,-1.2447,-1.2385,-1.2322,-1.25,-1.2644,-1.2749,-1.2781,-1.3209,-1.365,-1.3953,-1.4359,-1.4722,-1.5026,-1.5756,-1.6515,-1.6733,-1.6821,-1.7569,-1.8114,-1.8259,-1.8462,-1.8643,-1.8787,-1.8639,-1.8425,-1.8181,-1.8583,-1.9168,-1.9935,-2.0796,-2.1891,-2.2896,-2.3616,-2.4431,-2.5494,0.6811,0.7134,0.6802,0.7321,0.8037,0.6994,0.6933,0.7391,0.6736,0.6412,0.6284,0.628,0.628,0.6292,0.6523,0.7017,0.7986,0.8648,0.9113,0.9451,0.9655,0.9893,0.9952,0.9867,0.9591,0.91,0.8443,0.7931,0.7553,0.6553,0.5941,0.5712,0.5559,0.5168,0.4618,0.4538,0.3995,0.3606,0.361,0.3763,0.3919,0.4157,0.4238,0.3684,0.2901,0.2511,0.2356,0.1727,0.1241,0.0841,0.0076,-0.1441,-0.3828,-0.3567,-0.316,-0.3495,-0.4094,-0.4382,-0.4657,-0.5021,-0.5535,-0.6132,-0.6302,-0.6744,-0.7334,-0.7788,-0.8098,-0.8563,-0.8847,-0.8821,-0.9181,-0.9342,-0.9409,-0.9588,-0.9996,-1.0456,-1.0978,-1.1579,-1.2312,-1.2851,-1.3078,-1.315,-1.3048,-1.3399,-1.364,-1.3261,-1.3286,-1.3976,-1.4343,-1.4228,-1.452,-1.4939,-1.5401,-1.6035,-1.6682,-1.7226,-1.751,-1.8046,-1.8596,-1.8875,-1.8998,-1.9121,-1.9131,-1.9131,-1.9177,-1.9048,-1.9509,-1.9974,-2.0817,-2.1733,-2.2922,-2.391,-2.4744,-2.565,-2.6687,0.7138,0.7265,0.7972,0.8107,0.7922,0.8037,0.8231,0.8296,0.7712,0.7582,0.7615,0.74,0.7344,0.7522,0.7922,0.8633,0.9325,0.9685,0.9927,1.0118,1.0053,0.9896,0.9672,0.9425,0.9241,0.8932,0.8241,0.7787,0.7326,0.6328,0.5792,0.5637,0.5168,0.4701,0.454,0.4307,0.3686,0.3297,0.3688,0.4155,0.4387,0.4075,0.3763,0.337,0.2901,0.2276,0.1884,0.0941,0.0155,-0.0764,-0.1004,-0.1921,-0.3251,-0.4538,-0.4958,-0.4931,-0.4736,-0.4629,-0.5169,-0.5778,-0.6377,-0.6851,-0.7053,-0.7569,-0.8384,-0.904,-0.9508,-0.9667,-1.0119,-1.0251,-1.0086,-1.029,-1.0276,-1.0405,-1.0721,-1.1312,-1.1833,-1.2357,-1.3095,-1.3818,-1.4279,-1.3966,-1.3769,-1.4206,-1.4595,-1.4118,-1.3984,-1.4603,-1.4985,-1.489,-1.4985,-1.5471,-1.5771,-1.6333,-1.6872,-1.7413,-1.7978,-1.8529,-1.8875,-1.9218,-1.9274,-1.933,-1.9407,-1.9407,-1.9539,-1.9745,-1.9993,-2.0619,-2.1632,-2.2707,-2.3798,-2.4927,-2.601,-2.6935,-2.7773,0.8112,0.8117,0.8301,0.856,0.8829,0.8624,0.8683,0.8818,0.8431,0.8309,0.8475,0.8358,0.8415,0.8742,0.9138,0.957,1.0055,1.0478,1.055,1.0462,1.0356,1.012,0.9782,0.9562,0.9236,0.8627,0.8169,0.7633,0.7019,0.6328,0.5792,0.5637,0.5243,0.4854,0.4465,0.4153,0.3686,0.3297,0.3376,0.3763,0.4153,0.3917,0.329,0.2823,0.2588,0.1882,0.0784,-0.0078,-0.1015,-0.1857,-0.2189,-0.3042,-0.402,-0.4745,-0.5087,-0.5864,-0.5659,-0.557,-0.5687,-0.6475,-0.7173,-0.7706,-0.809,-0.8716,-0.9627,-1.0202,-1.0688,-1.1044,-1.1159,-1.1211,-1.1349,-1.1482,-1.1664,-1.179,-1.1709,-1.2228,-1.2806,-1.3298,-1.3884,-1.4655,-1.5314,-1.504,-1.491,-1.5355,-1.5489,-1.4897,-1.48,-1.527,-1.5607,-1.5668,-1.5869,-1.6193,-1.6368,-1.6664,-1.712,-1.7648,-1.8172,-1.8664,-1.8865,-1.9208,-1.9341,-1.9407,-1.9505,-1.9571,-1.9692,-1.9942,-2.0412,-2.1297,-2.2343,-2.3499,-2.4687,-2.5727,-2.6685,-2.7615,-2.84,0.8705,0.8705,0.863,0.9017,0.9606,0.9075,0.9075,0.9408,0.915,0.9145,0.9292,0.9378,0.9605,0.9933,1.0265,1.0606,1.0756,1.1162,1.1015,1.0742,1.0393,1.011,0.9664,0.9387,0.8937,0.8475,0.8093,0.7633,0.6942,0.6328,0.587,0.5637,0.5246,0.4851,0.4384,0.3919,0.3454,0.3061,0.3061,0.345,0.3841,0.337,0.2663,0.2194,0.1881,0.1254,-0.0313,-0.1253,-0.1957,-0.2821,-0.3446,-0.4224,-0.4924,-0.516,-0.5479,-0.6177,-0.6384,-0.6765,-0.6853,-0.7322,-0.794,-0.8627,-0.9377,-1.0093,-1.0765,-1.1217,-1.1597,-1.2284,-1.2522,-1.2598,-1.2608,-1.2572,-1.2675,-1.2737,-1.2755,-1.3249,-1.3719,-1.4214,-1.473,-1.5392,-1.5952,-1.626,-1.6283,-1.667,-1.6468,-1.5774,-1.5756,-1.6123,-1.628,-1.641,-1.6603,-1.6824,-1.6936,-1.7148,-1.7687,-1.8085,-1.8519,-1.8751,-1.9019,-1.9208,-1.9351,-1.9459,-1.9645,-1.9701,-1.9942,-2.1052,-2.198,-2.2524,-2.3152,-2.4202,-2.532,-2.6312,-2.7285,-2.817,-2.8853,0.8517,0.8582,0.935,0.9472,0.9344,0.9792,0.9926,0.9982,1.0208,1.0327,1.0434,1.0616,1.0893,1.1198,1.1345,1.1605,1.2058,1.1588,1.1187,1.0668,1.004,0.9599,0.9231,0.8856,0.8408,0.8025,0.7944,0.7557,0.6938,0.6483,0.6103,0.5796,0.5168,0.4618,0.4073,0.3606,0.3217,0.2904,0.2904,0.2982,0.3059,0.2588,0.1881,0.1332,0.094,0.0235,-0.1175,-0.2035,-0.2898,-0.3921,-0.4462,-0.4927,-0.5398,-0.5786,-0.6251,-0.6714,-0.7322,-0.7778,-0.8165,-0.8241,-0.8703,-0.9695,-1.0669,-1.1329,-1.1774,-1.2746,-1.3258,-1.3324,-1.3566,-1.3645,-1.3516,-1.3437,-1.368,-1.3776,-1.3958,-1.4371,-1.4823,-1.5268,-1.5748,-1.6222,-1.6546,-1.6871,-1.7213,-1.7444,-1.722,-1.6501,-1.6908,-1.7285,-1.712,-1.7257,-1.7345,-1.7451,-1.7392,-1.7716,-1.8269,-1.8714,-1.8998,-1.9065,-1.9189,-1.9271,-1.9372,-1.9502,-1.9948,-2.0465,-2.0952,-2.2263,-2.3335,-2.3541,-2.3955,-2.4902,-2.5857,-2.694,-2.7815,-2.8688,-2.9164,0.8441,0.8371,0.8964,0.9092,0.904,0.9965,1.0288,1.047,1.1062,1.1431,1.1454,1.183,1.1945,1.1946,1.1985,1.2111,1.2224,1.1774,1.1248,1.0657,0.9981,0.9453,0.9079,0.8703,0.8479,0.8178,0.8021,0.771,0.7099,0.6641,0.618,0.5637,0.5087,0.4621,0.4075,0.3294,0.2981,0.2904,0.2668,0.251,0.2431,0.1254,0.0392,0.0313,-0.0235,-0.1018,-0.2195,-0.3057,-0.3841,-0.4465,-0.516,-0.5622,-0.6086,-0.663,-0.7096,-0.7553,-0.8156,-0.8694,-0.9306,-0.9382,-0.976,-1.0812,-1.1639,-1.2231,-1.2599,-1.3273,-1.3775,-1.4065,-1.4425,-1.4324,-1.4862,-1.4855,-1.4959,-1.5018,-1.516,-1.5516,-1.5882,-1.6193,-1.6545,-1.689,-1.7239,-1.7522,-1.7804,-1.8104,-1.7765,-1.7368,-1.7949,-1.8387,-1.8291,-1.8203,-1.8378,-1.8339,-1.8339,-1.8271,-1.8832,-1.9116,-1.9354,-1.9412,-1.9391,-1.938,-1.9458,-2.0055,-2.0506,-2.1129,-2.1958,-2.3026,-2.3875,-2.423,-2.4866,-2.5925,-2.6758,-2.7644,-2.843,-2.9149,-2.9518,0.8247,0.8177,0.8371,0.8694,0.9057,0.9867,1.0375,1.0717,1.1464,1.2144,1.2421,1.2583,1.2673,1.2592,1.2512,1.2204,1.199,1.162,1.095,1.0351,0.9679,0.9311,0.8937,0.8708,0.8556,0.8408,0.8178,0.7795,0.718,0.6714,0.6177,0.5634,0.5085,0.4543,0.3999,0.3137,0.2668,0.2671,0.2354,0.1646,0.1568,0.047,-0.0783,-0.0861,-0.1488,-0.2115,-0.3057,-0.3841,-0.4387,-0.4932,-0.5547,-0.6318,-0.6857,-0.7472,-0.8008,-0.8542,-0.9069,-0.9453,-0.9986,-1.0519,-1.0881,-1.1781,-1.2378,-1.29,-1.3346,-1.3637,-1.4137,-1.4553,-1.4768,-1.5108,-1.5781,-1.5721,-1.5795,-1.5851,-1.6089,-1.6382,-1.6705,-1.702,-1.7271,-1.758,-1.7969,-1.8377,-1.9134,-1.9458,-1.9254,-1.8889,-1.8869,-1.9442,-1.9734,-1.9671,-1.9625,-1.9542,-1.9349,-1.9272,-1.9272,-1.9567,-1.9754,-1.9634,-1.9613,-1.9486,-1.9665,-2.0407,-2.1732,-2.3119,-2.3798,-2.4029,-2.455,-2.5203,-2.605,-2.6979,-2.7762,-2.8444,-2.861,-2.9198,-2.9693,0.8047,0.7982,0.7892,0.8415,0.9239,0.9478,1.0007,1.0754,1.149,1.2226,1.2903,1.298,1.29,1.2907,1.2673,1.2218,1.1613,1.1248,1.0651,0.989,0.9458,0.9094,0.8946,0.8789,0.8627,0.8403,0.8178,0.7799,0.7184,0.6553,0.6015,0.5479,0.4854,0.4229,0.3999,0.3059,0.2433,0.2121,0.1804,0.102,0.0235,-0.0314,-0.1097,-0.1881,-0.235,-0.2899,-0.3604,-0.4311,-0.4779,-0.5162,-0.6167,-0.6861,-0.7395,-0.8241,-0.8851,-0.9155,-0.9981,-1.0588,-1.1111,-1.1484,-1.2003,-1.2519,-1.3046,-1.3419,-1.3637,-1.3992,-1.4561,-1.5054,-1.5267,-1.5547,-1.5956,-1.6264,-1.651,-1.6723,-1.6973,-1.7214,-1.7474,-1.7852,-1.8142,-1.8514,-1.891,-1.9442,-2.0357,-2.0931,-2.0827,-2.0546,-2.0202,-2.0424,-2.0971,-2.0939,-2.0777,-2.0622,-2.0414,-2.0268,-2.0128,-2.0021,-2.0066,-2.0014,-2.0104,-2.0237,-2.0508,-2.125,-2.2834,-2.478,-2.5188,-2.4941,-2.5623,-2.6414,-2.7037,-2.7655,-2.843,-2.9022,-2.9121,-2.9247,-2.9679,0.8052,0.8107,0.7892,0.8221,0.8939,0.8929,0.9599,1.0707,1.1906,1.2802,1.3258,1.32,1.2732,1.2439,1.2298,1.1922,1.1323,1.0875,1.0276,0.9981,0.9468,0.917,0.9022,0.8861,0.8703,0.8551,0.825,0.7872,0.7407,0.6626,0.6015,0.5479,0.4543,0.3761,0.3137,0.2512,0.2043,0.1808,0.1021,0.0078,-0.0786,-0.1178,-0.1647,-0.243,-0.2743,-0.3292,-0.3919,-0.4623,-0.501,-0.5547,-0.663,-0.7625,-0.8237,-0.9079,-0.9836,-1.0282,-1.0962,-1.1632,-1.2305,-1.2826,-1.2973,-1.3273,-1.3492,-1.392,-1.4338,-1.4553,-1.5046,-1.548,-1.5842,-1.6166,-1.6531,-1.6858,-1.7123,-1.7415,-1.7658,-1.7939,-1.8202,-1.8643,-1.9029,-1.9474,-1.987,-2.0647,-2.1506,-2.2205,-2.2226,-2.2087,-2.1757,-2.1831,-2.2298,-2.1978,-2.1718,-2.1638,-2.1493,-2.1254,-2.109,-2.0945,-2.0956,-2.093,-2.1339,-2.1734,-2.207,-2.2291,-2.3352,-2.499,-2.546,-2.584,-2.6321,-2.6858,-2.7559,-2.8239,-2.8916,-2.9331,-2.9401,-2.9449,-2.9588,0.8306,0.8366,0.8285,0.8587,0.9042,0.888,0.9477,1.0767,1.2071,1.29,1.3119,1.2973,1.2592,1.2211,1.1922,1.1558,1.1037,1.0738,1.0363,1.0073,0.9625,0.9322,0.9094,0.8861,0.8784,0.8627,0.8327,0.7872,0.7407,0.6626,0.5857,0.501,0.4151,0.3448,0.2746,0.2199,0.1887,0.1493,0.0628,-0.0942,-0.1806,-0.2434,-0.2666,-0.3132,-0.3446,-0.3763,-0.4309,-0.4774,-0.5162,-0.6009,-0.7084,-0.8309,-0.8998,-0.9911,-1.0738,-1.126,-1.1929,-1.2526,-1.3127,-1.3775,-1.384,-1.3985,-1.4137,-1.4418,-1.4903,-1.5046,-1.5551,-1.6053,-1.6333,-1.6682,-1.7088,-1.7354,-1.7638,-1.7862,-1.8417,-1.8697,-1.9209,-1.9603,-2.0221,-2.0601,-2.127,-2.2026,-2.2685,-2.3202,-2.3677,-2.3537,-2.3374,-2.3433,-2.3409,-2.2995,-2.2659,-2.2612,-2.2419,-2.2098,-2.1941,-2.1941,-2.1876,-2.1903,-2.2362,-2.282,-2.3126,-2.3349,-2.4271,-2.5095,-2.5684,-2.6239,-2.6671,-2.7249,-2.784,-2.8517,-2.9288,-2.9547,-2.9582,-2.9645,-2.9749,0.8835,0.8835,0.9081,0.9417,0.9633,0.9335,0.9912,1.1162,1.1929,1.2526,1.2826,1.2298,1.215,1.2378,1.1935,1.1335,1.0812,1.0738,1.0363,0.9992,0.97,0.9473,0.9246,0.9094,0.8865,0.8632,0.825,0.7872,0.7407,0.6475,0.547,0.446,0.3679,0.2978,0.2431,0.1805,0.1492,0.0942,-0.0,-0.1647,-0.2904,-0.353,-0.3759,-0.4068,-0.4457,-0.4774,-0.5162,-0.5473,-0.5783,-0.6472,-0.7464,-0.8461,-0.9453,-1.0513,-1.126,-1.2077,-1.29,-1.3266,-1.3848,-1.4489,-1.4705,-1.484,-1.4982,-1.4974,-1.5117,-1.5551,-1.6044,-1.6464,-1.6751,-1.7157,-1.7491,-1.7774,-1.7978,-1.8542,-1.9127,-1.964,-2.0243,-2.0869,-2.1463,-2.2117,-2.2844,-2.3499,-2.4001,-2.4541,-2.4343,-2.4308,-2.4154,-2.4012,-2.3932,-2.3734,-2.3486,-2.3587,-2.3333,-2.2874,-2.2749,-2.2872,-2.3017,-2.3029,-2.3232,-2.3663,-2.3962,-2.4343,-2.5047,-2.5689,-2.6171,-2.6615,-2.6764,-2.7291,-2.8093,-2.8793,-2.9563,-2.9909,-3.0003,-2.9897,-3.0066,0.9022,0.9145,0.9204,0.9468,0.9876,1.0161,1.0652,1.1304,1.1706,1.2077,1.2452,1.2298,1.2003,1.1706,1.1558,1.1037,1.0594,1.0368,1.0218,0.9922,0.962,0.9549,0.9397,0.9094,0.8865,0.8556,0.8174,0.7642,0.7099,0.617,0.4927,0.3759,0.313,0.2507,0.1723,0.0862,0.0549,0.0078,-0.0862,-0.2272,-0.345,-0.3999,-0.4382,-0.4768,-0.5154,-0.5467,-0.5935,-0.6398,-0.678,-0.7544,-0.868,-0.9593,-1.0132,-1.1329,-1.2372,-1.3535,-1.3985,-1.4346,-1.5054,-1.5275,-1.5346,-1.5692,-1.5771,-1.5912,-1.5982,-1.6193,-1.6612,-1.6881,-1.7166,-1.751,-1.7988,-1.8281,-1.8819,-1.9557,-2.0414,-2.1396,-2.1913,-2.2196,-2.2821,-2.3522,-2.4205,-2.4477,-2.4999,-2.4743,-2.4601,-2.4755,-2.4802,-2.4587,-2.4409,-2.4163,-2.4057,-2.4135,-2.4028,-2.3518,-2.3764,-2.3944,-2.41,-2.4172,-2.4264,-2.4371,-2.4708,-2.5121,-2.5734,-2.6131,-2.6396,-2.6465,-2.6521,-2.7278,-2.8213,-2.9053,-2.9832,-3.0131,-3.0359,-3.0375,-3.0524,0.8823,0.9087,0.9139,0.9479,1.0065,1.0538,1.0943,1.123,1.1409,1.1706,1.2009,1.1781,1.1558,1.1403,1.1037,1.0663,1.0299,1.0148,0.9997,0.9922,0.9544,0.9311,0.9084,0.8708,0.825,0.8016,0.7557,0.6942,0.6402,0.5476,0.4231,0.345,0.2741,0.1802,0.094,-0.0078,-0.0861,-0.1254,-0.1959,-0.2976,-0.3839,-0.4543,-0.5082,-0.5467,-0.5851,-0.6237,-0.678,-0.7318,-0.7702,-0.8309,-0.9367,-1.0207,-1.0956,-1.2144,-1.3244,-1.433,-1.4974,-1.533,-1.5895,-1.5982,-1.6193,-1.6412,-1.6551,-1.663,-1.6769,-1.6899,-1.7097,-1.7364,-1.7588,-1.7891,-1.8398,-1.8937,-1.9839,-2.0751,-2.2037,-2.3356,-2.3573,-2.3621,-2.4214,-2.4816,-2.5196,-2.5296,-2.53,-2.4992,-2.4634,-2.4587,-2.4587,-2.4599,-2.4455,-2.4253,-2.4218,-2.4288,-2.4311,-2.4218,-2.449,-2.4646,-2.4599,-2.4636,-2.4791,-2.4957,-2.53,-2.5594,-2.591,-2.6188,-2.6396,-2.6546,-2.679,-2.7517,-2.8385,-2.9336,-3.0376,-3.0964,-3.1237,-3.1087,-3.1425,0.8501,0.8905,0.9068,0.9626,1.0263,1.0641,1.09,1.1099,1.1111,1.126,1.1484,1.1105,1.1111,1.1105,1.0812,1.0519,1.0293,1.0143,0.9997,0.9846,0.9306,0.9079,0.8699,0.794,0.771,0.7173,0.6556,0.6086,0.5315,0.4621,0.4001,0.3219,0.2353,0.1333,0.0235,-0.0861,-0.1723,-0.2349,-0.2974,-0.3837,-0.4932,-0.5712,-0.6328,-0.6872,-0.7099,-0.7246,-0.7706,-0.8012,-0.8161,-0.8841,-0.9674,-1.0743,-1.2063,-1.3164,-1.4258,-1.4966,-1.5745,-1.6306,-1.6594,-1.6673,-1.689,-1.7038,-1.7107,-1.7116,-1.7254,-1.7314,-1.7432,-1.7764,-1.8008,-1.8644,-1.9185,-2.016,-2.1177,-2.2127,-2.3315,-2.4181,-2.4486,-2.4727,-2.5215,-2.5684,-2.5783,-2.5873,-2.5664,-2.5324,-2.5075,-2.4684,-2.4504,-2.4539,-2.4659,-2.4515,-2.4478,-2.4562,-2.449,-2.4562,-2.4706,-2.4849,-2.4921,-2.4981,-2.5111,-2.517,-2.5288,-2.5664,-2.598,-2.6258,-2.6465,-2.6909,-2.7314,-2.8037,-2.8973,-3.0158,-3.1149,-3.1895,-3.2136,-3.2217,-3.2507,0.87,0.925,0.9904,1.0293,1.0387,1.0822,1.1039,1.1111,1.0962,1.0962,1.0962,1.1037,1.0968,1.0887,1.0887,1.0669,1.0443,1.0218,1.0143,0.9765,0.9231,0.877,0.8618,0.7787,0.7326,0.7011,0.6314,0.5154,0.4146,0.3841,0.3532,0.2358,0.157,0.0627,-0.0235,-0.141,-0.2507,-0.3209,-0.4068,-0.4693,-0.5473,-0.6025,-0.6567,-0.7184,-0.7561,-0.8165,-0.8699,-0.9231,-0.9679,-1.0282,-1.1254,-1.2432,-1.373,-1.4537,-1.533,-1.6026,-1.6515,-1.7079,-1.7432,-1.751,-1.751,-1.7588,-1.7588,-1.7588,-1.7579,-1.7647,-1.7813,-1.8164,-1.8644,-1.9325,-2.0281,-2.1402,-2.256,-2.3467,-2.436,-2.49,-2.5363,-2.5815,-2.6251,-2.6327,-2.6346,-2.622,-2.6,-2.5767,-2.5508,-2.5181,-2.4886,-2.4826,-2.504,-2.5028,-2.4897,-2.4921,-2.4706,-2.4778,-2.4992,-2.5064,-2.5123,-2.5123,-2.5182,-2.5229,-2.5382,-2.5883,-2.642,-2.6357,-2.649,-2.7331,-2.8056,-2.8691,-2.9699,-3.092,-3.1875,-3.272,-3.3607,-3.3885,-3.412,0.8376,0.8809,0.9708,1.0284,1.0603,1.0822,1.1003,1.1099,1.0962,1.0887,1.0812,1.0881,1.0887,1.0738,1.0812,1.0738,1.0438,1.0293,0.9836,0.9382,0.8922,0.8389,0.7936,0.7326,0.6714,0.6244,0.5309,0.4222,0.3056,0.2746,0.2435,0.1493,0.0628,-0.0157,-0.0941,-0.2195,-0.3212,-0.3988,-0.5004,-0.578,-0.6244,-0.6707,-0.7322,-0.7936,-0.8699,-0.9306,-0.9981,-1.0582,-1.1099,-1.1768,-1.2579,-1.3455,-1.453,-1.5321,-1.6105,-1.6802,-1.7364,-1.792,-1.8269,-1.8337,-1.8134,-1.8134,-1.8124,-1.8046,-1.793,-1.7998,-1.8259,-1.863,-1.9117,-1.9812,-2.1232,-2.2468,-2.3445,-2.4354,-2.5135,-2.5802,-2.6246,-2.6748,-2.6909,-2.6879,-2.6782,-2.6552,-2.6346,-2.6139,-2.5832,-2.5286,-2.5047,-2.5581,-2.573,-2.5496,-2.5441,-2.5277,-2.5064,-2.5052,-2.5265,-2.5253,-2.5182,-2.5241,-2.5372,-2.5729,-2.61,-2.6441,-2.6791,-2.7105,-2.7621,-2.8283,-2.9032,-2.9605,-3.0554,-3.1772,-3.2677,-3.3446,-3.4449,-3.5363,-3.5451,0.7922,0.8213,0.9192,1.0099,1.0861,1.0833,1.0906,1.1087,1.1037,1.0962,1.0812,1.0732,1.0738,1.0663,1.0663,1.0513,1.0363,1.0218,0.969,0.9074,0.8461,0.7931,0.7246,0.6405,0.5864,0.5165,0.4384,0.3368,0.2275,0.2199,0.1729,0.0629,-0.0314,-0.1178,-0.2119,-0.2979,-0.3834,-0.4844,-0.5854,-0.7011,-0.7472,-0.777,-0.838,-0.9145,-0.9981,-1.0669,-1.1335,-1.1848,-1.2291,-1.3011,-1.3665,-1.4673,-1.5463,-1.6237,-1.6862,-1.7569,-1.7988,-1.8405,-1.8674,-1.8808,-1.8741,-1.8741,-1.8643,-1.8586,-1.8405,-1.8539,-1.8865,-1.9391,-1.9886,-2.0748,-2.2194,-2.3317,-2.4319,-2.4979,-2.5706,-2.6333,-2.6824,-2.7323,-2.7335,-2.7268,-2.7188,-2.7027,-2.6892,-2.662,-2.6251,-2.5679,-2.5759,-2.6405,-2.665,-2.6171,-2.5861,-2.5606,-2.5324,-2.5465,-2.5535,-2.5465,-2.5324,-2.5707,-2.5958,-2.6414,-2.685,-2.7498,-2.8024,-2.8433,-2.9008,-2.9329,-2.9837,-3.0458,-3.1557,-3.2659,-3.355,-3.4385,-3.523,-3.6023,-3.6454,0.8312,0.8927,1.0037,1.0585,1.0746,1.0912,1.1069,1.1025,1.0881,1.0818,1.0738,1.0663,1.0588,1.0588,1.0738,1.0588,1.0137,0.9992,0.9609,0.8998,0.8237,0.7629,0.6861,0.5938,0.5087,0.4387,0.3684,0.2981,0.212,0.1886,0.1258,0.0157,-0.0864,-0.1804,-0.2899,-0.3679,-0.4377,-0.5464,-0.6472,-0.7476,-0.8241,-0.8618,-0.8988,-0.9674,-1.0288,-1.0962,-1.1558,-1.2003,-1.2659,-1.3455,-1.4522,-1.5658,-1.6507,-1.707,-1.7638,-1.8182,-1.8607,-1.8674,-1.8875,-1.9131,-1.9131,-1.9187,-1.9177,-1.933,-1.9264,-1.9386,-1.9952,-2.0919,-2.1486,-2.2184,-2.3375,-2.4248,-2.5157,-2.524,-2.5721,-2.6151,-2.6564,-2.704,-2.7255,-2.7456,-2.7656,-2.7656,-2.7723,-2.751,-2.7417,-2.7022,-2.6832,-2.7294,-2.7031,-2.665,-2.6339,-2.6025,-2.5676,-2.5465,-2.5394,-2.5394,-2.5372,-2.597,-2.6623,-2.7148,-2.7893,-2.8715,-2.9282,-2.9627,-2.9776,-3.002,-3.0559,-3.1291,-3.2388,-3.3514,-3.4473,-3.5321,-3.6132,-3.6537,-3.6851]},{"header":{"parameterUnit":"m.s-1","parameterCategory":1,"la1":31.0,"la2":29.5877,"lo1":-88.7671,"lo2":-86.6584,"dy":0.0162,"dx":0.0185,"nx":115,"ny":88,"refTime":"2024-03-05T06:00:00:Z","depth":0,"parameterNumber":3,"parameterNumberName":"V-component_of_WINDS"},"data":[0.0,0.0,0.0,0.0,0.0,0.0,0.0,0.0,0.0,0.0,0.0,0.0,0.0,0.0,0.0,0.0,0.0,0.0,0.0,0.0,0.0,0.0,0.0,0.0,0.0,0.0,0.0,0.0,0.0,0.0,0.0,0.0,0.0,0.0,0.0,0.0,0.0,0.0,0.0,0.0,0.0,0.0,0.0,0.0,0.0,0.0,0.0,0.0,0.0,0.0,0.0,0.0,0.0,0.0,0.0,0.0,0.0,0.0,0.0,0.0,0.0,0.0,0.0,0.0,0.0,0.0,0.0,0.0,0.0,0.0,0.0,0.0,0.0,0.0,0.0,0.0,0.0,0.0,0.0,0.0,0.0,0.0,0.0,0.0,0.0,0.0,0.0,0.0,0.0,0.0,0.0,0.0,0.0,0.0,0.0,0.0,0.0,0.0,0.0,0.0,0.0,0.0,0.0,0.0,0.0,0.0,0.0,0.0,0.0,0.0,0.0,0.0,0.0,0.0,0.0,0.0,0.0,0.0,0.0,0.0,0.0,0.0,0.0,0.0,0.0,0.0,0.0,0.0,0.0,0.0,0.0,0.0,0.0,0.0,0.0,0.0,0.0,0.0,0.0,0.0,0.0,0.0,0.0,0.0,0.0,0.0,0.0,0.0,0.0,0.0,0.0,0.0,0.0,0.0,0.0,0.0,0.0,0.0,0.0,0.0,0.0,0.0,0.0,0.0,0.0,0.0,0.0,0.0,0.0,0.0,0.0,0.0,0.0,0.0,0.0,0.0,0.0,0.0,0.0,0.0,0.0,0.0,0.0,0.0,0.0,0.0,0.0,0.0,0.0,0.0,0.0,0.0,0.0,0.0,0.0,0.0,0.0,0.0,0.0,0.0,0.0,0.0,0.0,0.0,0.0,0.0,0.0,0.0,0.0,0.0,0.0,0.0,0.0,0.0,0.0,0.0,0.0,0.0,0.0,0.0,0.0,0.0,0.0,0.0,0.0,0.0,0.0,0.0,0.0,0.0,0.0,0.0,0.0,0.0,0.0,0.0,0.0,0.0,0.0,0.0,0.0,0.0,0.0,0.0,0.0,0.0,0.0,0.0,0.0,0.0,0.0,0.0,0.0,0.0,0.0,0.0,0.0,0.0,0.0,0.0,0.0,0.0,0.0,0.0,0.0,0.0,0.0,0.0,0.0,0.0,0.0,0.0,0.0,0.0,0.0,0.0,0.0,0.0,0.0,0.0,0.0,0.0,0.0,0.0,0.0,0.0,0.0,0.0,0.0,0.0,0.0,0.0,0.0,0.0,0.0,0.0,0.0,0.0,0.0,0.0,0.0,0.0,0.0,0.0,0.0,0.0,0.0,0.0,0.0,0.0,0.0,0.0,0.0,0.0,0.0,0.0,0.0,0.0,0.0,0.0,0.0,0.0,0.0,0.0,0.0,0.0,0.0,0.0,0.0,0.0,0.0,0.0,0.0,0.0,0.0,0.0,0.0,0.0,0.0,0.0,0.0,0.0,0.0,0.0,0.0,0.0,0.0,0.0,0.0,0.0,0.0,0.0,0.0,0.0,0.0,0.0,0.0,0.0,0.0,0.0,0.0,0.0,0.0,0.0,0.0,0.0,0.0,0.0,0.0,0.0,0.0,0.0,0.0,0.0,0.0,0.0,0.0,0.0,0.0,0.0,0.0,0.0,0.0,0.0,0.0,0.0,0.0,0.0,0.0,0.0,0.0,0.0,0.0,0.0,0.0,0.0,0.0,0.0,0.0,0.0,0.0,0.0,0.0,0.0,0.0,0.0,0.0,0.0,0.0,0.0,0.0,0.0,0.0,0.0,0.0,0.0,0.0,0.0,0.0,0.0,0.0,0.0,0.0,0.0,0.0,0.0,0.0,0.0,0.0,0.0,0.0,0.0,0.0,0.0,0.0,0.0,0.0,0.0,0.0,0.0,0.0,0.0,0.0,0.0,0.0,0.0,0.0,0.0,0.0,0.0,0.0,0.0,0.0,0.0,0.0,0.0,0.0,0.0,0.0,0.0,0.0,0.0,0.0,0.0,0.0,0.0,0.0,0.0,0.0,0.0,0.0,0.0,0.0,0.0,0.0,0.0,0.0,0.0,0.0,0.0,0.0,0.0,0.0,0.0,0.0,0.0,0.0,0.0,0.0,0.0,0.0,0.0,0.0,0.0,0.0,0.0,0.0,0.0,0.0,0.0,0.0,0.0,0.0,0.0,0.0,0.0,0.0,0.0,0.0,0.0,0.0,0.0,0.0,0.0,0.0,0.0,0.0,0.0,0.0,0.0,0.0,0.0,0.0,0.0,0.0,0.0,0.0,0.0,0.0,0.0,0.0,0.0,0.0,0.0,0.0,0.0,0.0,0.0,0.0,0.0,0.0,0.0,0.0,0.0,0.0,0.0,0.0,0.0,0.0,0.0,0.0,0.0,0.0,0.0,0.0,0.0,0.0,0.0,0.0,0.0,0.0,0.0,0.0,0.0,0.0,0.0,0.0,0.0,0.0,0.0,0.0,0.0,0.0,0.0,0.0,0.0,0.0,0.0,0.0,0.0,0.0,0.0,0.0,0.0,0.0,0.0,0.0,0.0,0.0,0.0,0.0,0.0,0.0,0.0,0.0,0.0,0.0,0.0,0.0,0.0,0.0,0.0,0.0,0.0,0.0,0.0,0.0,0.0,0.0,0.0,0.0,0.0,0.0,0.0,0.0,0.0,0.0,0.0,0.0,0.0,0.0,0.0,0.0,0.0,0.0,0.0,0.0,0.0,0.0,0.0,0.0,0.0,0.0,0.0,0.0,0.0,0.0,0.0,0.0,0.0,0.0,0.0,0.0,0.0,0.0,0.0,0.0,0.0,0.0,0.0,0.0,0.0,0.0,0.0,0.0,0.0,0.0,0.0,0.0,0.0,0.0,0.0,0.0,0.0,0.0,0.0,0.0,0.0,0.0,0.0,0.0,0.0,0.0,0.0,0.0,0.0,0.0,0.0,0.0,0.0,0.0,0.0,0.0,0.0,0.0,0.0,0.0,0.0,0.0,0.0,0.0,0.0,0.0,0.0,0.0,0.0,0.0,0.0,0.0,0.0,0.0,0.0,0.0,0.0,0.0,0.0,0.0,0.0,0.0,0.0,0.0,0.0,0.0,0.0,0.0,0.0,0.0,0.0,0.0,0.0,0.0,0.0,0.0,0.0,0.0,0.0,0.0,0.0,0.0,0.0,0.0,0.0,0.0,0.0,0.0,0.0,0.0,0.0,0.0,0.0,0.0,0.0,0.0,0.0,0.0,0.0,0.0,0.0,0.0,0.0,0.0,0.0,0.0,0.0,0.0,0.0,0.0,0.0,0.0,0.0,0.0,0.0,0.0,0.0,0.0,0.0,0.0,0.0,0.0,0.0,0.0,0.0,0.0,0.0,0.0,0.0,0.0,0.0,0.0,0.0,0.0,0.0,0.0,0.0,0.0,0.0,0.0,0.0,0.0,0.0,0.0,0.0,0.0,0.0,0.0,0.0,0.0,0.0,0.0,0.0,0.0,0.0,0.0,0.0,0.0,0.0,0.0,0.0,0.0,0.0,0.0,0.0,0.0,0.0,0.0,0.0,0.0,0.0,0.0,0.0,0.0,0.0,0.0,0.0,0.0,0.0,0.0,0.0,0.0,0.0,0.0,0.0,0.0,0.0,0.0,0.0,0.0,0.0,0.0,0.0,0.0,0.0,0.0,0.0,0.0,0.0,0.0,0.0,0.0,0.0,0.0,0.0,0.0,0.0,0.0,0.0,0.0,0.0,0.0,0.0,0.0,0.0,0.0,0.0,0.0,0.0,0.0,0.0,0.0,0.0,0.0,0.0,0.0,0.0,0.0,0.0,0.0,0.0,0.0,0.0,0.0,0.0,0.0,0.0,0.0,0.0,0.0,0.0,0.0,0.0,0.0,0.0,0.0,0.0,0.0,0.0,0.0,0.0,0.0,0.0,0.0,0.0,0.0,0.0,0.0,0.0,0.0,0.0,0.0,0.0,0.0,0.0,0.0,0.0,0.0,0.0,0.0,0.0,0.0,0.0,0.0,0.0,0.0,0.0,0.0,0.0,0.0,0.0,0.0,0.0,0.0,0.0,0.0,0.0,0.0,0.0,0.0,0.0,0.0,0.0,0.0,0.0,0.0,0.0,0.0,0.0,0.0,0.0,0.0,0.0,0.0,0.0,0.0,0.0,0.0,0.0,0.0,0.0,0.0,0.0,0.0,0.0,0.0,0.0,0.0,0.0,-1.0193,0.0,0.0,0.0,0.0,0.0,0.0,0.0,0.0,0.0,0.0,0.0,0.0,0.0,0.0,0.0,0.0,0.0,0.0,0.0,0.0,0.0,0.0,0.0,0.0,0.0,0.0,0.0,0.0,0.0,0.0,0.0,0.0,0.0,0.0,0.0,0.0,0.0,0.0,0.0,0.0,0.0,0.0,0.0,0.0,0.0,0.0,0.0,0.0,0.0,0.0,0.0,0.0,0.0,0.0,0.0,0.0,0.0,0.0,0.0,0.0,0.0,0.0,0.0,0.0,0.0,0.0,0.0,0.0,0.0,0.0,0.0,0.0,0.0,0.0,0.0,0.0,0.0,0.0,0.0,0.0,0.0,0.0,0.0,0.0,0.0,0.0,0.0,0.0,0.0,0.0,0.0,0.0,0.0,0.0,0.0,0.0,0.0,0.0,0.0,0.0,0.0,0.0,0.0,0.0,0.0,0.0,0.0,0.0,0.0,0.0,-1.003,-1.0096,-1.0108,-1.0133,-1.0196,0.0,0.0,0.0,0.0,0.0,0.0,0.0,0.0,0.0,0.0,0.0,0.0,0.0,0.0,0.0,0.0,0.0,0.0,0.0,0.0,0.0,0.0,0.0,0.0,0.0,0.0,0.0,0.0,0.0,0.0,0.0,0.0,0.0,0.0,0.0,0.0,0.0,0.0,0.0,0.0,0.0,0.0,0.0,0.0,0.0,0.0,0.0,0.0,0.0,0.0,0.0,0.0,0.0,0.0,0.0,0.0,0.0,0.0,0.0,0.0,0.0,0.0,0.0,0.0,0.0,0.0,0.0,0.0,0.0,0.0,0.0,0.0,0.0,0.0,0.0,0.0,0.0,0.0,0.0,0.0,0.0,0.0,0.0,0.0,0.0,0.0,0.0,0.0,0.0,0.0,0.0,0.0,0.0,0.0,0.0,0.0,0.0,0.0,0.0,0.0,0.0,0.0,0.0,0.0,0.0,0.0,0.0,0.0,0.0,0.0,0.0,0.0,-1.0112,-1.0133,-1.0199,0.0,0.0,0.0,0.0,0.0,0.0,0.0,0.0,0.0,0.0,0.0,0.0,0.0,0.0,0.0,0.0,0.0,0.0,0.0,0.0,0.0,0.0,0.0,0.0,0.0,0.0,0.0,0.0,0.0,0.0,0.0,0.0,0.0,0.0,0.0,0.0,0.0,0.0,0.0,0.0,0.0,0.0,0.0,0.0,0.0,0.0,0.0,0.0,0.0,0.0,0.0,0.0,0.0,0.0,0.0,0.0,0.0,0.0,0.0,0.0,0.0,0.0,0.0,0.0,0.0,0.0,0.0,0.0,0.0,0.0,0.0,0.0,0.0,0.0,0.0,0.0,0.0,0.0,0.0,0.0,0.0,0.0,0.0,0.0,0.0,0.0,0.0,0.0,0.0,0.0,0.0,0.0,0.0,0.0,0.0,0.0,0.0,0.0,0.0,0.0,0.0,0.0,0.0,0.0,0.0,0.0,0.0,0.0,0.0,0.0,-1.0005,-1.0016,-1.0076,0.0,-1.0186,0.0,0.0,0.0,0.0,0.0,0.0,0.0,0.0,0.0,0.0,0.0,0.0,0.0,0.0,0.0,0.0,0.0,0.0,0.0,0.0,0.0,0.0,0.0,0.0,0.0,0.0,0.0,0.0,0.0,0.0,0.0,0.0,0.0,0.0,0.0,0.0,0.0,0.0,0.0,0.0,0.0,0.0,0.0,0.0,0.0,0.0,0.0,0.0,0.0,0.0,0.0,0.0,0.0,0.0,0.0,0.0,0.0,0.0,0.0,0.0,0.0,0.0,0.0,0.0,0.0,0.0,0.0,0.0,0.0,0.0,0.0,0.0,0.0,0.0,0.0,0.0,0.0,0.0,0.0,0.0,0.0,0.0,0.0,0.0,0.0,0.0,0.0,0.0,0.0,0.0,0.0,0.0,0.0,0.0,0.0,0.0,0.0,0.0,0.0,0.0,0.0,0.0,0.0,0.0,0.0,0.0,0.0,0.0,0.0,0.0,-1.0014,-1.0001,-1.0112,-1.0166,0.0,0.0,0.0,0.0,0.0,0.0,0.0,0.0,0.0,0.0,0.0,0.0,0.0,0.0,0.0,0.0,0.0,0.0,0.0,0.0,0.0,0.0,0.0,0.0,0.0,0.0,0.0,0.0,0.0,0.0,0.0,0.0,0.0,0.0,0.0,0.0,0.0,0.0,0.0,0.0,0.0,0.0,0.0,0.0,0.0,0.0,0.0,0.0,0.0,0.0,0.0,0.0,0.0,0.0,0.0,0.0,0.0,0.0,0.0,0.0,0.0,0.0,0.0,0.0,0.0,0.0,0.0,0.0,0.0,0.0,0.0,0.0,0.0,0.0,0.0,0.0,0.0,0.0,0.0,0.0,0.0,0.0,0.0,0.0,0.0,0.0,0.0,0.0,0.0,0.0,0.0,0.0,0.0,0.0,0.0,0.0,0.0,0.0,0.0,0.0,0.0,0.0,0.0,0.0,0.0,0.0,0.0,0.0,0.0,0.0,-1.0061,-0.9974,-1.0025,-1.0116,-1.0189,-1.0199,0.0,0.0,0.0,0.0,0.0,0.0,0.0,0.0,0.0,0.0,0.0,0.0,0.0,0.0,0.0,0.0,0.0,0.0,0.0,0.0,0.0,0.0,0.0,0.0,0.0,0.0,0.0,0.0,0.0,0.0,0.0,0.0,0.0,0.0,0.0,0.0,0.0,0.0,0.0,0.0,0.0,0.0,0.0,0.0,0.0,0.0,0.0,0.0,0.0,0.0,0.0,0.0,0.0,0.0,0.0,0.0,0.0,0.0,0.0,0.0,0.0,0.0,0.0,0.0,0.0,0.0,0.0,0.0,0.0,0.0,0.0,0.0,0.0,0.0,0.0,0.0,0.0,0.0,0.0,0.0,0.0,0.0,0.0,0.0,0.0,0.0,0.0,0.0,0.0,0.0,0.0,0.0,0.0,0.0,0.0,0.0,0.0,0.0,0.0,0.0,0.0,0.0,0.0,0.0,0.0,0.0,0.0,0.0,-1.1014,-1.0333,-0.9963,-1.0111,-1.0104,-1.0137,0.0,0.0,0.0,0.0,0.0,0.0,0.0,0.0,0.0,0.0,0.0,0.0,0.0,0.0,0.0,0.0,0.0,0.0,0.0,0.0,0.0,0.0,0.0,0.0,0.0,0.0,0.0,0.0,0.0,0.0,0.0,0.0,0.0,0.0,0.0,0.0,0.0,0.0,0.0,0.0,0.0,0.0,0.0,0.0,0.0,0.0,0.0,0.0,0.0,0.0,0.0,0.0,0.0,0.0,0.0,0.0,0.0,0.0,0.0,0.0,0.0,0.0,0.0,0.0,0.0,0.0,0.0,0.0,0.0,0.0,0.0,0.0,0.0,0.0,0.0,0.0,0.0,0.0,0.0,0.0,0.0,0.0,0.0,0.0,0.0,0.0,0.0,0.0,0.0,0.0,0.0,0.0,0.0,0.0,0.0,0.0,0.0,0.0,0.0,0.0,0.0,0.0,0.0,0.0,0.0,0.0,0.0,0.0,0.0,-1.1818,-1.1595,-1.1289,-1.0891,-1.088,-1.063,0.0,0.0,0.0,0.0,0.0,0.0,0.0,0.0,0.0,0.0,0.0,0.0,0.0,0.0,0.0,0.0,0.0,0.0,0.0,0.0,0.0,0.0,0.0,0.0,0.0,0.0,0.0,0.0,0.0,0.0,0.0,0.0,0.0,0.0,0.0,0.0,0.0,0.0,0.0,0.0,0.0,0.0,0.0,0.0,0.0,0.0,0.0,0.0,0.0,0.0,0.0,0.0,0.0,0.0,0.0,0.0,0.0,0.0,0.0,0.0,0.0,0.0,0.0,0.0,0.0,0.0,0.0,0.0,0.0,0.0,0.0,0.0,0.0,0.0,0.0,0.0,0.0,0.0,0.0,0.0,0.0,0.0,0.0,0.0,0.0,0.0,0.0,0.0,0.0,0.0,0.0,0.0,0.0,0.0,0.0,0.0,0.0,0.0,0.0,0.0,0.0,0.0,0.0,0.0,0.0,0.0,0.0,0.0,0.0,-1.225,0.0,-1.2175,-1.1705,-1.1714,-1.133,0.0,0.0,0.0,0.0,0.0,0.0,0.0,0.0,0.0,0.0,0.0,0.0,0.0,0.0,0.0,0.0,0.0,0.0,0.0,0.0,0.0,0.0,0.0,0.0,0.0,0.0,0.0,0.0,0.0,0.0,0.0,0.0,0.0,0.0,0.0,0.0,0.0,0.0,0.0,0.0,0.0,0.0,0.0,0.0,0.0,0.0,0.0,0.0,0.0,0.0,0.0,0.0,0.0,0.0,0.0,0.0,0.0,0.0,0.0,0.0,0.0,0.0,0.0,0.0,0.0,0.0,0.0,0.0,0.0,0.0,0.0,0.0,0.0,0.0,0.0,0.0,0.0,0.0,0.0,0.0,0.0,0.0,0.0,0.0,0.0,0.0,0.0,0.0,0.0,0.0,0.0,0.0,0.0,0.0,0.0,0.0,0.0,0.0,0.0,0.0,0.0,0.0,0.0,0.0,0.0,0.0,0.0,0.0,-1.3019,-1.2385,-1.2429,-1.2519,-1.2506,-1.2567,-1.2189,0.0,0.0,0.0,0.0,0.0,0.0,0.0,0.0,0.0,0.0,0.0,0.0,0.0,0.0,0.0,0.0,0.0,0.0,0.0,0.0,0.0,0.0,0.0,0.0,0.0,0.0,0.0,0.0,0.0,0.0,0.0,0.0,0.0,0.0,0.0,0.0,0.0,0.0,0.0,0.0,0.0,0.0,0.0,0.0,0.0,0.0,0.0,0.0,0.0,0.0,0.0,0.0,0.0,0.0,0.0,0.0,0.0,0.0,0.0,0.0,0.0,0.0,0.0,0.0,0.0,0.0,0.0,0.0,0.0,0.0,0.0,0.0,0.0,0.0,0.0,0.0,0.0,0.0,0.0,0.0,0.0,0.0,0.0,0.0,0.0,0.0,0.0,0.0,0.0,0.0,0.0,0.0,0.0,0.0,0.0,0.0,0.0,0.0,0.0,0.0,0.0,0.0,0.0,0.0,0.0,0.0,0.0,0.0,0.0,-1.396,-1.3971,-1.3762,-1.33,-1.337,-1.3043,0.0,0.0,0.0,0.0,0.0,0.0,0.0,0.0,0.0,0.0,0.0,0.0,0.0,0.0,0.0,0.0,0.0,0.0,0.0,0.0,0.0,0.0,0.0,0.0,0.0,0.0,0.0,0.0,0.0,0.0,0.0,0.0,0.0,0.0,0.0,0.0,0.0,0.0,0.0,0.0,0.0,0.0,0.0,0.0,0.0,0.0,0.0,0.0,0.0,0.0,0.0,0.0,0.0,0.0,0.0,0.0,0.0,0.0,0.0,0.0,0.0,0.0,0.0,0.0,0.0,0.0,0.0,0.0,0.0,0.0,0.0,0.0,0.0,0.0,0.0,0.0,0.0,0.0,0.0,0.0,0.0,0.0,0.0,0.0,0.0,0.0,0.0,0.0,0.0,0.0,0.0,0.0,0.0,0.0,0.0,0.0,0.0,0.0,0.0,0.0,0.0,0.0,0.0,0.0,0.0,0.0,0.0,0.0,0.0,-1.4618,-1.4677,-1.4504,-1.404,-1.4168,-1.3873,-1.3093,0.0,0.0,0.0,0.0,0.0,0.0,0.0,0.0,0.0,0.0,0.0,0.0,0.0,0.0,0.0,0.0,0.0,0.0,0.0,0.0,0.0,0.0,0.0,0.0,0.0,0.0,0.0,0.0,0.0,0.0,0.0,0.0,0.0,0.0,0.0,0.0,0.0,0.0,0.0,0.0,0.0,0.0,0.0,0.0,0.0,0.0,0.0,0.0,0.0,0.0,0.0,0.0,0.0,0.0,0.0,0.0,0.0,0.0,0.0,0.0,0.0,0.0,0.0,0.0,0.0,0.0,0.0,0.0,0.0,0.0,0.0,0.0,0.0,0.0,0.0,0.0,0.0,0.0,0.0,0.0,0.0,0.0,0.0,0.0,0.0,0.0,0.0,0.0,0.0,0.0,0.0,0.0,0.0,0.0,0.0,0.0,0.0,0.0,0.0,0.0,0.0,0.0,0.0,0.0,0.0,0.0,0.0,0.0,-1.4488,-1.4587,-1.4662,-1.4785,-1.4919,-1.465,0.0,0.0,0.0,0.0,0.0,0.0,0.0,0.0,0.0,0.0,0.0,0.0,0.0,0.0,0.0,0.0,0.0,0.0,0.0,0.0,0.0,0.0,0.0,0.0,0.0,0.0,0.0,0.0,0.0,0.0,0.0,0.0,0.0,0.0,0.0,0.0,0.0,0.0,0.0,0.0,0.0,0.0,0.0,0.0,0.0,0.0,0.0,0.0,0.0,0.0,0.0,0.0,0.0,0.0,0.0,0.0,0.0,0.0,0.0,0.0,0.0,0.0,0.0,0.0,0.0,0.0,0.0,0.0,0.0,0.0,0.0,0.0,0.0,0.0,0.0,0.0,0.0,0.0,0.0,0.0,0.0,0.0,0.0,0.0,0.0,0.0,0.0,0.0,0.0,0.0,0.0,0.0,0.0,0.0,0.0,0.0,0.0,0.0,0.0,0.0,0.0,0.0,0.0,0.0,0.0,0.0,0.0,0.0,0.0,-1.4391,-1.3919,-1.4033,-1.4766,-1.4921,-1.4935,0.0,0.0,0.0,0.0,0.0,0.0,0.0,0.0,0.0,0.0,0.0,0.0,0.0,0.0,0.0,0.0,0.0,0.0,0.0,0.0,0.0,0.0,0.0,0.0,0.0,0.0,0.0,0.0,0.0,0.0,0.0,0.0,0.0,0.0,0.0,0.0,0.0,0.0,0.0,0.0,0.0,0.0,0.0,0.0,0.0,0.0,0.0,0.0,0.0,0.0,0.0,0.0,0.0,0.0,0.0,0.0,0.0,0.0,0.0,0.0,0.0,0.0,0.0,0.0,0.0,0.0,0.0,0.0,0.0,0.0,0.0,0.0,0.0,0.0,0.0,0.0,0.0,0.0,0.0,0.0,0.0,0.0,0.0,0.0,0.0,0.0,0.0,0.0,0.0,0.0,0.0,0.0,0.0,0.0,0.0,0.0,0.0,0.0,0.0,0.0,0.0,0.0,0.0,0.0,0.0,0.0,0.0,0.0,-1.3889,-1.4387,-1.397,-1.4051,-1.4658,-1.4822,-1.4955,0.0,0.0,0.0,0.0,0.0,0.0,0.0,0.0,0.0,0.0,0.0,0.0,0.0,0.0,0.0,0.0,0.0,0.0,0.0,0.0,0.0,0.0,0.0,0.0,0.0,0.0,0.0,0.0,0.0,0.0,0.0,0.0,0.0,0.0,0.0,0.0,0.0,0.0,0.0,0.0,0.0,0.0,0.0,0.0,0.0,0.0,0.0,0.0,0.0,0.0,0.0,0.0,0.0,0.0,0.0,0.0,0.0,0.0,0.0,0.0,0.0,0.0,0.0,0.0,0.0,0.0,0.0,0.0,0.0,0.0,0.0,0.0,0.0,0.0,0.0,0.0,0.0,0.0,0.0,0.0,0.0,0.0,0.0,0.0,0.0,0.0,0.0,0.0,0.0,0.0,0.0,0.0,0.0,0.0,0.0,0.0,0.0,0.0,0.0,0.0,0.0,0.0,0.0,0.0,0.0,0.0,0.0,0.0,-1.4264,-1.4411,-1.4314,-1.4336,-1.4501,-1.4688,-1.4859,0.0,0.0,0.0,0.0,0.0,0.0,0.0,0.0,0.0,0.0,0.0,0.0,0.0,0.0,0.0,0.0,0.0,0.0,0.0,0.0,0.0,0.0,0.0,0.0,0.0,0.0,0.0,0.0,0.0,0.0,0.0,0.0,0.0,0.0,0.0,0.0,0.0,0.0,0.0,0.0,0.0,0.0,0.0,0.0,0.0,0.0,0.0,0.0,0.0,0.0,0.0,0.0,0.0,0.0,0.0,0.0,0.0,0.0,0.0,0.0,0.0,0.0,0.0,0.0,0.0,0.0,0.0,0.0,0.0,0.0,0.0,0.0,0.0,0.0,0.0,0.0,0.0,0.0,0.0,0.0,0.0,0.0,0.0,0.0,0.0,0.0,0.0,0.0,0.0,0.0,0.0,0.0,0.0,0.0,0.0,0.0,0.0,0.0,0.0,0.0,0.0,0.0,0.0,0.0,0.0,0.0,0.0,0.0,-1.3756,-1.4368,-1.3732,-1.3737,-1.4492,-1.4677,-1.4841,0.0,0.0,0.0,0.0,0.0,0.0,0.0,0.0,0.0,0.0,0.0,0.0,0.0,0.0,0.0,0.0,0.0,0.0,0.0,0.0,0.0,0.0,0.0,0.0,0.0,0.0,0.0,0.0,0.0,0.0,0.0,0.0,0.0,0.0,0.0,0.0,0.0,0.0,0.0,0.0,0.0,0.0,0.0,0.0,0.0,0.0,0.0,0.0,-1.9966,0.0,0.0,0.0,0.0,0.0,0.0,0.0,0.0,0.0,0.0,0.0,0.0,0.0,0.0,0.0,0.0,0.0,0.0,0.0,0.0,0.0,0.0,0.0,0.0,0.0,0.0,0.0,0.0,0.0,0.0,0.0,0.0,0.0,0.0,0.0,0.0,0.0,0.0,0.0,0.0,0.0,0.0,0.0,0.0,0.0,0.0,0.0,0.0,0.0,0.0,0.0,0.0,0.0,0.0,0.0,0.0,0.0,0.0,0.0,-1.4002,-1.4362,-1.3944,-1.3932,-1.4387,-1.46,-1.4755,0.0,0.0,0.0,0.0,0.0,0.0,0.0,0.0,0.0,0.0,0.0,0.0,0.0,0.0,0.0,0.0,0.0,0.0,0.0,0.0,0.0,0.0,0.0,0.0,0.0,0.0,0.0,0.0,0.0,0.0,0.0,0.0,0.0,0.0,0.0,0.0,0.0,0.0,0.0,0.0,0.0,0.0,0.0,0.0,0.0,0.0,0.0,0.0,0.0,0.0,0.0,0.0,0.0,0.0,0.0,0.0,0.0,0.0,0.0,0.0,0.0,0.0,0.0,0.0,0.0,0.0,0.0,0.0,0.0,0.0,0.0,0.0,0.0,0.0,0.0,0.0,0.0,0.0,0.0,0.0,0.0,0.0,0.0,0.0,0.0,0.0,0.0,0.0,0.0,0.0,0.0,0.0,0.0,0.0,0.0,0.0,0.0,0.0,0.0,0.0,0.0,0.0,0.0,0.0,0.0,0.0,0.0,-1.4489,-1.4444,-1.4411,-1.4387,-1.4381,-1.4331,-1.4511,-1.4645,-1.4794,0.0,0.0,0.0,0.0,0.0,0.0,0.0,0.0,0.0,0.0,0.0,0.0,0.0,0.0,0.0,0.0,0.0,0.0,0.0,0.0,0.0,0.0,0.0,0.0,0.0,0.0,0.0,0.0,0.0,0.0,0.0,0.0,0.0,0.0,0.0,0.0,0.0,0.0,-1.6783,-1.8246,0.0,0.0,0.0,0.0,0.0,0.0,0.0,0.0,-2.0082,0.0,0.0,0.0,0.0,0.0,0.0,0.0,0.0,0.0,0.0,0.0,0.0,0.0,0.0,0.0,0.0,0.0,0.0,0.0,0.0,0.0,0.0,0.0,0.0,0.0,0.0,0.0,0.0,0.0,0.0,0.0,0.0,0.0,0.0,0.0,0.0,0.0,0.0,0.0,0.0,0.0,0.0,0.0,0.0,0.0,0.0,0.0,0.0,0.0,0.0,0.0,0.0,0.0,0.0,0.0,0.0,-1.46,-1.4474,-1.4398,-1.4404,-1.4344,-1.4362,-1.4464,-1.4549,-1.4658,-1.4794,0.0,0.0,0.0,0.0,0.0,0.0,0.0,0.0,0.0,0.0,0.0,0.0,0.0,0.0,0.0,0.0,0.0,0.0,0.0,0.0,0.0,0.0,0.0,0.0,0.0,0.0,0.0,0.0,0.0,0.0,0.0,0.0,0.0,0.0,0.0,0.0,0.0,0.0,0.0,-1.9169,-2.0259,0.0,0.0,0.0,0.0,0.0,0.0,0.0,0.0,-2.0183,0.0,0.0,0.0,0.0,0.0,0.0,0.0,0.0,0.0,0.0,0.0,0.0,0.0,0.0,0.0,0.0,0.0,0.0,0.0,0.0,0.0,0.0,0.0,0.0,0.0,0.0,0.0,0.0,0.0,0.0,0.0,0.0,0.0,0.0,0.0,0.0,0.0,0.0,0.0,0.0,0.0,0.0,0.0,0.0,0.0,0.0,0.0,0.0,0.0,0.0,0.0,0.0,0.0,0.0,0.0,-1.4645,-1.4581,-1.4537,-1.4515,-1.4469,-1.4469,-1.4504,-1.4585,-1.4708,0.0,0.0,0.0,0.0,0.0,0.0,0.0,0.0,0.0,0.0,0.0,0.0,0.0,0.0,0.0,0.0,0.0,0.0,0.0,0.0,0.0,0.0,0.0,0.0,0.0,0.0,0.0,0.0,0.0,0.0,0.0,0.0,0.0,0.0,0.0,0.0,0.0,0.0,0.0,0.0,-2.0064,-2.0994,-2.0508,0.0,0.0,0.0,0.0,0.0,0.0,-2.1356,-2.14,0.0,0.0,0.0,0.0,0.0,0.0,0.0,0.0,0.0,0.0,0.0,0.0,0.0,0.0,0.0,0.0,0.0,0.0,0.0,0.0,0.0,0.0,0.0,0.0,0.0,0.0,0.0,0.0,0.0,0.0,0.0,0.0,0.0,0.0,0.0,0.0,0.0,0.0,0.0,0.0,0.0,0.0,0.0,0.0,0.0,0.0,0.0,0.0,0.0,0.0,0.0,0.0,0.0,0.0,0.0,-1.4717,-1.4705,-1.4683,-1.4629,-1.4611,-1.4592,-1.4563,-1.4668,-1.4794,0.0,0.0,0.0,0.0,0.0,0.0,0.0,0.0,0.0,0.0,0.0,0.0,0.0,0.0,0.0,0.0,0.0,0.0,0.0,0.0,0.0,0.0,0.0,0.0,0.0,0.0,0.0,0.0,0.0,0.0,0.0,0.0,0.0,0.0,0.0,0.0,0.0,0.0,0.0,0.0,0.0,-2.1285,-2.0627,-2.1182,0.0,0.0,0.0,0.0,-2.1991,-2.2293,0.0,0.0,0.0,0.0,0.0,0.0,0.0,0.0,0.0,0.0,0.0,0.0,0.0,0.0,0.0,0.0,0.0,0.0,0.0,0.0,0.0,0.0,0.0,0.0,0.0,0.0,0.0,0.0,0.0,0.0,0.0,0.0,0.0,0.0,0.0,0.0,0.0,0.0,0.0,0.0,0.0,0.0,0.0,0.0,0.0,0.0,0.0,0.0,0.0,0.0,0.0,0.0,0.0,0.0,0.0,0.0,-1.4793,-1.4727,-1.4716,-1.4683,-1.4683,-1.4703,-1.4754,-1.4832,-1.4894,0.0,0.0,0.0,0.0,0.0,0.0,0.0,0.0,0.0,0.0,0.0,0.0,0.0,0.0,0.0,0.0,0.0,0.0,0.0,0.0,0.0,0.0,0.0,0.0,0.0,0.0,0.0,0.0,0.0,0.0,0.0,0.0,0.0,0.0,0.0,0.0,0.0,0.0,0.0,0.0,0.0,-2.0604,-2.05,-2.1197,-2.1651,0.0,0.0,-2.2973,-2.3611,-2.314,0.0,0.0,0.0,0.0,0.0,0.0,0.0,0.0,0.0,0.0,0.0,0.0,0.0,0.0,0.0,0.0,0.0,0.0,0.0,0.0,0.0,0.0,0.0,0.0,0.0,0.0,0.0,0.0,0.0,0.0,0.0,0.0,0.0,0.0,0.0,0.0,0.0,0.0,0.0,0.0,0.0,0.0,0.0,0.0,0.0,0.0,0.0,0.0,0.0,0.0,0.0,0.0,0.0,0.0,0.0,-1.4931,-1.4869,-1.4785,-1.4775,-1.4764,-1.4754,-1.4794,-1.4859,-1.4913,-1.4976,0.0,0.0,0.0,0.0,0.0,0.0,0.0,0.0,0.0,0.0,0.0,0.0,0.0,0.0,0.0,0.0,0.0,0.0,0.0,0.0,0.0,0.0,0.0,0.0,0.0,0.0,0.0,0.0,0.0,0.0,0.0,0.0,0.0,0.0,0.0,0.0,0.0,0.0,0.0,0.0,0.0,0.0,-2.1293,-2.2348,0.0,0.0,0.0,-2.3676,-2.3957,0.0,0.0,0.0,0.0,0.0,0.0,0.0,0.0,0.0,0.0,0.0,0.0,0.0,0.0,0.0,0.0,0.0,0.0,0.0,0.0,0.0,0.0,0.0,0.0,0.0,0.0,0.0,0.0,0.0,0.0,0.0,0.0,0.0,0.0,0.0,0.0,0.0,0.0,0.0,0.0,0.0,0.0,0.0,0.0,0.0,0.0,0.0,0.0,0.0,0.0,0.0,0.0,0.0,0.0,0.0,0.0,0.0,-1.4886,-1.4877,-1.4832,-1.4832,-1.4823,-1.4868,-1.4919,-1.4987,0.0,0.0,0.0,0.0,0.0,0.0,0.0,0.0,0.0,0.0,0.0,0.0,0.0,0.0,0.0,0.0,0.0,0.0,0.0,0.0,0.0,0.0,0.0,0.0,0.0,0.0,0.0,-1.5419,0.0,0.0,0.0,0.0,0.0,0.0,0.0,0.0,0.0,0.0,0.0,0.0,0.0,0.0,-2.2625,-2.2158,-2.3348,-2.4024,0.0,0.0,-2.4399,-2.4303,-2.4807,-2.5149,0.0,0.0,0.0,0.0,0.0,0.0,0.0,0.0,0.0,0.0,0.0,0.0,0.0,0.0,0.0,0.0,0.0,0.0,0.0,0.0,0.0,0.0,0.0,0.0,0.0,0.0,0.0,0.0,0.0,0.0,0.0,0.0,0.0,0.0,0.0,0.0,0.0,0.0,0.0,0.0,0.0,0.0,0.0,0.0,0.0,0.0,0.0,0.0,0.0,0.0,0.0,0.0,0.0,0.0,-1.5023,-1.4911,-1.4952,-1.4955,-1.4896,-1.4904,-1.4919,-1.4979,-1.5045,-1.512,0.0,0.0,0.0,0.0,0.0,0.0,0.0,0.0,0.0,0.0,0.0,0.0,0.0,0.0,0.0,0.0,0.0,0.0,0.0,0.0,0.0,0.0,0.0,0.0,0.0,0.0,0.0,0.0,0.0,0.0,0.0,0.0,0.0,0.0,0.0,0.0,0.0,0.0,0.0,0.0,0.0,-2.2133,-2.2823,-2.365,-2.418,0.0,0.0,-2.5255,-2.5146,-2.5173,-2.5145,-2.4942,0.0,0.0,0.0,0.0,0.0,0.0,0.0,0.0,0.0,0.0,0.0,0.0,0.0,0.0,0.0,0.0,0.0,0.0,0.0,0.0,0.0,0.0,0.0,0.0,0.0,0.0,0.0,0.0,0.0,0.0,0.0,0.0,0.0,0.0,0.0,0.0,0.0,0.0,0.0,0.0,0.0,0.0,0.0,0.0,0.0,0.0,0.0,0.0,0.0,0.0,0.0,0.0,0.0,-1.5064,-1.4957,-1.4984,-1.4984,-1.4984,-1.5494,-1.5808,-1.5912,-1.6432,-1.6471,0.0,0.0,0.0,0.0,0.0,0.0,0.0,0.0,0.0,0.0,0.0,0.0,0.0,0.0,0.0,0.0,0.0,0.0,0.0,0.0,0.0,0.0,0.0,0.0,0.0,0.0,0.0,0.0,-1.5413,-1.5415,-1.5422,0.0,0.0,0.0,0.0,0.0,0.0,0.0,0.0,0.0,0.0,-2.345,-2.3767,-2.4483,0.0,0.0,-2.5167,-2.5322,-2.5201,-2.5176,-2.5094,-2.4921,-2.4734,0.0,0.0,0.0,0.0,0.0,0.0,0.0,0.0,0.0,0.0,0.0,0.0,0.0,0.0,0.0,0.0,0.0,0.0,0.0,0.0,0.0,0.0,0.0,0.0,0.0,0.0,0.0,0.0,0.0,0.0,0.0,0.0,0.0,0.0,0.0,0.0,0.0,0.0,0.0,0.0,0.0,0.0,0.0,0.0,0.0,0.0,0.0,0.0,0.0,0.0,0.0,0.0,-1.5322,-1.5023,-1.551,-1.5659,-1.5429,-1.6265,-1.6769,-1.6875,-1.744,-1.7483,0.0,0.0,0.0,0.0,0.0,0.0,0.0,0.0,0.0,0.0,0.0,0.0,0.0,0.0,0.0,0.0,0.0,0.0,0.0,0.0,0.0,0.0,0.0,0.0,0.0,0.0,0.0,0.0,-1.5632,-1.5794,-1.5781,0.0,0.0,0.0,0.0,0.0,0.0,0.0,0.0,0.0,0.0,-2.4354,-2.4631,-2.5132,-2.544,-2.5407,-2.5534,-2.5614,-2.5528,-2.5685,-2.5734,-2.5593,0.0,0.0,0.0,0.0,0.0,0.0,0.0,0.0,0.0,0.0,0.0,0.0,0.0,0.0,0.0,0.0,0.0,0.0,0.0,0.0,0.0,0.0,0.0,0.0,0.0,0.0,0.0,0.0,0.0,0.0,-1.2508,0.0,0.0,0.0,0.0,0.0,0.0,0.0,0.0,0.0,0.0,0.0,0.0,0.0,0.0,0.0,0.0,0.0,0.0,0.0,0.0,0.0,0.0,-1.5962,-1.5155,-1.6697,-1.7125,-1.6426,-1.7209,-1.7668,-1.7697,-1.776,-1.7802,-1.7774,0.0,0.0,0.0,0.0,0.0,0.0,0.0,0.0,0.0,0.0,0.0,0.0,0.0,0.0,0.0,0.0,0.0,0.0,0.0,0.0,0.0,0.0,0.0,0.0,0.0,0.0,-1.5441,-1.6171,-1.6659,0.0,0.0,0.0,0.0,0.0,0.0,0.0,0.0,0.0,0.0,-2.4238,-2.4516,-2.5328,-2.5432,-2.5437,-2.5408,-2.5959,-2.6339,-2.6282,-2.6873,-2.727,0.0,0.0,0.0,0.0,0.0,0.0,0.0,0.0,0.0,0.0,0.0,0.0,0.0,0.0,0.0,0.0,0.0,0.0,0.0,0.0,0.0,0.0,0.0,0.0,0.0,0.0,0.0,-1.3169,-1.3455,0.0,0.0,0.0,0.0,0.0,0.0,0.0,0.0,0.0,0.0,0.0,-1.6816,-1.6816,0.0,0.0,0.0,0.0,0.0,0.0,0.0,0.0,0.0,0.0,0.0,0.0,-1.7053,-1.6808,-1.7301,-1.7497,-1.7296,-1.8117,-1.8582,-1.8627,-1.9206,-1.9281,-1.8746,0.0,0.0,0.0,0.0,0.0,0.0,0.0,0.0,0.0,0.0,0.0,0.0,0.0,0.0,0.0,0.0,0.0,0.0,0.0,0.0,0.0,0.0,0.0,0.0,0.0,-1.5634,0.0,0.0,0.0,0.0,0.0,0.0,0.0,0.0,0.0,0.0,0.0,-2.367,-2.4238,-2.4736,-2.5147,-2.5406,-2.586,-2.6149,0.0,0.0,0.0,0.0,0.0,0.0,0.0,0.0,0.0,0.0,0.0,0.0,0.0,0.0,-2.5666,-2.539,-2.4893,-2.4402,-2.4049,0.0,0.0,0.0,0.0,0.0,0.0,0.0,0.0,0.0,0.0,0.0,0.0,0.0,0.0,-1.4849,0.0,-1.5203,0.0,0.0,0.0,0.0,0.0,0.0,0.0,0.0,-1.6854,-1.7156,-1.7734,-1.7734,-1.7722,0.0,-1.7793,-1.7227,0.0,0.0,0.0,0.0,0.0,0.0,0.0,0.0,-1.793,-1.7638,-1.816,-1.8374,-1.8196,-1.9011,-1.9489,-1.9566,-2.0106,-2.0025,-1.9231,-1.8103,-1.7614,0.0,0.0,0.0,0.0,0.0,0.0,0.0,0.0,0.0,0.0,0.0,0.0,0.0,0.0,0.0,0.0,0.0,0.0,0.0,0.0,0.0,0.0,0.0,-1.6085,0.0,0.0,0.0,0.0,0.0,0.0,0.0,0.0,0.0,-2.2695,-2.3625,-2.4399,-2.4688,-2.5149,-2.5534,-2.5781,0.0,0.0,0.0,0.0,0.0,0.0,0.0,-2.7977,-2.7773,-2.7574,-2.7453,-2.7583,-2.7633,-2.7745,-2.812,0.0,0.0,-2.6844,-2.6224,-2.5759,-2.576,-2.5816,-2.5686,-2.5149,-2.5586,-2.5986,0.0,0.0,0.0,0.0,0.0,0.0,0.0,0.0,-1.6358,-1.6818,0.0,-1.7654,0.0,0.0,0.0,0.0,0.0,-1.7636,0.0,0.0,-1.7748,-1.778,-1.7908,-1.7908,-1.7889,-1.7889,-1.7908,-1.7907,-1.7871,-1.7881,0.0,0.0,0.0,0.0,0.0,0.0,-1.8594,-1.7807,-1.9275,-1.975,-1.9088,-1.9858,-2.0337,-2.0371,-2.0404,-2.0046,-1.9289,-1.9206,-1.8811,-1.8022,-1.7971,0.0,0.0,0.0,0.0,0.0,0.0,0.0,0.0,0.0,0.0,0.0,0.0,0.0,0.0,0.0,0.0,0.0,0.0,0.0,0.0,-1.6223,0.0,0.0,0.0,0.0,0.0,0.0,0.0,0.0,0.0,0.0,-2.4456,-2.4409,-2.4649,-2.5421,0.0,0.0,0.0,0.0,-2.6871,-2.7625,-2.8308,-2.8688,-2.8563,-2.9008,-2.9334,-2.9185,0.0,0.0,-2.9592,-3.026,-3.055,-3.0416,-3.0267,-3.0057,-2.9008,-2.8349,-2.8134,-2.8488,-2.7935,-2.74,-2.7008,-2.6763,-2.6641,-1.7503,0.0,0.0,0.0,0.0,-1.6332,-1.6892,-1.7966,-1.7995,-1.8192,-1.8527,-1.8551,0.0,0.0,0.0,0.0,0.0,0.0,-1.8103,-1.8697,-1.8688,-1.9027,-1.9672,-1.9666,-1.9655,-1.9655,-1.9643,-1.9637,-1.9649,-1.9655,-1.9049,-1.7915,0.0,0.0,0.0,0.0,-1.9798,-1.9566,-2.0007,-2.0169,-2.0005,-2.0237,-2.0386,-2.0385,-2.0439,-2.0342,-2.005,-1.9493,-1.9366,-1.9653,-1.9146,0.0,0.0,0.0,0.0,0.0,0.0,0.0,0.0,0.0,0.0,0.0,0.0,0.0,0.0,0.0,0.0,0.0,0.0,0.0,-1.7256,-1.6926,-1.7204,0.0,0.0,0.0,0.0,0.0,0.0,0.0,0.0,0.0,-2.5937,-2.5601,-2.5525,0.0,0.0,-2.663,-2.7412,-2.8003,-2.8413,-2.8555,0.0,0.0,0.0,-2.9457,-2.9474,-2.9312,-2.9115,-2.9203,-2.974,-2.9891,-3.005,-3.0404,-3.0396,-3.0313,-3.0354,-2.9658,-2.9024,-2.876,-2.8507,-2.819,-2.7734,-2.7783,-2.7862,-1.8701,-1.8124,-1.7478,-1.7384,-1.7725,-1.7737,-1.8268,-1.9133,-1.9157,-1.9239,-1.9334,-1.9394,-1.9173,-1.8762,-1.877,0.0,0.0,0.0,-1.9114,-1.9619,-1.9609,-1.9914,-2.0428,-2.041,-2.0395,-2.038,-2.0388,-2.0396,-2.039,-2.0388,-1.9904,-1.8924,0.0,0.0,-1.9618,-2.0096,-2.0314,-2.0289,-2.0288,-2.0334,-2.0379,-2.0385,-2.0383,-2.0399,-2.0448,-2.0443,-2.0396,-1.9942,-1.99,-2.0371,-1.9925,-1.9718,0.0,0.0,0.0,0.0,0.0,0.0,0.0,0.0,0.0,0.0,0.0,-1.8617,-1.8908,0.0,0.0,0.0,-1.738,-1.7626,-1.7963,-1.8142,0.0,0.0,0.0,0.0,0.0,0.0,0.0,-2.4164,-2.455,-2.516,-2.6105,-2.6152,-2.6359,-2.7127,-2.7208,-2.746,-2.8268,0.0,-2.9173,-2.935,-2.9808,-2.9991,-2.97,-2.957,-2.9415,-2.9206,-2.9642,-2.9984,-3.0231,-3.0621,-3.1034,-3.1253,-3.1225,-3.124,-3.1496,-3.0872,-3.0172,-2.9677,-2.9402,-2.9146,-2.8653,-2.8638,-2.8585,-1.9718,-1.9569,-1.8031,-1.782,-1.8503,-1.8515,-1.9027,-1.9895,-1.9972,-2.0069,-2.0228,-2.0335,-2.0395,-2.0411,-2.0487,0.0,-2.0609,-2.0588,-2.0623,-2.0594,-2.0614,-2.0657,-2.0706,-2.0663,-2.0603,-2.0609,-2.0618,-2.0607,-2.0615,-2.0549,-2.0549,-2.0609,-2.0524,-2.0504,-2.0487,-2.0566,-2.0534,-2.0431,-2.0418,-2.0405,-2.0405,-2.0471,-2.0515,-2.0507,-2.0576,-2.0609,-2.0598,-2.0598,-2.0597,-2.0588,-2.0604,-2.0099,-1.9048,0.0,0.0,0.0,0.0,0.0,0.0,0.0,0.0,0.0,0.0,0.0,0.0,0.0,0.0,-1.8072,-1.7324,0.0,-1.8297,-1.9805,0.0,0.0,0.0,-2.3203,-2.321,-2.3962,-2.439,-2.4068,0.0,0.0,-2.5522,-2.6311,-2.7164,-2.7894,-2.801,-2.8308,-2.9094,-2.9214,-2.941,-2.9985,-3.0015,-2.9891,-2.9664,-2.9453,-2.9304,-2.9251,-3.0241,-3.0953,-3.1075,-3.1923,-3.2666,-3.2565,-3.2489,-3.2336,-3.2319,-3.1768,-3.1393,-3.0881,-3.046,-3.0044,-2.9556,-2.918,-2.8842,-1.9725,-1.9668,-1.9231,-1.9181,-1.9375,-1.9393,-1.9932,-2.0778,-2.0802,-2.1244,-2.1991,-2.2015,-2.2096,-2.2175,-2.225,-2.2327,-2.2382,-2.2362,-2.2419,-2.2461,-2.2466,-2.2464,-2.2494,-2.248,-2.2468,-2.2453,-2.2416,-2.2387,-2.2343,-2.177,-2.1784,-2.2308,-2.1706,-2.139,-2.1407,-2.2004,-2.2016,-2.1459,-2.1454,-2.1094,-2.0438,-2.1058,-2.1396,-2.1391,-2.2049,-2.2353,-2.2307,-2.2352,-2.2363,-2.232,-2.2355,-2.1697,-2.0201,-2.0977,0.0,0.0,0.0,0.0,0.0,0.0,0.0,0.0,0.0,-2.0255,-2.0405,0.0,-1.9822,0.0,-1.8763,-1.9561,-2.1671,-2.1698,0.0,0.0,-2.3456,-2.4091,-2.4099,-2.4856,-2.5325,-2.5201,-2.5443,-2.5809,-2.6401,-2.7199,-2.8017,-2.8762,-2.8907,-2.9168,-2.9955,-3.0052,-3.0049,-3.0117,-2.9988,-2.981,-2.9681,-2.9471,-2.9465,-3.0005,-3.0336,-3.0814,-3.1792,-3.2036,-3.2263,-3.2613,-3.2473,-3.2197,-3.2002,-3.1748,-3.1338,-3.0757,-3.0369,-3.0103,-2.9766,-2.9364,-2.892,-2.0051,-1.9769,-2.0479,-2.0605,-2.0238,-1.9841,-2.0206,-2.1079,-2.1067,-2.1613,-2.2551,-2.2618,-2.271,-2.2799,-2.2886,-2.2945,-2.3008,-2.3032,-2.3081,-2.3093,-2.3103,-2.3103,-2.3096,-2.3072,-2.305,-2.3047,-2.3018,-2.3003,-2.2979,-2.2576,-2.2581,-2.3003,-2.2865,-2.2821,-2.2865,-2.2926,-2.2757,-2.2338,-2.2333,-2.2081,-2.1595,-2.2036,-2.2292,-2.2281,-2.2753,-2.2953,-2.2894,-2.294,-2.2953,-2.294,-2.299,-2.2424,-2.1172,-2.1886,-2.1954,0.0,0.0,0.0,0.0,0.0,0.0,0.0,0.0,0.0,0.0,0.0,-2.1007,-2.0936,-2.0633,-2.1163,-2.2927,-2.3046,-2.3194,-2.3632,-2.4464,-2.4963,-2.4943,-2.5364,-2.5639,-2.5613,-2.5607,-2.5744,-2.6149,-2.7257,-2.818,-2.8599,-2.9293,-2.9939,-3.0271,-3.034,-3.0267,-3.0161,-2.9958,-2.9897,-3.0057,-2.9613,-2.9588,-3.0609,-3.0785,-3.1038,-3.2018,-3.2295,-3.2416,-3.2517,-3.2301,-3.202,-3.1802,-3.1579,-3.124,-3.0784,-3.0385,-3.007,-2.9722,-2.9382,-2.8999,-2.064,-2.0201,-2.1687,-2.1857,-2.111,-2.0289,-2.0511,-2.1438,-2.1381,-2.191,-2.2844,-2.2976,-2.3073,-2.3135,-2.3256,-2.3323,-2.3348,-2.3376,-2.3412,-2.3413,-2.3419,-2.3425,-2.3427,-2.3354,-2.3326,-2.3331,-2.3323,-2.3318,-2.3333,-2.3291,-2.3285,-2.3344,-2.3914,-2.429,-2.4411,-2.37,-2.3273,-2.3182,-2.3052,-2.3014,-2.3018,-2.3106,-2.3148,-2.3153,-2.3263,-2.3289,-2.323,-2.3243,-2.3269,-2.3327,-2.3346,-2.3015,-2.2343,-2.2839,-2.2844,0.0,-2.2639,0.0,0.0,0.0,0.0,0.0,0.0,0.0,0.0,-2.1862,-2.2253,-2.3173,-2.2578,-2.2489,-2.3359,-2.4121,-2.4569,-2.4571,-2.5244,-2.5684,-2.5632,-2.5693,-2.5707,-2.5609,-2.5686,-2.5712,-2.5739,-2.7052,-2.805,-2.828,-2.9466,-3.037,-3.0398,-3.0323,-3.0241,-3.0104,-2.9953,-2.9924,-3.0176,-2.9765,-2.982,-3.1084,-3.1247,-3.1447,-3.2198,-3.2619,-3.277,-3.242,-3.2109,-3.1873,-3.1774,-3.1419,-3.1117,-3.0818,-3.046,-3.0103,-2.971,-2.9323,-2.9139,-2.1472,-2.1997,-2.2269,-2.225,-2.2034,-2.1875,-2.2324,-2.3215,-2.3202,-2.3714,-2.4595,-2.47,-2.4793,-2.4904,-2.5,-2.5046,-2.5099,-2.5127,-2.5114,-2.5114,-2.5119,-2.5143,-2.5118,-2.5066,-2.5031,-2.5033,-2.5084,-2.5102,-2.509,-2.4462,-2.4475,-2.506,-2.4559,-2.4616,-2.5214,0.0,0.0,0.0,-2.3417,-2.3043,-2.3037,-2.3655,-2.3986,-2.3986,-2.4664,0.0,-2.5001,-2.5066,-2.5098,-2.5092,-2.5123,0.0,0.0,0.0,0.0,0.0,0.0,0.0,0.0,0.0,0.0,0.0,-2.2615,-2.2507,-2.2733,-2.2757,-2.3134,-2.3961,-2.3969,-2.4255,-2.5115,-2.5341,-2.5468,-2.5466,-2.5593,-2.5696,-2.5691,-2.6194,-2.6337,-2.569,-2.6172,-2.6553,-2.6563,-2.7439,-2.8238,-2.884,-2.98,-3.034,-3.0337,-3.026,-3.0207,-3.0152,-2.9943,-2.9702,-2.9508,-2.9924,-3.0309,-3.1107,-3.119,-3.1629,-3.2759,-3.2827,-3.2719,-3.2555,-3.2179,-3.1746,-3.1445,-3.1213,-3.0975,-3.0757,-3.051,-3.0274,-2.9973,-2.9441,-2.9092,-2.249,0.0,-2.336,-2.3449,0.0,-2.3531,-2.401,-2.4419,-2.3866,-2.4195,-2.5111,-2.5203,-2.5284,-2.5359,-2.5495,-2.557,-2.5613,-2.5599,-2.5615,-2.5605,-2.5568,-2.5544,-2.5538,-2.551,-2.5503,-2.5564,-2.5576,-2.5599,-2.559,-2.5234,-2.5247,-2.5624,-2.5167,-2.5141,-2.5531,-2.555,-2.5349,-2.4957,-2.455,-2.4312,-2.4311,-2.4702,-2.4884,-2.4911,0.0,0.0,0.0,0.0,0.0,0.0,0.0,0.0,0.0,0.0,0.0,-2.4643,-2.4392,-2.4222,-2.4154,-2.4161,-2.4181,-2.4138,-2.4184,-2.4018,-2.3618,-2.3973,-2.4424,-2.4894,-2.4968,-2.5196,-2.5637,-2.5687,-2.57,-2.57,-2.5689,-2.583,-2.6248,-2.6587,-2.665,-2.6365,-2.656,-2.6803,-2.6796,-2.7464,-2.8251,-2.91,-2.9844,-3.033,-3.024,-3.018,-3.0123,-2.9975,-2.9848,-2.9754,-2.9721,-2.9545,-3.002,-3.0808,-3.1093,-3.1529,-3.2571,-3.278,-3.277,-3.2573,-3.2126,-3.1709,-3.1389,-3.1134,-3.0895,-3.0634,-3.0401,-3.0146,-2.9913,-2.956,-2.9309,-2.3503,-2.3126,-2.4491,-2.4655,-2.4133,-2.4878,-2.5209,-2.5143,0.0,0.0,0.0,-2.5245,-2.5311,-2.5367,-2.5505,-2.5589,-2.5595,-2.5579,-2.5574,-2.557,-2.5506,-2.5485,-2.5471,-2.5483,-2.5517,-2.5557,-2.5582,-2.5604,-2.5605,-2.5667,-2.5699,-2.5695,-2.5634,-2.5607,-2.5601,-2.5595,-2.5582,-2.5607,-2.5615,-2.56,-2.5604,-2.5599,-2.5613,-2.5601,-2.5601,-2.5601,-2.5601,-2.5601,-2.5601,-2.5601,-2.5601,-2.557,-2.5525,-2.5506,-2.5505,-2.5511,-2.5654,-2.5696,-2.5625,-2.5815,-2.592,-2.5873,-2.5793,-2.5369,-2.4496,-2.5104,-2.5518,-2.5593,-2.5595,-2.5636,-2.5698,-2.5703,-2.5697,-2.5699,-2.5844,-2.6158,-2.6611,-2.694,-2.6968,-2.6741,-2.6849,-2.6997,-2.7063,-2.77,-2.8434,-2.9261,-2.9956,-3.0247,-3.0113,-3.0053,-2.9956,-2.9774,-2.9682,-2.9723,-2.9835,-2.9295,-2.9253,-3.0529,-3.0758,-3.1075,-3.1852,-3.2355,-3.2556,-3.2488,-3.2091,-3.1691,-3.1351,-3.1095,-3.0814,-3.0551,-3.0274,-2.9973,-2.981,-2.9633,-2.9539,-2.4361,-2.4935,-2.5166,-2.5205,-2.5088,-2.5171,-2.5209,-2.5192,-2.5086,-2.5177,-2.5351,-2.5331,-2.5357,-2.548,-2.5522,-2.555,-2.5577,-2.5478,-2.5471,0.0,-2.5456,-2.5415,-2.5412,-2.5418,-2.5426,-2.5434,-2.5543,-2.5595,-2.5609,-2.5682,-2.5699,-2.5714,-2.5615,-2.5609,-2.5601,-2.5531,-2.5537,-2.5599,-2.56,-2.56,-2.5599,-2.5613,-2.5601,-2.5601,-2.5621,-2.5601,-2.5601,-2.5621,-2.5601,-2.5601,-2.5601,-2.5595,-2.5576,-2.5582,-2.5564,-2.5557,-2.62,-2.6571,-2.6477,-2.718,-2.766,-2.7683,-2.7032,-2.6238,-2.5425,-2.5467,-2.5595,-2.5607,-2.5609,-2.5624,-2.5694,-2.5723,-2.5744,-2.5781,-2.6382,-2.6603,-2.6139,-2.7132,-2.7388,-2.6176,-2.7016,-2.7776,-2.7758,-2.8435,-2.9212,-2.992,-3.0171,-3.0232,-3.0056,-2.9918,-2.9808,-2.9701,-2.9493,-2.9368,-2.9318,-2.8942,-2.9003,-2.9737,-2.9927,-3.0341,-3.1474,-3.1724,-3.1862,-3.2229,-3.1913,-3.1579,-3.1334,-3.1078,-3.0814,-3.0568,-3.0316,-3.0103,-2.9853,-2.9694,-2.964,-2.5023,-2.5341,-2.5351,-2.5341,-2.5312,-2.5303,-2.5322,-2.536,-2.5388,-2.5388,-2.5339,-2.5376,-2.5448,-2.5499,-2.551,-2.551,-2.5495,-2.5444,-2.5449,-2.5456,-2.5415,-2.5397,-2.5395,-2.539,-2.543,-2.5543,-2.6065,-2.6291,-2.634,-2.6801,-2.6816,-2.635,-2.5776,-2.5493,-2.5538,-2.5512,-2.5777,-2.6279,-2.5843,-2.5823,-2.6285,-2.6312,-2.6521,-2.6928,-2.6521,-2.6482,-2.6909,-2.6042,-2.5783,-2.6281,-2.5859,-2.557,-2.555,-2.555,-2.5708,-2.6081,-2.6502,-2.6898,-2.7287,-2.7786,-2.807,-2.8085,-2.7736,-2.7341,-2.6948,-2.6088,-2.5601,-2.5604,-2.56,-2.5624,-2.5714,-2.6133,-2.6408,-2.6406,-2.7178,-2.7705,-2.7764,-2.7843,-2.7783,-2.7187,-2.7544,-2.7933,-2.7894,-2.8585,-2.9394,-3.0101,-3.0194,-3.0053,-2.999,-2.9811,-2.9682,-2.9664,-2.9471,-2.9265,-2.913,-2.8797,-2.8746,-2.9024,-2.9386,-2.9809,-3.0528,-3.0886,-3.15,-3.1603,-3.161,-3.1617,-3.1389,-3.1134,-3.0855,-3.0526,-3.0333,-3.0103,-2.9842,-2.9754,-2.971,-2.5387,-2.5379,-2.538,-2.539,-2.5341,-2.5378,-2.5432,-2.5484,-2.5484,-2.5421,-2.5367,-2.5448,-2.5511,-2.5511,-2.5703,-2.5754,-2.5743,-2.5747,-2.5743,-2.5695,-2.5677,-2.5686,-2.5723,-2.5882,-2.6052,-2.6217,-2.6879,-2.7191,-2.7264,-2.7872,-2.7873,-2.7161,-2.6362,-2.601,-2.6059,-2.6067,-2.6437,-2.7052,-2.6495,-2.6495,-2.7142,-2.7162,-2.7445,-2.7958,-2.7416,-2.7396,-2.7958,-2.6784,-2.6398,-2.7065,-2.6339,-2.5868,-2.5832,-2.582,-2.606,-2.6602,-2.7082,-2.7688,-2.8442,-2.862,-2.8686,-2.867,-2.8495,-2.8398,-2.8269,-2.7045,-2.6182,-2.6155,-2.6062,-2.5959,-2.6087,-2.6574,-2.7002,-2.705,-2.7949,-2.8532,-2.8774,-2.8412,-2.8035,-2.7932,-2.7896,-2.7991,-2.824,-2.8818,-2.9557,-3.0075,-3.006,-2.9926,-2.9933,-2.9757,-2.9626,-2.9625,-2.9576,-2.9529,-2.9343,-2.9277,-2.9042,-2.8827,-2.9233,-2.9503,-2.9699,-3.0481,-3.1185,-3.1131,-3.1487,-3.1637,-3.1406,-3.1134,-3.0871,-3.0568,-3.0316,-3.0103,-2.9786,-2.971,-2.9694,-2.5385,-2.5395,-2.5385,-2.5387,-2.5418,-2.5395,-2.544,-2.5479,-2.5421,-2.5448,-2.5572,-2.5484,-2.555,-2.5627,-2.6328,-2.6672,-2.6653,-2.6616,-2.658,-2.6569,-2.6497,-2.6515,-2.665,-2.7348,-2.7791,-2.7815,-2.7995,-2.8096,-2.8082,-2.8174,-2.8119,-2.7981,-2.7829,-2.7688,-2.7716,-2.7741,-2.7807,-2.7904,-2.7888,-2.7915,-2.7973,-2.7934,-2.7929,-2.8006,-2.7948,-2.7929,-2.8122,-2.7851,-2.7829,-2.7908,-2.7159,-2.6727,-2.6754,-2.6765,-2.6784,-2.687,-2.8327,-2.9603,-3.0314,-3.0445,-3.0393,-3.0406,-2.9687,-2.9271,-2.9246,-2.8465,-2.796,-2.7838,-2.7264,-2.6825,-2.688,-2.7017,-2.7186,-2.7316,-2.8522,-2.8848,-2.7794,-2.7775,-2.7853,-2.6931,-2.7677,-2.8251,-2.8844,-2.9567,-3.0107,-3.0171,-3.0026,-2.9912,-2.9887,-2.9758,-2.9588,-2.9623,-2.9823,-3.0033,-2.9995,-3.0436,-2.9936,-2.944,-2.9475,-2.9438,-2.943,-2.9869,-3.0504,-3.0801,-3.1418,-3.1637,-3.1445,-3.119,-3.0871,-3.0609,-3.0359,-3.006,-2.977,-2.9653,-2.9518,-2.5395,-2.5387,-2.5385,-2.5715,-2.6073,-2.5618,-2.5983,-2.6823,-2.6369,-2.6427,-2.689,-2.6947,-2.6693,-2.6276,-2.7108,-2.7495,-2.7447,-2.7374,-2.7363,-2.7335,-2.7311,-2.7332,-2.746,-2.7793,-2.8024,-2.8171,-2.8682,-2.8971,-2.896,-2.889,-2.8803,-2.8627,-2.8164,-2.7874,-2.7884,-2.7943,-2.8192,-2.8767,-2.8714,-2.8956,-2.9389,-2.8994,-2.8946,-2.9322,-2.8955,-2.8985,-2.9313,-2.8511,-2.821,-2.8706,-2.802,-2.7588,-2.7614,-2.7608,-2.7802,-2.8293,-2.9467,-3.0367,-3.0736,-3.0722,-3.0714,-3.0764,-3.0447,-3.0203,-3.0172,-2.9902,-2.9732,-2.9565,-2.847,-2.7515,-2.7179,-2.7894,-2.8549,-2.8695,-2.9597,-2.9922,-2.9294,-2.8929,-2.8643,-2.8257,-2.8415,-2.8679,-2.9106,-2.978,-3.0177,-3.0147,-3.0,-2.9895,-2.9887,-2.9776,-2.9626,-2.9604,-2.9953,-2.9996,-2.9682,-2.9478,-2.9367,-2.9125,-2.9251,-2.9382,-2.8927,-2.9991,-3.081,-3.0329,-3.1067,-3.1507,-3.1213,-3.1095,-3.0895,-3.0651,-3.0231,-2.9907,-2.9814,-2.9729,-2.9603,-2.5387,-2.5434,-2.5637,-2.6082,-2.6641,-2.6246,-2.6757,-2.7759,-2.7287,-2.7383,-2.7913,-2.8193,-2.8,-2.7537,-2.8039,-2.83,-2.828,-2.817,-2.8137,-2.8168,-2.8134,-2.8187,-2.8261,-2.8568,-2.8725,-2.8876,-2.9473,-2.9791,-2.9777,-2.9694,-2.9574,-2.9366,-2.8799,-2.8487,-2.851,-2.8566,-2.8936,-2.9535,-2.9534,-2.9822,-3.0257,-2.9832,-2.9773,-3.026,-2.9817,-2.9809,-3.04,-2.9254,-2.8908,-2.9562,-2.883,-2.8427,-2.8461,-2.845,-2.8845,-2.9641,-3.0341,-3.0755,-3.0803,-3.075,-3.0726,-3.0763,-3.0784,-3.0784,-3.0745,-3.0789,-3.0673,-3.032,-2.9503,-2.8611,-2.7998,-2.8622,-2.9275,-2.9549,-3.0117,-3.0383,-3.0205,-2.9652,-2.922,-2.9168,-2.8956,-2.911,-2.9398,-2.9825,-3.0089,-2.977,-2.9817,-2.9742,-2.9658,-2.9569,-2.9626,-2.9491,-2.9768,-2.9775,-2.9347,-2.9501,-2.9096,-2.8838,-2.9241,-2.9247,-2.8578,-3.0021,-3.0974,-3.0411,-3.1079,-3.1342,-3.1117,-3.1015,-3.0831,-3.0426,-3.006,-2.9733,-2.972,-2.9651,-2.9687,-2.5387,-2.5502,-2.6227,-2.6554,-2.667,-2.7332,-2.7747,-2.8056,-2.7893,-2.7902,-2.8133,-2.88,-2.9109,-2.9058,-2.9047,-2.9129,-2.9205,-2.9044,-2.9021,-2.9117,-2.901,-2.9021,-2.9206,-2.9988,-3.0366,-3.0261,-3.0347,-3.0447,-3.0414,-3.0404,-3.0419,-3.0283,-3.0107,-3.0101,-3.0068,-3.0136,-3.0342,-3.0282,-3.0365,-3.0432,-3.0321,-3.0271,-3.0251,-3.0297,-3.0247,-3.0271,-3.0371,-3.0314,-3.0301,-3.0424,-2.9622,-2.9224,-2.9329,-2.935,-2.9751,-3.0575,-3.075,-3.0789,-3.0804,-3.0793,-3.0782,-3.0724,-3.0769,-3.0799,-3.0784,-3.0785,-3.0495,-2.9683,-3.0234,-3.0175,-2.9453,-2.9004,-2.8977,-2.9508,-2.9543,-2.9576,-2.9469,-2.955,-2.9226,-2.9121,-2.9128,-2.9334,-2.9928,-3.0071,-2.9746,-2.9375,-2.9513,-2.9647,-2.9055,-2.9232,-2.9494,-2.9392,-2.9357,-2.9388,-2.982,-2.9766,-2.9846,-2.9565,-2.9096,-2.9387,-2.9404,-2.958,-3.0093,-3.0546,-3.109,-3.1278,-3.1078,-3.0871,-3.0643,-3.0307,-2.9814,-2.9571,-2.9674,-2.9357,-2.9454,-2.5395,-2.5462,-2.6227,-2.686,-2.7379,-2.7692,-2.8422,-2.9348,-2.8879,-2.8994,-2.9486,-2.9836,-2.9963,-2.9963,-2.9902,-2.9946,-3.0047,-2.9952,-2.9886,-2.989,-2.991,-2.9921,-3.0021,-3.0384,-3.0588,-3.0593,-3.0602,-3.0539,-3.0451,-3.0436,-3.0355,-3.0253,-3.0279,-3.0279,-3.0273,-3.0371,-3.0458,-3.0449,-3.0479,-3.0449,-3.0419,-3.0406,-3.0364,-3.0383,-3.0279,-3.0299,-3.0394,-3.0359,-3.0394,-3.0491,-3.024,-3.012,-3.0164,-3.0237,-3.0433,-3.0754,-3.0786,-3.0786,-3.0789,-3.079,-3.0802,-3.0773,-3.0779,-3.0802,-3.0798,-3.078,-3.0641,-3.0468,-3.0575,-3.0601,-3.0427,-3.003,-2.9951,-3.0185,-3.0229,-3.0106,-3.0094,-3.0037,-2.9965,-2.985,-2.9761,-2.9818,-2.9897,-3.003,-2.9741,-2.9042,-2.9463,-2.9455,-2.8964,-2.9158,-2.9531,-2.9353,-2.9246,-2.9204,-2.915,-2.9232,-2.9232,-2.9116,-2.8953,-2.9193,-2.9313,-3.0053,-3.0612,-3.0714,-3.1147,-3.1218,-3.0975,-3.0651,-3.045,-3.0315,-2.9852,-2.9496,-2.9627,-2.9453,-2.9722,-2.5586,-2.5934,-2.6622,-2.7437,-2.8206,-2.8507,-2.9243,-3.0215,-2.9735,-2.9843,-3.0297,-3.0367,-3.0359,-3.0371,-3.0309,-3.0344,-3.0409,-3.0359,-3.0343,-3.0336,-3.0359,-3.039,-3.0421,-3.0488,-3.055,-3.0558,-3.0567,-3.0511,-3.0417,-3.0402,-3.033,-3.018,-3.0253,-3.0273,-3.0248,-3.0333,-3.0439,-3.0471,-3.0471,-3.049,-3.0481,-3.0469,-3.0417,-3.0375,-3.0304,-3.0316,-3.0419,-3.0364,-3.0386,-3.0511,-3.0558,-3.0602,-3.0637,-3.0734,-3.0789,-3.0802,-3.079,-3.079,-3.0798,-3.079,-3.0782,-3.0799,-3.0793,-3.0798,-3.0799,-3.0795,-3.0801,-3.079,-3.0785,-3.0769,-3.0753,-3.0685,-3.0665,-3.061,-3.0402,-3.0308,-3.0383,-3.0344,-3.0235,-3.0128,-3.0022,-2.9984,-2.9924,-2.9984,-2.9604,-2.8812,-2.9459,-2.9599,-2.8904,-2.912,-2.9531,-2.9353,-2.9203,-2.9026,-2.8925,-2.8891,-2.8861,-2.873,-2.8594,-2.8889,-2.9496,-3.0342,-3.0855,-3.0959,-3.0976,-3.101,-3.0838,-3.0468,-3.0315,-3.029,-2.9824,-2.9386,-2.9485,-2.9643,-2.999,-2.5959,-2.6715,-2.7566,-2.8268,-2.9025,-2.9759,-3.0222,-3.0273,-3.0254,-3.0216,-3.0324,-3.0299,-3.0318,-3.0305,-3.0299,-3.0304,-3.0304,-3.026,-3.0273,-3.0367,-3.0343,-3.0362,-3.0398,-3.0421,-3.0466,-3.0519,-3.051,-3.0499,-3.0525,-3.0441,-3.0348,-3.035,-3.0318,-3.0299,-3.0304,-3.0364,-3.0439,-3.049,-3.054,-3.055,-3.0509,-3.0509,-3.0469,-3.0433,-3.0406,-3.0439,-3.0491,-3.043,-3.0471,-3.0558,-3.054,-3.0576,-3.0691,-3.0755,-3.0802,-3.0802,-3.0802,-3.0786,-3.0794,-3.0793,-3.0786,-3.0791,-3.0794,-3.0801,-3.08,-3.0799,-3.0788,-3.0791,-3.075,-3.071,-3.0697,-3.0634,-3.0591,-3.054,-2.9969,-2.9766,-3.0081,-3.0142,-3.0049,-2.9959,-2.9943,-2.9891,-2.9859,-2.9907,-2.9599,-2.9045,-2.9399,-2.9649,-2.8772,-2.9101,-2.9419,-2.9332,-2.9138,-2.8934,-2.8767,-2.8594,-2.8528,-2.846,-2.8344,-2.8482,-2.9377,-3.0202,-3.0734,-3.0888,-3.1004,-3.1015,-3.0757,-3.0426,-3.0172,-3.0036,-2.9563,-2.9464,-2.9718,-2.9989,-3.0228,-2.5991,-2.6815,-2.7585,-2.8345,-2.9106,-2.9934,-3.0279,-3.0245,-3.0221,-3.0279,-3.0286,-3.0312,-3.0305,-3.0305,-3.0318,-3.0312,-3.0305,-3.026,-3.0292,-3.0349,-3.041,-3.039,-3.0359,-3.0425,-3.0488,-3.0479,-3.049,-3.0786,-3.1076,-3.0648,-3.0561,-3.0931,-3.0574,-3.0311,-3.0355,-3.0425,-3.0479,-3.0481,-3.052,-3.053,-3.0569,-3.0559,-3.0559,-3.053,-3.054,-3.0549,-3.0567,-3.0511,-3.0511,-3.0615,-3.0629,-3.0683,-3.0753,-3.0779,-3.0798,-3.079,-3.0798,-3.0793,-3.0786,-3.0789,-3.0794,-3.0793,-3.0794,-3.0801,-3.079,-3.0788,-3.0796,-3.0786,-3.0734,-3.0685,-3.0618,-3.051,-3.0482,-3.0463,-3.0186,-2.9979,-3.0079,-3.0118,-3.0034,-2.9945,-2.991,-2.9857,-2.977,-2.9823,-2.9517,-2.8855,-2.9342,-2.9483,-2.8783,-2.9026,-2.9316,-2.9181,-2.9021,-2.8905,-2.8743,-2.8619,-2.8536,-2.8424,-2.8282,-2.8632,-2.9475,-2.9911,-3.0439,-3.0871,-3.1009,-3.0895,-3.0651,-3.0401,-3.0146,-3.0163,-3.0073,-3.0103,-3.019,-3.0368,-3.0606,-2.6463,-2.7318,-2.8058,-2.8807,-2.9505,-3.0081,-3.0259,-3.0176,-3.0171,-3.0213,-3.0221,-3.0232,-3.0278,-3.0286,-3.0272,-3.0299,-3.033,-3.0343,-3.0323,-3.0336,-3.0371,-3.0383,-3.0316,-3.0364,-3.0417,-3.0513,-3.0764,-3.1164,-3.1628,-3.1431,-3.1527,-3.1834,-3.1501,-3.1104,-3.0859,-3.0898,-3.0846,-3.0549,-3.0491,-3.053,-3.0588,-3.0617,-3.0617,-3.0598,-3.0606,-3.0604,-3.0604,-3.0586,-3.0585,-3.0637,-3.069,-3.0716,-3.0804,-3.0793,-3.0786,-3.0798,-3.0786,-3.0798,-3.0798,-3.0789,-3.0793,-3.0794,-3.0793,-3.0798,-3.0796,-3.0796,-3.0801,-3.0779,-3.071,-3.063,-3.0557,-3.0462,-3.0398,-3.0321,-3.0292,-3.0207,-3.0026,-2.9965,-2.9924,-2.9842,-2.9842,-2.9789,-2.9736,-2.9681,-2.9548,-2.9132,-2.9377,-2.9607,-2.9005,-2.9111,-2.9153,-2.9112,-2.8952,-2.8834,-2.8718,-2.8637,-2.858,-2.8432,-2.8291,-2.8973,-2.9779,-2.9802,-3.0076,-3.0725,-3.1015,-3.0773,-3.0526,-3.0274,-3.0076,-3.0277,-3.0451,-3.0287,-3.0279,-3.0687,-3.0865,-2.726,-2.8075,-2.8868,-2.955,-3.0171,-3.0292,-3.0213,-3.0102,-3.0102,-3.0117,-3.0132,-3.0142,-3.018,-3.0273,-3.026,-3.0286,-3.0379,-3.0402,-3.0375,-3.0383,-3.0352,-3.0328,-3.0328,-3.034,-3.0328,-3.0432,-3.113,-3.161,-3.184,-3.2327,-3.2935,-3.2923,-3.2756,-3.2513,-3.1888,-3.1765,-3.1472,-3.0974,-3.0723,-3.0675,-3.0743,-3.0617,-3.0617,-3.0607,-3.0604,-3.0613,-3.0634,-3.0665,-3.069,-3.0697,-3.071,-3.0745,-3.0798,-3.0829,-3.0957,-3.0869,-3.0824,-3.0868,-3.0832,-3.0793,-3.0791,-3.0801,-3.08,-3.0798,-3.0794,-3.0794,-3.0774,-3.0778,-3.0658,-3.0563,-3.0501,-3.0417,-3.0318,-3.0199,-3.0123,-3.0003,-2.9823,-2.9753,-2.9736,-2.9701,-2.9682,-2.9663,-2.9626,-2.957,-2.9533,-2.9551,-2.9533,-2.94,-2.9338,-2.9233,-2.9228,-2.9093,-2.8881,-2.8834,-2.8718,-2.8669,-2.8612,-2.8536,-2.8461,-2.9073,-2.9907,-2.9948,-2.9955,-3.0564,-3.0757,-3.0583,-3.0435,-3.0153,-3.0168,-3.0425,-3.0441,-3.0231,-3.0473,-3.0941,-3.0981,-2.7224,-2.8076,-2.8936,-2.9646,-3.0203,-3.0299,-3.0207,-3.0034,-3.0068,-3.0122,-3.0156,-3.0171,-3.024,-3.0363,-3.0343,-3.0386,-3.041,-3.0421,-3.0402,-3.0402,-3.0394,-3.0394,-3.0375,-3.0375,-3.0348,-3.0433,-3.1232,-3.1916,-3.2472,-3.2785,-3.3221,-3.3733,-3.3333,-3.2947,-3.2671,-3.2656,-3.2593,-3.2325,-3.1697,-3.1427,-3.14,-3.0936,-3.0607,-3.0606,-3.0671,-3.0687,-3.0696,-3.0683,-3.0698,-3.0691,-3.075,-3.0789,-3.088,-3.1379,-3.1468,-3.1045,-3.1359,-3.1414,-3.0941,-3.0807,-3.0793,-3.0811,-3.0829,-3.086,-3.0798,-3.0774,-3.0739,-3.0691,-3.0591,-3.0462,-3.0367,-3.0299,-3.0171,-3.0026,-2.9943,-2.9874,-2.9806,-2.9771,-2.9718,-2.9589,-2.957,-2.9494,-2.9395,-2.9275,-2.9254,-2.9293,-2.9251,-2.9209,-2.9181,-2.9241,-2.9228,-2.8989,-2.8828,-2.8785,-2.8761,-2.8712,-2.8687,-2.8662,-2.8729,-2.8984,-2.9818,-3.037,-3.0434,-3.0745,-3.0349,-3.0062,-3.0113,-3.0001,-3.0262,-3.0517,-3.0817,-3.0839,-3.0964,-3.1258,-3.1104,-2.772,-2.857,-2.9418,-2.994,-3.0209,-3.0241,-3.0174,-3.0109,-3.0083,-3.016,-3.0228,-3.0204,-3.0273,-3.0398,-3.0398,-3.0414,-3.0477,-3.0477,-3.0477,-3.0477,-3.0419,-3.0398,-3.0394,-3.0383,-3.0336,-3.042,-3.1503,-3.2264,-3.2872,-3.3432,-3.4112,-3.4529,-3.4237,-3.3846,-3.3547,-3.3569,-3.339,-3.3063,-3.254,-3.2327,-3.2338,-3.1922,-3.171,-3.1651,-3.1678,-3.1723,-3.1794,-3.1819,-3.1514,-3.0973,-3.0779,-3.0938,-3.134,-3.1796,-3.1861,-3.1382,-3.1838,-3.1708,-3.1044,-3.0853,-3.0859,-3.0847,-3.0852,-3.0817,-3.0774,-3.0725,-3.0704,-3.0607,-3.0501,-3.0409,-3.0311,-3.0199,-3.0068,-2.9924,-2.9842,-2.9771,-2.9753,-2.97,-2.9645,-2.9531,-2.9434,-2.9375,-2.9209,-2.9101,-2.906,-2.9079,-2.9048,-2.9003,-2.8952,-2.9119,-2.9174,-2.898,-2.9014,-2.9109,-2.8902,-2.876,-2.8963,-2.8945,-2.9303,-2.9444,-2.9808,-3.0524,-3.0503,-3.0375,-2.9955,-2.9705,-2.9888,-3.001,-3.0224,-3.059,-3.1075,-3.124,-3.1153,-3.1172,-3.1008,-2.8434,-2.928,-3.0056,-3.0343,-3.0266,-3.0213,-3.018,-3.0161,-3.0113,-3.0175,-3.0257,-3.0223,-3.0311,-3.0413,-3.0425,-3.0458,-3.0559,-3.055,-3.055,-3.05,-3.0449,-3.0375,-3.0355,-3.0323,-3.0369,-3.0633,-3.1966,-3.2649,-3.3253,-3.4423,-3.5155,-3.5259,-3.5276,-3.5027,-3.4546,-3.4494,-3.41,-3.3655,-3.3374,-3.3248,-3.3219,-3.2997,-3.2764,-3.2774,-3.285,-3.2951,-3.3048,-3.3083,-3.2583,-3.1154,-3.1057,-3.1566,-3.2173,-3.2254,-3.2146,-3.2036,-3.1999,-3.1731,-3.1054,-3.0898,-3.0876,-3.0877,-3.0817,-3.0774,-3.072,-3.0678,-3.0614,-3.051,-3.043,-3.0336,-3.0253,-3.0098,-2.9972,-2.9874,-2.9823,-2.9754,-2.9681,-2.957,-2.953,-2.9546,-2.946,-2.9262,-2.923,-2.9062,-2.891,-2.8897,-2.8863,-2.881,-2.8943,-2.9264,-2.9207,-2.9003,-2.9204,-2.9548,-2.9188,-2.8811,-2.9132,-2.9387,-2.9928,-3.0187,-3.0044,-3.0387,-3.0316,-3.0122,-2.979,-2.9765,-2.9942,-3.0099,-3.0169,-3.048,-3.0899,-3.0842,-3.0692,-3.0791,-3.0731,-2.8413,-2.9261,-3.0078,-3.0292,-3.0166,-3.0114,-3.0104,-3.0049,-3.0038,-3.0132,-3.027,-3.0279,-3.0348,-3.0488,-3.0477,-3.0499,-3.05,-3.0519,-3.0479,-3.0414,-3.0367,-3.0305,-3.0291,-3.0278,-3.0562,-3.1138,-3.2099,-3.2937,-3.3732,-3.4595,-3.5293,-3.5354,-3.547,-3.5485,-3.5325,-3.5261,-3.5398,-3.5097,-3.4506,-3.4139,-3.4013,-3.3596,-3.3306,-3.3267,-3.3283,-3.3293,-3.329,-3.3291,-3.3145,-3.2927,-3.2822,-3.2845,-3.2973,-3.3041,-3.2741,-3.2243,-3.2089,-3.1738,-3.1113,-3.0931,-3.0897,-3.0884,-3.0793,-3.0691,-3.0711,-3.061,-3.052,-3.0422,-3.0316,-3.0207,-3.0079,-2.9991,-2.991,-2.9842,-2.9755,-2.9701,-2.9589,-2.9531,-2.9768,-2.9903,-2.9588,-2.9265,-2.9679,-2.901,-2.8809,-2.8737,-2.8669,-2.8612,-2.8967,-2.9393,-2.9475,-2.9395,-2.9916,-3.0255,-2.9848,-2.9465,-2.9538,-2.9788,-3.0269,-3.0523,-3.0421,-3.0559,-3.0585,-3.0204,-2.9691,-2.9787,-3.0003,-2.9722,-2.9715,-3.0197,-3.0625,-3.0452,-3.0342,-3.041,-3.0336,-2.8956,-2.9733,-3.0179,-3.0286,-3.0152,-3.0174,-3.0161,-3.0138,-3.0142,-3.0226,-3.033,-3.0348,-3.039,-3.0466,-3.0458,-3.0469,-3.0469,-3.0436,-3.0359,-3.0254,-3.0213,-3.0352,-3.0651,-3.062,-3.0874,-3.1464,-3.2618,-3.3415,-3.4034,-3.4767,-3.5339,-3.5393,-3.5496,-3.5562,-3.5648,-3.5688,-3.5689,-3.5657,-3.5366,-3.5057,-3.4962,-3.4642,-3.4351,-3.4341,-3.4384,-3.4457,-3.4522,-3.4529,-3.4339,-3.4072,-3.3973,-3.3773,-3.3448,-3.3375,-3.2959,-3.2285,-3.2102,-3.1958,-3.1538,-3.1116,-3.0992,-3.1284,-3.0967,-3.0704,-3.0618,-3.0501,-3.04,-3.0328,-3.0234,-3.0128,-2.9972,-2.9926,-2.9878,-2.979,-2.9701,-2.9738,-2.9978,-3.0029,-2.9893,-2.9965,-2.966,-2.9447,-2.9284,-2.8953,-2.8782,-2.8735,-2.8771,-2.8742,-2.9332,-2.9764,-3.0088,-3.0266,-3.079,-3.0981,-3.0558,-3.0251,-3.0056,-3.0225,-3.0491,-3.0559,-3.0434,-3.07,-3.0972,-3.0469,-2.9947,-2.9881,-2.998,-2.9632,-2.9572,-3.0099,-3.0351,-3.0113,-2.9955,-3.0006,-2.9877,-2.9569,-3.0312,-3.0299,-3.0228,-3.0185,-3.0226,-3.0226,-3.024,-3.0266,-3.0292,-3.0383,-3.039,-3.039,-3.0394,-3.0386,-3.0417,-3.0414,-3.0304,-3.0202,-3.0085,-3.025,-3.0579,-3.0985,-3.1331,-3.1634,-3.1792,-3.2985,-3.3796,-3.432,-3.4891,-3.536,-3.547,-3.5528,-3.5593,-3.5679,-3.5708,-3.5747,-3.5776,-3.5721,-3.5666,-3.5687,-3.5572,-3.5495,-3.5494,-3.5516,-3.556,-3.5548,-3.5574,-3.5427,-3.4725,-3.4792,-3.428,-3.3532,-3.317,-3.3141,-3.2382,-3.2329,-3.2182,-3.2206,-3.1757,-3.1572,-3.2045,-3.1336,-3.0873,-3.0733,-3.0505,-3.0309,-3.0247,-3.0176,-3.0083,-2.9924,-2.9841,-2.9806,-2.9755,-2.9626,-2.9847,-3.0288,-3.0463,-3.0169,-2.9867,-2.9575,-2.9284,-2.9203,-2.9011,-2.8884,-2.8786,-2.8858,-2.9096,-2.9701,-3.0216,-3.061,-3.1011,-3.1492,-3.1544,-3.1167,-3.1079,-3.0853,-3.0594,-3.0759,-3.0666,-3.0571,-3.0726,-3.0903,-3.0674,-3.0341,-3.0238,-3.016,-3.0027,-3.0066,-3.0269,-3.037,-3.0432,-3.0132,-2.9701,-2.9539,-2.9525,-3.0292,-3.024,-3.0138,-3.0053,-3.0053,-3.0083,-3.0083,-3.0171,-3.0253,-3.0318,-3.0367,-3.0367,-3.0328,-3.0316,-3.0311,-3.0234,-3.0214,-3.0145,-3.0167,-3.0503,-3.1053,-3.1393,-3.226,-3.2882,-3.3167,-3.3675,-3.4163,-3.4725,-3.5209,-3.5402,-3.5451,-3.5565,-3.5676,-3.5689,-3.5708,-3.5765,-3.585,-3.5834,-3.5791,-3.5782,-3.5747,-3.5718,-3.5775,-3.5803,-3.5827,-3.5872,-3.5844,-3.551,-3.4874,-3.5396,-3.4566,-3.333,-3.2654,-3.2867,-3.3165,-3.2674,-3.246,-3.2895,-3.2856,-3.2792,-3.2714,-3.2077,-3.1562,-3.1275,-3.0817,-3.0579,-3.0338,-3.0179,-2.9991,-2.9929,-2.979,-2.9664,-2.9589,-2.949,-2.9458,-2.9654,-2.9991,-3.0478,-3.0417,-2.9762,-2.9134,-2.922,-2.9393,-2.9529,-2.962,-2.98,-2.9989,-3.0453,-3.0927,-3.1332,-3.1734,-3.2151,-3.1999,-3.176,-3.1795,-3.1655,-3.1082,-3.1011,-3.0951,-3.0869,-3.0813,-3.0769,-3.0615,-3.0489,-3.0387,-3.0364,-3.0373,-3.041,-3.0506,-3.0674,-3.0847,-3.0266,-2.9746,-2.991,-2.9817,-3.0138,-3.0166,-3.003,-2.9872,-3.0064,-3.0064,-2.9969,-3.0171,-3.0253,-3.0292,-3.0318,-3.033,-3.0299,-3.0299,-3.0207,-3.0164,-3.0416,-3.0428,-3.0509,-3.109,-3.1802,-3.2067,-3.3041,-3.3611,-3.4015,-3.4301,-3.4542,-3.5032,-3.5258,-3.5424,-3.5515,-3.5616,-3.5665,-3.5659,-3.5659,-3.5745,-3.585,-3.5842,-3.5799,-3.5799,-3.5756,-3.5776,-3.5791,-3.5845,-3.5866,-3.5908,-3.5948,-3.5548,-3.496,-3.5081,-3.455,-3.371,-3.309,-3.2908,-3.3237,-3.2953,-3.3041,-3.3569,-3.3488,-3.3219,-3.3531,-3.2837,-3.234,-3.2119,-3.1766,-3.1295,-3.1067,-3.0189,-2.9993,-3.032,-2.987,-2.955,-2.9433,-2.9328,-2.9425,-2.9728,-2.9953,-3.0323,-3.0794,-3.0423,-2.99,-2.9566,-2.9809,-3.0152,-3.0404,-3.0666,-3.093,-3.1208,-3.1523,-3.1876,-3.2119,-3.2409,-3.2126,-3.1896,-3.1804,-3.1802,-3.1372,-3.1061,-3.0998,-3.0878,-3.0723,-3.0658,-3.0566,-3.0513,-3.0409,-3.0623,-3.0675,-3.0697,-3.0687,-3.0832,-3.0801,-3.0228,-2.9902,-2.9982,-3.0098,-3.0003,-3.006,-2.9918,-2.9734,-2.9996,-3.003,-2.9921,-3.0075,-3.0166,-3.0213,-3.0194,-3.0194,-3.0251,-3.0362,-3.0392,-3.0333,-3.0923,-3.1013,-3.1157,-3.1829,-3.2614,-3.3066,-3.358,-3.4005,-3.4564,-3.4831,-3.5051,-3.5155,-3.5355,-3.5502,-3.556,-3.5604,-3.5643,-3.5679,-3.5669,-3.5754,-3.5815,-3.5854,-3.5799,-3.5782,-3.5794,-3.5805,-3.5807,-3.5859,-3.5908,-3.5938,-3.5955,-3.5525,-3.5029,-3.4863,-3.4736,-3.4259,-3.3934,-3.3582,-3.3254,-3.3343,-3.3858,-3.4216,-3.4105,-3.3986,-3.4339,-3.3594,-3.3149,-3.2743,-3.2438,-3.218,-3.1958,-3.111,-3.0264,-3.0504,-3.0087,-2.9615,-2.9291,-2.9237,-2.9324,-2.9758,-2.997,-2.9909,-3.0276,-3.0625,-3.0424,-2.983,-3.0273,-3.0636,-3.0866,-3.111,-3.1576,-3.184,-3.1956,-3.2232,-3.2406,-3.247,-3.2162,-3.1875,-3.1562,-3.1428,-3.11,-3.0797,-3.0651,-3.0551,-3.0452,-3.0468,-3.0468,-3.0393,-3.0336,-3.0622,-3.0904,-3.0862,-3.0895,-3.0977,-3.0741,-3.015,-2.99,-2.9901,-3.0022,-2.9972,-2.9751,-2.9735,-2.9825,-2.9734,-2.9681,-2.9662,-2.982,-2.9853,-2.9986,-2.9959,-3.0013,-3.017,-3.0633,-3.113,-3.148,-3.1678,-3.1725,-3.1849,-3.2627,-3.3144,-3.3454,-3.4275,-3.4486,-3.485,-3.5,-3.5124,-3.5223,-3.5435,-3.5566,-3.5591,-3.5643,-3.5707,-3.5689,-3.5718,-3.5826,-3.5884,-3.5846,-3.5775,-3.5728,-3.5765,-3.5799,-3.5818,-3.5859,-3.5924,-3.5947,-3.5925,-3.5566,-3.4992,-3.5396,-3.5182,-3.4554,-3.5059,-3.5278,-3.5085,-3.4796,-3.4574,-3.511,-3.4995,-3.4831,-3.484,-3.4282,-3.3792,-3.3317,-3.2598,-3.2098,-3.1867,-3.1377,-3.1088,-3.0813,-3.0313,-2.9843,-2.9384,-2.9062,-2.9277,-2.966,-3.0017,-2.9937,-3.032,-3.0796,-3.0295,-2.9697,-3.0464,-3.1122,-3.1342,-3.1594,-3.2044,-3.232,-3.2299,-3.232,-3.2437,-3.2335,-3.2055,-3.1731,-3.1414,-3.114,-3.0838,-3.0651,-3.0459,-3.0401,-3.0342,-3.0316,-3.0316,-3.0231,-3.026,-3.0495,-3.0713,-3.0894,-3.111,-3.1296,-3.0782,-3.0054,-2.9914,-2.9783,-2.9754,-2.9773,-2.9681,-2.9608,-2.9569,-2.9589,-2.9551,-2.9532,-2.9645,-2.9963,-3.0302,-3.0395,-3.0602,-3.0998,-3.1352,-3.1549,-3.189,-3.2247,-3.247,-3.2683,-3.3351,-3.3892,-3.4113,-3.448,-3.4771,-3.4927,-3.5037,-3.5157,-3.5285,-3.5435,-3.5566,-3.5591,-3.5612,-3.5667,-3.5718,-3.5756,-3.5826,-3.5884,-3.5877,-3.5799,-3.5756,-3.5763,-3.5806,-3.5866,-3.5883,-3.5908,-3.5929,-3.5918,-3.5767,-3.544,-3.5792,-3.5671,-3.5279,-3.5445,-3.5635,-3.5515,-3.5232,-3.5167,-3.5405,-3.5369,-3.5254,-3.5122,-3.4694,-3.4321,-3.3853,-3.3112,-3.2651,-3.3006,-3.1955,-3.144,-3.1182,-3.0508,-3.0188,-2.974,-2.9163,-2.9521,-2.9807,-2.9869,-3.0118,-3.0554,-3.0884,-3.0497,-3.0234,-3.0798,-3.1408,-3.1585,-3.1738,-3.2013,-3.2176,-3.2125,-3.2179,-3.2301,-3.2125,-3.1841,-3.1531,-3.1193,-3.1004,-3.0757,-3.0634,-3.0443,-3.0359,-3.0316,-3.0323,-3.0281,-3.0179,-3.0272,-3.0405,-3.0699,-3.1036,-3.1326,-3.1597,-3.0934,-3.0294,-2.9743,-2.9538,-2.9626,-2.9626,-2.9608,-2.9492,-2.9347,-2.9454,-2.9454,-2.939,-2.9696,-3.0147,-3.0633,-3.0914,-3.1416,-3.1989,-3.2069,-3.2164,-3.2381,-3.2884,-3.316,-3.3557,-3.3994,-3.4405,-3.4553,-3.473,-3.4869,-3.4964,-3.5054,-3.5157,-3.53,-3.5435,-3.5554,-3.5591,-3.5631,-3.5648,-3.5708,-3.5782,-3.5869,-3.5885,-3.5885,-3.583,-3.5791,-3.5818,-3.5839,-3.587,-3.5888,-3.5896,-3.5897,-3.5876,-3.5845,-3.5846,-3.5791,-3.5688,-3.5599,-3.5585,-3.5596,-3.5482,-3.5306,-3.5215,-3.5258,-3.5203,-3.5089,-3.4927,-3.4693,-3.4349,-3.4144,-3.3525,-3.3209,-3.3523,-3.2621,-3.1983,-3.1601,-3.0731,-3.0413,-3.0006,-2.951,-2.9933,-3.0279,-3.0309,-3.0539,-3.1042,-3.1307,-3.1236,-3.1114,-3.1351,-3.1634,-3.1812,-3.1951,-3.1987,-3.1951,-3.1862,-3.1894,-3.1977,-3.1852,-3.1582,-3.1261,-3.101,-3.0821,-3.0749,-3.0584,-3.0443,-3.0375,-3.0399,-3.0396,-3.0336,-3.0272,-3.0489,-3.0815,-3.1002,-3.1146,-3.1257,-3.1268,-3.1081,-3.0571,-2.9946,-2.9233,-2.9701,-2.9683,-2.9429,-2.937,-2.9411,-2.9265,-2.924,-2.9407,-3.0072,-3.0424,-3.0738,-3.1275,-3.2088,-3.2521,-3.2718,-3.2999,-3.3584,-3.3894,-3.3926,-3.4093,-3.4445,-3.4612,-3.4752,-3.487,-3.502,-3.511,-3.5108,-3.5174,-3.5281,-3.5407,-3.5515,-3.5586,-3.5643,-3.5679,-3.5745,-3.5815,-3.5872,-3.5898,-3.5898,-3.5892,-3.5866,-3.5883,-3.5888,-3.5893,-3.5886,-3.5898,-3.5899,-3.5841,-3.582,-3.5801,-3.5699,-3.5618,-3.5589,-3.5528,-3.5449,-3.5364,-3.5203,-3.5086,-3.5018,-3.5,-3.4908,-3.4666,-3.4358,-3.4105,-3.3954,-3.3643,-3.3444,-3.3397,-3.2751,-3.2146,-3.1649,-3.1088,-3.0725,-3.0404,-3.0105,-3.03,-3.056,-3.0623,-3.0907,-3.1498,-3.1616,-3.1399,-3.1213,-3.1308,-3.1387,-3.1529,-3.1468,-3.1507,-3.1531,-3.1456,-3.1452,-3.1483,-3.1538,-3.1312,-3.1015,-3.084,-3.085,-3.0809,-3.0709,-3.0542,-3.0408,-3.0465,-3.0571,-3.0628,-3.0629,-3.0925,-3.1107,-3.1099,-3.1078,-3.1028,-3.0953,-3.072,-3.0222,-2.9449,-2.8784,-2.9682,-2.9682,-2.9549,-2.951,-2.9567,-2.9783,-2.988,-2.9982,-3.0601,-3.1194,-3.1685,-3.2504,-3.3044,-3.3272,-3.3382,-3.3503,-3.3815,-3.3954,-3.4111,-3.4321,-3.4524,-3.4672,-3.4792,-3.4908,-3.4983,-3.5075,-3.5091,-3.5141,-3.5289,-3.5398,-3.5501,-3.5591,-3.5635,-3.5698,-3.5765,-3.5845,-3.5872,-3.5898,-3.5897,-3.5889,-3.5894,-3.5896,-3.5896,-3.5897,-3.5898,-3.5884,-3.589,-3.5846,-3.5791,-3.5718,-3.5585,-3.5495,-3.5418,-3.534,-3.527,-3.5155,-3.498,-3.487,-3.4732,-3.4711,-3.4607,-3.4293,-3.4042,-3.3834,-3.3698,-3.3481,-3.3256,-3.3135,-3.2979,-3.2362,-3.2054,-3.1497,-3.1014,-3.0791,-3.0742,-3.0783,-3.0838,-3.0941,-3.0953,-3.1433,-3.1422,-3.1287,-3.115,-3.1044,-3.1082,-3.1172,-3.1089,-3.1059,-3.1207,-3.1213,-3.12,-3.1133,-3.1133,-3.1173,-3.0883,-3.0892,-3.0974,-3.0915,-3.0882,-3.0865,-3.0839,-3.0735,-3.0835,-3.0886,-3.0927,-3.1118,-3.1114,-3.1012,-3.0982,-3.0896,-3.0646,-3.03,-2.9699,-2.9022,-2.8505,-2.9737,-2.9736,-2.9682,-2.9589,-2.9623,-3.0145,-3.0346,-3.0475,-3.1286,-3.2054,-3.2784,-3.3433,-3.3671,-3.368,-3.3689,-3.376,-3.3858,-3.3986,-3.4208,-3.4394,-3.4609,-3.4751,-3.4869,-3.4927,-3.4964,-3.502,-3.5075,-3.5162,-3.5293,-3.5364,-3.5482,-3.5572,-3.5615,-3.5708,-3.5793,-3.5859,-3.5897,-3.5936,-3.5919,-3.59,-3.5923,-3.5895,-3.589,-3.5888,-3.5868,-3.5856,-3.5846,-3.5791,-3.5728,-3.5657,-3.5526,-3.5378,-3.5277,-3.5152,-3.5034,-3.4908,-3.4754,-3.4672,-3.4542,-3.4404,-3.425,-3.3972,-3.378,-3.3605,-3.3452,-3.3334,-3.3104,-3.288,-3.2784,-3.2586,-3.2178,-3.1532,-3.1167,-3.0942,-3.0907,-3.0973,-3.1089,-3.1185,-3.1158,-3.1232,-3.1123,-3.1043,-3.1225,-3.1139,-3.1266,-3.1282,-3.1249,-3.1264,-3.1427,-3.1328,-3.1104,-3.0971,-3.0815,-3.0841,-3.0841,-3.1163,-3.1461,-3.1421,-3.1388,-3.149,-3.147,-3.1275,-3.1182,-3.1244,-3.1296,-3.1316,-3.1282,-3.1262,-3.1046,-3.0764,-3.0297,-2.9713,-2.9498,-2.8944,-2.8549,-2.9771,-2.9789,-2.9712,-2.9588,-2.9526,-3.029,-3.0572,-3.0793,-3.2004,-3.292,-3.3395,-3.3595,-3.3605,-3.3623,-3.3671,-3.3797,-3.3968,-3.4111,-3.4302,-3.4489,-3.4691,-3.4849,-3.4907,-3.4927,-3.4927,-3.5001,-3.5075,-3.5181,-3.5312,-3.5355,-3.547,-3.5596,-3.5667,-3.5727,-3.5793,-3.5866,-3.5914,-3.5973,-3.5931,-3.5942,-3.5956,-3.5936,-3.5921,-3.5888,-3.586,-3.584,-3.5795,-3.5757,-3.5697,-3.5604,-3.5424,-3.5296,-3.5168,-3.5,-3.4851,-3.4772,-3.4524,-3.4363,-3.4197,-3.4074,-3.3895,-3.3707,-3.3549,-3.3422,-3.3334,-3.3165,-3.2898,-3.2654,-3.2555,-3.2053,-3.1655,-3.141,-3.1215,-3.1124,-3.1099,-3.1056,-3.1202,-3.1077,-3.0954,-3.112,-3.0858,-3.0665,-3.105,-3.1326,-3.1466,-3.1487,-3.1407,-3.145,-3.1534,-3.1486,-3.1242,-3.1157,-3.099,-3.1062,-3.1292,-3.1731,-3.1957,-3.1874,-3.1863,-3.1918,-3.1884,-3.1653,-3.1573,-3.1574,-3.1525,-3.1496,-3.15,-3.148,-3.1102,-3.058,-2.9699,-2.9149,-2.8994,-2.8867,-2.8536,-2.979,-2.9735,-2.9712,-2.9643,-2.97,-3.0884,-3.1643,-3.2233,-3.2934,-3.335,-3.3444,-3.3509,-3.3606,-3.3716,-3.3788,-3.3902,-3.4087,-3.4232,-3.4416,-3.4524,-3.4728,-3.4829,-3.4887,-3.4888,-3.4908,-3.4945,-3.5038,-3.5145,-3.5226,-3.5321,-3.547,-3.5596,-3.5708,-3.5779,-3.5859,-3.5928,-3.5977,-3.6009,-3.5982,-3.5976,-3.6007,-3.5977,-3.5919,-3.5875,-3.5852,-3.5826,-3.5782,-3.5718,-3.5646,-3.5526,-3.534,-3.5119,-3.4981,-3.4792,-3.4586,-3.4435,-3.4245,-3.4023,-3.3807,-3.3633,-3.3577,-3.3481,-3.3393,-3.3196,-3.2975,-3.288,-3.2636,-3.2454,-3.2301,-3.1899,-3.1756,-3.1539,-3.1373,-3.1257,-3.121,-3.1072,-3.1055,-3.0723,-3.0601,-3.1014,-3.104,-3.1047,-3.1291,-3.1566,-3.1742,-3.1839,-3.1805,-3.147,-3.1405,-3.1534,-3.1453,-3.1484,-3.1418,-3.151,-3.1713,-3.2253,-3.2269,-3.2076,-3.2087,-3.2222,-3.2112,-3.1983,-3.1703,-3.1558,-3.1582,-3.1626,-3.1507,-3.1308,-3.0877,-3.0283,-2.9554,-2.8949,-2.8766,-2.8688,-2.8573,-2.97,-2.9663,-2.9625,-2.9945,-3.0525,-3.1486,-3.2514,-3.3385,-3.3621,-3.3605,-3.352,-3.3577,-3.368,-3.3778,-3.3902,-3.4049,-3.4221,-3.4316,-3.4431,-3.4558,-3.4706,-3.4788,-3.4849,-3.4888,-3.4908,-3.4927,-3.502,-3.5145,-3.5226,-3.5321,-3.5477,-3.5646,-3.5736,-3.5811,-3.5891,-3.5948,-3.6005,-3.6004,-3.5971,-3.5964,-3.597,-3.5933,-3.5878,-3.5801,-3.5791,-3.5799,-3.5737,-3.5658,-3.5604,-3.5432,-3.5212,-3.4944,-3.4793,-3.4564,-3.4316,-3.4148,-3.3921,-3.3726,-3.3538,-3.3256,-3.3208,-3.3147,-3.3104,-3.2961,-3.2702,-3.2636,-3.242,-3.2197,-3.2055,-3.1875,-3.1637,-3.147,-3.1334,-3.1252,-3.111,-3.0965,-3.1041,-3.0771,-3.0696,-3.1124,-3.1239,-3.131,-3.1512,-3.1789,-3.1997,-3.21,-3.2171,-3.1813,-3.1491,-3.165,-3.1914,-3.1996,-3.1869,-3.1855,-3.2224,-3.2836,-3.2739,-3.232,-3.2385,-3.259,-3.2421,-3.2285,-3.1918,-3.1549,-3.1576,-3.1549,-3.1366,-3.1072,-3.065,-3.0182,-2.9545,-2.9036,-2.8692,-2.8627,-2.8603,-2.9588,-2.9588,-2.9472,-3.0329,-3.1755,-3.2027,-3.2935,-3.4099,-3.3921,-3.3726,-3.3633,-3.3788,-3.3842,-3.378,-3.3939,-3.4124,-3.4293,-3.4316,-3.4431,-3.4561,-3.4685,-3.4747,-3.4809,-3.4849,-3.4907,-3.4946,-3.5038,-3.5145,-3.5226,-3.5369,-3.5538,-3.5679,-3.5749,-3.5833,-3.5894,-3.5951,-3.5985,-3.5984,-3.5957,-3.5919,-3.5898,-3.5842,-3.576,-3.5706,-3.566,-3.5658,-3.5604,-3.5558,-3.5509,-3.535,-3.5114,-3.4907,-3.4672,-3.4386,-3.4148,-3.3868,-3.3605,-3.3462,-3.3226,-3.293,-3.2834,-3.2752,-3.2687,-3.2669,-3.2603,-3.242,-3.2179,-3.1966,-3.1839,-3.16,-3.1393,-3.1257,-3.114,-3.1012,-3.0908,-3.0978,-3.1172,-3.1086,-3.1083,-3.115,-3.1155,-3.1326,-3.1706,-3.1982,-3.2304,-3.2404,-3.2494,-3.2599,-3.2343,-3.2222,-3.2475,-3.2764,-3.2561,-3.2217,-3.264,-3.3124,-3.3024,-3.2586,-3.2873,-3.3022,-3.283,-3.2451,-3.2059,-3.1723,-3.1607,-3.1439,-3.1337,-3.0983,-3.0391,-2.9946,-2.9822,-2.9392,-2.91,-2.8872,-2.8781,-2.9511,-2.9453,-2.9414,-3.0027,-3.1086,-3.2225,-3.3278,-3.4031,-3.3998,-3.3868,-3.3753,-3.3788,-3.3895,-3.3998,-3.4049,-3.4221,-3.4381,-3.445,-3.4495,-3.4602,-3.4687,-3.4727,-3.4768,-3.4849,-3.4907,-3.4964,-3.5056,-3.5196,-3.5289,-3.5443,-3.5618,-3.576,-3.5781,-3.585,-3.5877,-3.5927,-3.5953,-3.5957,-3.5908,-3.5866,-3.583,-3.5793,-3.5689,-3.562,-3.5546,-3.5519,-3.5464,-3.5383,-3.5292,-3.5117,-3.4813,-3.4593,-3.448,-3.4105,-3.3762,-3.3291,-3.3147,-3.2993,-3.2654,-3.2573,-3.2539,-3.2352,-3.2335,-3.2266,-3.2232,-3.2126,-3.1912,-3.1748,-3.1617,-3.1428,-3.1314,-3.119,-3.1165,-3.1146,-3.099,-3.0987,-3.115,-3.1118,-3.1124,-3.1357,-3.1402,-3.1612,-3.1997,-3.2392,-3.2647,-3.2703,-3.2765,-3.2926,-3.2986,-3.2804,-3.2809,-3.3066,-3.3072,-3.2669,-3.2708,-3.3108,-3.3019,-3.2966,-3.3093,-3.3087,-3.264,-3.2299,-3.2064,-3.1841,-3.1597,-3.1539,-3.1467,-3.0969,-3.0387,-3.0616,-3.049,-3.0,-2.9574,-2.9333,-2.9093,-2.9551,-2.9491,-2.9434,-3.0064,-3.121,-3.2432,-3.343,-3.4056,-3.4099,-3.3998,-3.3913,-3.3972,-3.4049,-3.408,-3.4221,-3.434,-3.4491,-3.4536,-3.458,-3.4602,-3.4708,-3.4751,-3.4811,-3.4927,-3.5038,-3.5072,-3.5174,-3.53,-3.5402,-3.5577,-3.5747,-3.583,-3.5833,-3.5873,-3.5886,-3.5898,-3.5888,-3.5896,-3.5884,-3.5814,-3.5771,-3.5708,-3.5596,-3.5519,-3.5438,-3.5372,-3.5292,-3.5184,-3.5102,-3.4944,-3.4655,-3.4458,-3.4227,-3.3823,-3.3408,-3.2957,-3.2669,-3.2504,-3.2231,-3.2232,-3.2126,-3.2037,-3.1965,-3.1946,-3.1873,-3.1783,-3.1654,-3.1487,-3.1406,-3.1303,-3.1234,-3.1208,-3.1292,-3.1352,-3.1182,-3.0994,-3.1,-3.1063,-3.1272,-3.162,-3.1818,-3.2087,-3.2382,-3.2718,-3.2989,-3.2926,-3.2926,-3.2942,-3.3049,-3.3077,-3.3029,-3.3124,-3.3156,-3.3029,-3.3096,-3.3005,-3.2942,-3.2841,-3.2749,-3.2672,-3.2382,-3.2176,-3.1996,-3.1769,-3.1597,-3.1497,-3.1367,-3.0966,-3.0573,-3.0779,-3.0776,-3.0296,-2.9902,-2.9889,-2.9562,-2.9645,-2.9587,-2.966,-3.053,-3.1823,-3.2748,-3.3547,-3.416,-3.4197,-3.4148,-3.4074,-3.4179,-3.4197,-3.4179,-3.4293,-3.4404,-3.4473,-3.4517,-3.458,-3.4623,-3.4732,-3.4792,-3.4889,-3.5089,-3.5141,-3.5254,-3.5374,-3.5418,-3.5562,-3.5698,-3.5812,-3.5891,-3.5899,-3.5913,-3.5898,-3.5888,-3.5877,-3.5841,-3.5795,-3.5752,-3.5657,-3.556,-3.5435,-3.5354,-3.5289,-3.5219,-3.5122,-3.5053,-3.4999,-3.4813,-3.4591,-3.4335,-3.3831,-3.3419,-3.2988,-3.2651,-3.2283,-3.2003,-3.1877,-3.1858,-3.1765,-3.1709,-3.1671,-3.1688,-3.1614,-3.1559,-3.1449,-3.1397,-3.1348,-3.1338,-3.1308,-3.1342,-3.1396,-3.1454,-3.1365,-3.1371,-3.1482,-3.1367,-3.1277,-3.1576,-3.1697,-3.1951,-3.212,-3.2413,-3.2532,-3.2756,-3.2964,-3.3011,-3.2873,-3.298,-3.3081,-3.3043,-3.3096,-3.3043,-3.2935,-3.2827,-3.2773,-3.2703,-3.2578,-3.2508,-3.2367,-3.212,-3.194,-3.1712,-3.1539,-3.1367,-3.1145,-3.0866,-3.0665,-3.0689,-3.061,-3.04,-3.0231,-3.0174,-2.9918,-2.9608,-2.9563,-3.0708,-3.1444,-3.1968,-3.3305,-3.3974,-3.4197,-3.4245,-3.4245,-3.4245,-3.4221,-3.4264,-3.4269,-3.4269,-3.4358,-3.4427,-3.4495,-3.4517,-3.4626,-3.4752,-3.4851,-3.4889,-3.5124,-3.5223,-3.5247,-3.5359,-3.5546,-3.5697,-3.5791,-3.5862,-3.5977,-3.5962,-3.5932,-3.5898,-3.589,-3.585,-3.5774,-3.5706,-3.5649,-3.5558,-3.5528,-3.5432,-3.5312,-3.5193,-3.5018,-3.4889,-3.4752,-3.4609,-3.4435,-3.413,-3.3698,-3.3148,-3.2844,-3.2504,-3.2144,-3.1896,-3.162,-3.1449,-3.1428,-3.1428,-3.1406,-3.1406,-3.1406,-3.1389,-3.1351,-3.1325,-3.1303,-3.1338,-3.1382,-3.138,-3.1433,-3.1482,-3.1569,-3.1604,-3.1728,-3.1885,-3.1596,-3.1285,-3.1375,-3.1537,-3.1667,-3.1823,-3.1962,-3.2069,-3.2376,-3.2726,-3.2796,-3.2485,-3.247,-3.2742,-3.2773,-3.2935,-3.2881,-3.2718,-3.2664,-3.2594,-3.2594,-3.2523,-3.2437,-3.2342,-3.2394,-3.2337,-3.1832,-3.1569,-3.1441,-3.1297,-3.0902,-3.0755,-3.0786,-3.0647,-3.0379,-3.0393,-3.0377,-3.0054,-2.9701,-2.9738,-3.0791,-3.1652,-3.2391,-3.3305,-3.3863,-3.416,-3.4245,-3.4269,-3.4293,-3.425,-3.4269,-3.4316,-3.4293,-3.4316,-3.4409,-3.4473,-3.4586,-3.4711,-3.4812,-3.4944,-3.507,-3.5223,-3.5364,-3.5411,-3.5523,-3.5669,-3.5827,-3.5891,-3.5953,-3.6004,-3.5991,-3.5976,-3.5925,-3.589,-3.5813,-3.5696,-3.5607,-3.5489,-3.5411,-3.5326,-3.5203,-3.507,-3.4889,-3.4732,-3.4524,-3.4344,-3.416,-3.3935,-3.3643,-3.3302,-3.2827,-3.2486,-3.2127,-3.1768,-3.1487,-3.1196,-3.1015,-3.0975,-3.1095,-3.1095,-3.1078,-3.11,-3.1213,-3.1173,-3.0998,-3.1005,-3.135,-3.1401,-3.1477,-3.1499,-3.1829,-3.2027,-3.1741,-3.1581,-3.1417,-3.1042,-3.0955,-3.1058,-3.1219,-3.1364,-3.1537,-3.1709,-3.1758,-3.1647,-3.2059,-3.216,-3.1916,-3.2053,-3.2272,-3.2499,-3.2664,-3.2648,-3.2484,-3.2468,-3.2523,-3.2453,-3.2475,-3.2492,-3.252,-3.2798,-3.2791,-3.2302,-3.1914,-3.1827,-3.1545,-3.1197,-3.0957,-3.0951,-3.0739,-3.0513,-3.0478,-3.0471,-3.0278,-2.9825,-2.9868,-3.0541,-3.1548,-3.2696,-3.3096,-3.3566,-3.4123,-3.4221,-3.4245,-3.4293,-3.4298,-3.4316,-3.434,-3.434,-3.4386,-3.4431,-3.4495,-3.4647,-3.4773,-3.4907,-3.5051,-3.5219,-3.5422,-3.5515,-3.5623,-3.5708,-3.5799,-3.5904,-3.5948,-3.5994,-3.601,-3.5995,-3.5977,-3.5934,-3.5853,-3.5732,-3.559,-3.5457,-3.5247,-3.5152,-3.5047,-3.4906,-3.4734,-3.4524,-3.4358,-3.4124,-3.3928,-3.377,-3.3458,-3.3196,-3.2763,-3.2419,-3.2039,-3.1714,-3.1372,-3.1157,-3.0935,-3.0773,-3.0692,-3.0733,-3.0733,-3.0723,-3.0781,-3.0935,-3.0855,-3.0634,-3.0882,-3.1215,-3.1495,-3.155,-3.1801,-3.2126,-3.2261,-3.1886,-3.1522,-3.1131,-3.0747,-3.0762,-3.0821,-3.0866,-3.0955,-3.1073,-3.1306,-3.1285,-3.1151,-3.111,-3.1053,-3.1203,-3.1607,-3.1936,-3.2191,-3.2413,-3.2302,-3.2247,-3.2302,-3.2413,-3.2609,-3.2634,-3.2619,-3.2717,-3.2916,-3.2958,-3.2709,-3.2358,-3.2147,-3.1997,-3.1678,-3.142,-3.1128,-3.115,-3.096,-3.0625,-3.0631,-3.0453,-2.9719,-2.9662,-3.0891,-3.1635,-3.2117,-3.3337,-3.4067,-3.4184,-3.425,-3.4311,-3.4316,-3.434,-3.4363,-3.4363,-3.4316,-3.4363,-3.4498,-3.4561,-3.4649,-3.4793,-3.4981,-3.5138,-3.5296,-3.5483,-3.5635,-3.5728,-3.5807,-3.5872,-3.5953,-3.5986,-3.6013,-3.6015,-3.5986,-3.5931,-3.584,-3.5749,-3.565,-3.55,-3.535,-3.5171,-3.5,-3.4889,-3.4755,-3.4591,-3.4454,-3.4245,-3.4049,-3.3895,-3.3634,-3.3302,-3.2809,-3.2282,-3.1878,-3.1603,-3.1334,-3.1021,-3.0814,-3.0773,-3.0651,-3.0468,-3.0468,-3.041,-3.0393,-3.0342,-3.0384,-3.0284,-3.0288,-3.058,-3.0972,-3.139,-3.1589,-3.2033,-3.2345,-3.2305,-3.2048,-3.1724,-3.1379,-3.097,-3.0807,-3.0628,-3.0447,-3.0447,-3.0387,-3.0553,-3.0584,-3.0543,-3.0866,-3.085,-3.0822,-3.1203,-3.167,-3.1853,-3.2135,-3.2302,-3.2358,-3.2358,-3.2475,-3.2649,-3.2877,-3.3079,-3.3095,-3.3033,-3.2952,-3.2904,-3.2638,-3.2334,-3.2203,-3.2122,-3.1689,-3.1389,-3.1589,-3.1525,-3.1134,-3.0931,-3.0922]}]]